[[{"header":{"parameterUnit":"m.s-1","parameterCategory":1,"la1":30.6,"la2":29.2853,"lo1":-89.7004,"lo2":-87.6739,"dy":0.0162,"dx":0.0183,"nx":112,"ny":82,"refTime":"2025-04-16T06:00:00:Z","depth":0,"parameterNumber":2,"parameterNumberName":"U-component_of_WINDS"},"data":[0.0,0.0,0.0,0.0,0.0,0.0,0.0,0.0,0.0,0.0,0.0,0.0,0.0,0.0,0.0,0.0,0.0,0.0,0.0,0.0,0.0,0.0,0.0,0.0,0.0,0.0,0.0,0.0,0.0,0.0,0.0,0.0,0.0,0.0,0.0,0.0,0.0,0.0,0.0,0.0,0.0,0.0,0.0,0.0,0.0,0.0,0.0,0.0,0.0,0.0,0.0,0.0,0.0,0.0,0.0,0.0,0.0,0.0,0.0,0.0,0.0,0.0,0.0,0.0,0.0,0.0,0.0,0.0,0.0,0.0,0.0,0.0,0.0,0.0,0.0,0.0,0.0,0.0,0.0,0.0,0.0,0.0,0.0,0.0,0.0,0.0,0.0,0.0,0.0,0.0,-3.7286,-3.9445,-4.2527,-4.4412,-4.4412,-4.3575,-4.124,-3.703,0.0,0.0,0.0,0.0,0.0,0.0,0.0,0.0,0.0,0.0,0.0,0.0,0.0,0.0,0.0,0.0,0.0,0.0,0.0,0.0,0.0,0.0,0.0,0.0,0.0,0.0,0.0,0.0,0.0,0.0,0.0,0.0,0.0,0.0,0.0,0.0,0.0,0.0,0.0,0.0,0.0,0.0,0.0,0.0,0.0,0.0,0.0,0.0,0.0,0.0,0.0,0.0,0.0,0.0,0.0,0.0,0.0,0.0,0.0,0.0,0.0,0.0,0.0,0.0,0.0,0.0,0.0,0.0,0.0,0.0,0.0,0.0,0.0,0.0,0.0,0.0,0.0,0.0,0.0,0.0,0.0,0.0,0.0,0.0,0.0,0.0,0.0,0.0,0.0,0.0,0.0,0.0,0.0,0.0,0.0,0.0,0.0,0.0,0.0,0.0,0.0,0.0,0.0,0.0,-3.6874,-4.2158,-4.3184,-4.3502,-4.3502,-4.22,-4.0012,-3.6816,0.0,0.0,0.0,0.0,0.0,0.0,0.0,0.0,0.0,0.0,0.0,0.0,0.0,0.0,0.0,0.0,0.0,0.0,0.0,0.0,0.0,0.0,0.0,0.0,0.0,0.0,0.0,0.0,0.0,0.0,0.0,0.0,0.0,0.0,0.0,0.0,0.0,0.0,0.0,0.0,0.0,0.0,0.0,0.0,0.0,0.0,0.0,0.0,0.0,0.0,0.0,0.0,0.0,0.0,0.0,0.0,0.0,0.0,0.0,0.0,0.0,0.0,0.0,0.0,0.0,0.0,0.0,0.0,0.0,0.0,0.0,0.0,0.0,0.0,0.0,0.0,0.0,0.0,0.0,0.0,0.0,0.0,0.0,0.0,0.0,0.0,0.0,0.0,0.0,0.0,0.0,0.0,0.0,0.0,0.0,0.0,0.0,0.0,0.0,0.0,0.0,0.0,0.0,-3.5274,-3.7433,-4.2147,-4.2604,-4.2599,-4.2599,-4.1253,-3.9312,-3.6757,-3.4544,0.0,0.0,0.0,0.0,0.0,0.0,0.0,0.0,0.0,0.0,0.0,0.0,0.0,0.0,0.0,0.0,0.0,0.0,0.0,0.0,0.0,0.0,0.0,0.0,0.0,0.0,0.0,0.0,0.0,0.0,0.0,0.0,0.0,0.0,0.0,0.0,0.0,0.0,0.0,0.0,0.0,0.0,0.0,0.0,0.0,0.0,0.0,0.0,0.0,0.0,0.0,0.0,0.0,0.0,0.0,0.0,0.0,0.0,0.0,0.0,0.0,0.0,0.0,0.0,0.0,0.0,0.0,0.0,0.0,0.0,0.0,0.0,0.0,0.0,0.0,0.0,0.0,0.0,0.0,0.0,0.0,0.0,0.0,0.0,0.0,0.0,0.0,0.0,0.0,0.0,0.0,0.0,0.0,0.0,0.0,0.0,0.0,0.0,0.0,0.0,0.0,0.0,-3.7106,-3.8578,-4.1677,-4.1836,-4.1691,-4.1691,-3.9959,-3.8078,-3.6149,-3.3237,0.0,0.0,0.0,0.0,0.0,0.0,0.0,0.0,0.0,0.0,0.0,0.0,0.0,0.0,0.0,0.0,0.0,0.0,0.0,0.0,0.0,0.0,0.0,0.0,0.0,0.0,0.0,0.0,0.0,0.0,0.0,0.0,0.0,0.0,0.0,0.0,0.0,0.0,0.0,0.0,0.0,0.0,0.0,0.0,0.0,0.0,0.0,0.0,0.0,0.0,0.0,0.0,0.0,0.0,0.0,0.0,0.0,0.0,0.0,0.0,0.0,0.0,0.0,0.0,0.0,0.0,0.0,0.0,0.0,0.0,0.0,0.0,0.0,0.0,0.0,0.0,0.0,0.0,0.0,0.0,0.0,0.0,0.0,0.0,0.0,0.0,0.0,0.0,0.0,0.0,0.0,0.0,0.0,0.0,0.0,0.0,0.0,0.0,0.0,0.0,0.0,0.0,-3.7283,-4.0267,-4.1821,-4.1264,-4.0777,-4.0777,-3.7779,-3.5466,-3.4438,-3.1303,0.0,0.0,0.0,0.0,0.0,0.0,0.0,0.0,0.0,0.0,0.0,0.0,0.0,0.0,0.0,0.0,0.0,0.0,0.0,0.0,0.0,0.0,0.0,0.0,0.0,0.0,0.0,0.0,0.0,0.0,0.0,0.0,0.0,0.0,0.0,0.0,0.0,0.0,0.0,0.0,0.0,0.0,0.0,0.0,0.0,0.0,0.0,0.0,0.0,0.0,0.0,0.0,0.0,0.0,0.0,0.0,0.0,0.0,0.0,0.0,0.0,0.0,0.0,0.0,0.0,0.0,0.0,0.0,0.0,0.0,0.0,0.0,0.0,0.0,0.0,0.0,0.0,0.0,0.0,0.0,0.0,0.0,0.0,0.0,0.0,0.0,0.0,0.0,0.0,0.0,0.0,0.0,0.0,0.0,0.0,0.0,0.0,0.0,0.0,0.0,0.0,0.0,-3.5281,-3.7903,-4.0136,-4.0095,-3.99,-3.99,-3.7594,-3.5462,-3.3802,0.0,0.0,0.0,0.0,0.0,0.0,0.0,0.0,0.0,0.0,0.0,0.0,0.0,0.0,0.0,0.0,0.0,0.0,0.0,0.0,0.0,0.0,0.0,0.0,0.0,0.0,0.0,0.0,0.0,0.0,0.0,0.0,0.0,0.0,0.0,0.0,0.0,0.0,0.0,0.0,0.0,0.0,0.0,0.0,0.0,0.0,0.0,0.0,0.0,0.0,0.0,0.0,0.0,0.0,0.0,0.0,0.0,0.0,0.0,0.0,0.0,0.0,0.0,0.0,0.0,0.0,0.0,0.0,0.0,0.0,0.0,0.0,0.0,0.0,0.0,0.0,0.0,0.0,0.0,0.0,0.0,0.0,0.0,0.0,0.0,0.0,0.0,0.0,0.0,0.0,0.0,0.0,0.0,0.0,0.0,0.0,0.0,0.0,0.0,0.0,0.0,0.0,-3.1753,-3.4333,-3.6831,-3.9161,-3.9388,-3.9334,-3.911,-3.6911,-3.4739,-3.2847,0.0,0.0,0.0,0.0,0.0,0.0,0.0,0.0,0.0,0.0,0.0,0.0,0.0,0.0,0.0,0.0,0.0,0.0,0.0,0.0,0.0,0.0,0.0,0.0,0.0,0.0,0.0,0.0,0.0,0.0,0.0,0.0,0.0,0.0,0.0,0.0,0.0,0.0,0.0,0.0,0.0,0.0,0.0,0.0,0.0,0.0,0.0,0.0,0.0,0.0,0.0,0.0,0.0,0.0,0.0,0.0,0.0,0.0,0.0,0.0,0.0,0.0,0.0,0.0,0.0,0.0,0.0,0.0,0.0,0.0,0.0,0.0,0.0,0.0,0.0,0.0,0.0,0.0,0.0,0.0,0.0,0.0,0.0,0.0,0.0,0.0,0.0,0.0,0.0,0.0,0.0,0.0,0.0,0.0,0.0,0.0,0.0,0.0,0.0,0.0,0.0,0.0,-3.1374,-3.4934,-3.7928,-3.9239,-3.9388,-3.914,-3.8452,-3.54,-3.2869,0.0,0.0,0.0,0.0,0.0,0.0,0.0,0.0,0.0,0.0,0.0,0.0,0.0,0.0,0.0,0.0,0.0,0.0,0.0,0.0,0.0,0.0,0.0,0.0,0.0,0.0,0.0,0.0,0.0,0.0,0.0,0.0,0.0,0.0,0.0,0.0,0.0,0.0,0.0,0.0,0.0,0.0,0.0,0.0,0.0,0.0,0.0,0.0,0.0,0.0,0.0,0.0,0.0,0.0,0.0,0.0,0.0,0.0,0.0,0.0,0.0,0.0,0.0,0.0,0.0,0.0,0.0,0.0,0.0,0.0,0.0,0.0,0.0,0.0,0.0,0.0,0.0,0.0,0.0,0.0,0.0,0.0,0.0,0.0,0.0,0.0,0.0,0.0,0.0,0.0,0.0,0.0,0.0,0.0,0.0,0.0,0.0,0.0,0.0,0.0,0.0,0.0,0.0,-3.13,-3.4934,-3.7928,-3.9239,-3.9388,-3.914,-3.8452,-3.6252,-3.3711,-3.0923,0.0,0.0,0.0,0.0,0.0,0.0,0.0,0.0,0.0,0.0,0.0,0.0,0.0,0.0,0.0,0.0,0.0,0.0,0.0,0.0,0.0,0.0,0.0,0.0,0.0,0.0,0.0,0.0,0.0,0.0,0.0,0.0,0.0,0.0,0.0,0.0,0.0,0.0,0.0,0.0,0.0,0.0,0.0,0.0,0.0,0.0,0.0,0.0,0.0,0.0,0.0,0.0,0.0,0.0,0.0,0.0,0.0,0.0,0.0,0.0,0.0,0.0,0.0,0.0,0.0,0.0,0.0,0.0,0.0,0.0,0.0,0.0,0.0,0.0,0.0,0.0,0.0,0.0,0.0,0.0,0.0,0.0,0.0,0.0,0.0,0.0,0.0,0.0,0.0,0.0,0.0,0.0,0.0,0.0,0.0,0.0,0.0,0.0,0.0,0.0,0.0,0.0,-3.1256,-3.4934,-3.7928,-3.9239,-3.9388,-3.914,-3.8452,-3.6851,-3.4352,-3.0731,0.0,0.0,0.0,0.0,0.0,0.0,0.0,0.0,0.0,0.0,0.0,0.0,0.0,0.0,0.0,0.0,0.0,0.0,0.0,0.0,0.0,0.0,0.0,0.0,0.0,0.0,0.0,0.0,0.0,0.0,0.0,0.0,0.0,0.0,0.0,0.0,0.0,0.0,0.0,0.0,0.0,0.0,0.0,0.0,0.0,0.0,0.0,0.0,0.0,0.0,0.0,0.0,0.0,0.0,0.0,0.0,0.0,0.0,0.0,0.0,0.0,0.0,0.0,0.0,0.0,0.0,0.0,0.0,0.0,0.0,0.0,0.0,0.0,0.0,0.0,0.0,0.0,0.0,0.0,0.0,0.0,0.0,0.0,0.0,0.0,0.0,0.0,0.0,0.0,0.0,0.0,0.0,0.0,0.0,0.0,0.0,0.0,0.0,0.0,0.0,0.0,0.0,-3.1256,-3.4934,-3.7928,-3.9239,-3.9388,-3.914,-3.8452,-3.7225,-3.4831,-3.0926,0.0,0.0,0.0,0.0,0.0,0.0,0.0,0.0,0.0,0.0,0.0,0.0,0.0,0.0,0.0,0.0,0.0,0.0,0.0,0.0,0.0,0.0,0.0,0.0,0.0,0.0,0.0,0.0,0.0,0.0,0.0,0.0,0.0,0.0,0.0,0.0,0.0,0.0,0.0,0.0,0.0,0.0,0.0,0.0,0.0,0.0,0.0,0.0,0.0,0.0,0.0,0.0,0.0,0.0,0.0,0.0,0.0,0.0,0.0,0.0,-3.1686,-3.1492,0.0,0.0,0.0,0.0,0.0,0.0,0.0,0.0,0.0,0.0,0.0,0.0,0.0,0.0,0.0,0.0,0.0,0.0,0.0,0.0,0.0,0.0,0.0,0.0,0.0,0.0,0.0,0.0,0.0,0.0,0.0,0.0,0.0,0.0,0.0,0.0,0.0,0.0,0.0,0.0,-3.1256,-3.4934,-3.7928,-3.9239,-3.9388,-3.914,-3.8452,-3.7225,-3.522,-3.2273,-2.9116,0.0,0.0,0.0,0.0,0.0,0.0,0.0,0.0,0.0,0.0,0.0,0.0,0.0,0.0,0.0,0.0,0.0,0.0,0.0,0.0,0.0,0.0,0.0,0.0,0.0,0.0,0.0,0.0,0.0,0.0,0.0,0.0,0.0,0.0,0.0,0.0,0.0,0.0,0.0,0.0,0.0,0.0,0.0,0.0,0.0,0.0,0.0,0.0,0.0,0.0,0.0,0.0,0.0,0.0,0.0,0.0,0.0,0.0,0.0,-3.2979,-3.2478,0.0,0.0,0.0,0.0,0.0,0.0,0.0,0.0,0.0,0.0,0.0,0.0,0.0,0.0,0.0,0.0,0.0,0.0,0.0,0.0,0.0,0.0,0.0,0.0,0.0,0.0,0.0,0.0,0.0,0.0,0.0,0.0,0.0,0.0,0.0,0.0,0.0,0.0,0.0,0.0,-3.169,-3.5128,-3.7928,-3.9239,-3.9388,-3.914,-3.8452,-3.7494,-3.5669,-3.2706,-3.0013,0.0,0.0,0.0,0.0,0.0,0.0,0.0,0.0,0.0,0.0,0.0,0.0,0.0,0.0,0.0,0.0,0.0,0.0,0.0,0.0,0.0,0.0,0.0,0.0,0.0,0.0,0.0,0.0,0.0,0.0,0.0,0.0,0.0,0.0,0.0,0.0,0.0,0.0,0.0,0.0,0.0,0.0,0.0,0.0,0.0,0.0,0.0,0.0,0.0,0.0,0.0,0.0,0.0,-3.6087,-3.6241,-3.6636,-3.7439,-3.7198,-3.6003,-3.4579,-3.3834,-3.3658,-3.2946,0.0,0.0,0.0,0.0,0.0,0.0,0.0,0.0,0.0,0.0,0.0,0.0,0.0,0.0,0.0,0.0,0.0,0.0,0.0,0.0,0.0,0.0,-3.0912,-3.0562,-3.1047,-3.091,-2.8477,0.0,0.0,0.0,0.0,0.0,0.0,0.0,0.0,0.0,0.0,0.0,-3.2347,-3.5444,-3.7928,-3.9239,-3.9388,-3.914,-3.8452,-3.7793,-3.6163,-3.3215,-3.1076,-2.8637,0.0,0.0,0.0,0.0,0.0,0.0,0.0,0.0,0.0,0.0,0.0,0.0,0.0,0.0,0.0,0.0,0.0,0.0,0.0,0.0,0.0,0.0,0.0,0.0,0.0,0.0,0.0,0.0,0.0,0.0,0.0,0.0,-3.4975,-3.4986,0.0,0.0,0.0,0.0,0.0,0.0,0.0,0.0,0.0,0.0,0.0,0.0,0.0,-3.5529,-3.5935,-3.7415,-3.8009,-3.7724,-3.8653,-3.8906,-3.8565,-3.8651,-3.8639,-3.8429,-3.7655,0.0,-3.4508,-3.4176,0.0,0.0,0.0,0.0,0.0,0.0,0.0,0.0,0.0,0.0,0.0,0.0,0.0,0.0,0.0,0.0,0.0,0.0,0.0,0.0,0.0,0.0,-3.1312,-3.1282,-3.1941,-3.234,-3.1477,-2.9417,-2.7555,-2.6832,-2.5909,-2.4842,0.0,0.0,0.0,0.0,0.0,0.0,-3.3021,-3.5729,-3.7928,-3.9239,-3.9388,-3.914,-3.8452,-3.7793,-3.6746,-3.5205,-3.2662,-3.0778,-2.9774,-2.6916,0.0,0.0,0.0,0.0,0.0,0.0,0.0,0.0,0.0,0.0,0.0,0.0,0.0,0.0,0.0,0.0,0.0,0.0,0.0,0.0,0.0,0.0,0.0,0.0,0.0,0.0,0.0,0.0,0.0,-3.4402,-3.5017,-3.4491,-3.4421,-3.4097,0.0,0.0,0.0,0.0,0.0,0.0,0.0,0.0,0.0,-3.6772,-3.7213,-3.7525,-3.7813,-3.8806,-3.9358,-3.9421,-3.9923,-4.0187,-4.0262,-4.0262,-4.0262,-4.0224,-3.9659,-3.8693,-3.7362,-3.5676,-3.4186,-3.2823,0.0,0.0,0.0,0.0,-3.0993,-3.111,-3.233,-3.2355,-3.1669,-3.0425,0.0,0.0,0.0,0.0,0.0,0.0,0.0,-3.0037,-3.0459,-3.1319,-3.2175,-3.2315,-3.265,-3.2905,-3.2621,-3.128,-2.9791,-2.862,-2.8768,-2.8096,-2.5027,-2.5077,0.0,0.0,0.0,-3.2048,-3.4337,-3.6582,-3.8332,-3.932,-3.9065,-3.8571,-3.7898,-3.7255,-3.6327,-3.5011,-3.314,-3.175,-3.1077,-2.8637,-2.6482,0.0,0.0,0.0,0.0,0.0,0.0,0.0,0.0,0.0,0.0,0.0,0.0,0.0,0.0,0.0,0.0,0.0,0.0,0.0,0.0,0.0,0.0,0.0,0.0,0.0,0.0,0.0,0.0,-3.4627,-3.5216,-3.4224,-3.4613,-3.4399,0.0,0.0,0.0,0.0,0.0,0.0,-3.6298,-3.6784,-3.7513,-3.8617,-3.9207,-3.9572,-3.9761,-4.0262,-4.0739,-4.1141,-4.1141,-4.1354,-4.1702,-4.1702,-4.1681,-4.153,-4.1116,-4.0538,-3.971,-3.715,-3.5604,-3.4575,-3.2893,-3.2089,-3.1938,-3.2453,-3.2466,-3.2478,-3.4148,-3.4186,-3.3294,-3.2064,-3.0997,-2.9971,-2.8613,0.0,0.0,0.0,0.0,-3.1378,-3.1734,-3.2329,-3.2826,-3.3038,-3.3124,-3.3124,-3.3124,-3.2971,-3.2347,-3.065,-3.1116,-3.061,-2.6933,-2.6947,0.0,-2.8393,-3.0484,-3.2878,-3.5289,-3.6772,-3.7899,-3.8669,-3.8074,-3.7491,-3.7206,-3.6514,-3.5722,-3.4816,-3.3499,-3.2422,-3.1708,-2.9813,-2.7917,-2.6071,0.0,0.0,0.0,0.0,0.0,0.0,0.0,0.0,0.0,0.0,0.0,0.0,0.0,0.0,0.0,0.0,0.0,0.0,0.0,0.0,0.0,0.0,0.0,0.0,0.0,0.0,0.0,0.0,0.0,-3.4813,-3.6521,0.0,0.0,0.0,0.0,-3.6241,-3.7174,-3.8065,-3.868,-3.8781,-3.9245,-4.0362,-4.0874,-4.1455,-4.2037,-4.259,-4.2823,-4.2848,-4.2848,-4.2873,-4.2886,-4.2886,-4.2665,-4.2162,-4.2137,-4.1467,-4.0337,-3.8605,-3.7538,-3.686,-3.5203,-3.4818,-3.5132,-3.4186,-3.4123,-3.4575,-3.4675,-3.4643,-3.4625,-3.4505,-3.3056,-3.1198,-3.0635,-2.9743,0.0,0.0,-3.055,-3.1508,-3.2059,-3.2638,-3.3091,-3.3099,-3.3124,-3.3124,-3.3124,-3.3885,-3.4173,-3.2778,-3.1689,-3.0606,-2.9475,0.0,-2.9012,-3.0656,-3.0746,-3.1867,-3.5418,-3.562,-3.5839,-3.6819,-3.6118,-3.5824,-3.6492,-3.5624,-3.5166,-3.5424,-3.4188,-3.3056,-3.2182,-3.03,-2.8613,-2.7246,-2.4705,0.0,0.0,0.0,0.0,0.0,0.0,0.0,0.0,0.0,0.0,0.0,0.0,0.0,0.0,0.0,0.0,0.0,0.0,0.0,0.0,0.0,0.0,0.0,0.0,0.0,0.0,0.0,0.0,-3.6847,-3.8165,0.0,-3.6985,-3.7713,-3.8191,-3.8039,-3.8994,-3.986,-4.0425,-4.0789,-4.1383,-4.2082,-4.2296,-4.2484,-4.274,-4.2873,-4.2974,-4.2974,-4.2974,-4.2974,-4.2974,-4.2974,-4.2873,-4.2728,-4.2363,-4.1731,-4.0912,-4.0011,-3.9082,-3.814,-3.6822,-3.6433,-3.6546,-3.6157,-3.6132,-3.6307,-3.6307,-3.6069,-3.5655,-3.4951,-3.3947,-3.2968,-3.2792,-3.2202,-3.1637,-3.1851,-3.2177,-3.2516,-3.2717,-3.2918,-3.3124,-3.3124,-3.3124,-3.3124,-3.3124,-3.3398,-3.3513,-3.3033,-3.2835,-3.2106,-3.0107,-3.0272,-3.0789,-3.1177,-3.2213,-3.3565,-3.5288,-3.633,-3.6632,-3.5957,-3.5812,-3.5451,-3.4697,-3.391,-3.3346,-3.3129,-3.2288,-3.1456,-3.0801,-2.9698,-2.8318,-2.6637,-2.5674,-2.4024,0.0,0.0,0.0,0.0,0.0,0.0,0.0,0.0,0.0,0.0,0.0,0.0,0.0,0.0,0.0,0.0,0.0,0.0,0.0,0.0,0.0,0.0,0.0,0.0,0.0,-3.6747,-3.809,-3.8278,-3.9622,-4.0011,-3.8705,-3.9433,-4.0025,-4.0025,-4.0827,-4.1505,-4.1869,-4.2233,-4.2652,-4.2974,-4.2974,-4.2974,-4.2974,-4.2974,-4.2974,-4.2974,-4.2974,-4.2974,-4.2974,-4.2974,-4.2974,-4.2961,-4.264,-4.202,-4.1263,-4.094,-4.0149,-3.9057,-3.8115,-3.7751,-3.7726,-3.7525,-3.7462,-3.7437,-3.7249,-3.687,-3.6254,-3.5303,-3.4705,-3.4424,-3.4236,-3.3796,-3.3357,-3.3357,-3.3262,-3.3124,-3.3124,-3.3124,-3.3124,-3.3124,-3.3124,-3.3124,-3.3124,-3.3124,-3.3124,-3.3124,-3.3363,-3.2939,-3.101,-3.1396,-3.2045,-3.2135,-3.2959,-3.3963,-3.495,-3.5768,-3.5778,-3.4658,-3.4461,-3.4108,-3.3342,-3.2412,-3.1856,-3.1792,-3.0809,-2.9945,-2.9318,-2.8728,-2.758,-2.586,-2.5434,-2.3923,-2.1213,0.0,0.0,0.0,0.0,0.0,0.0,0.0,0.0,0.0,0.0,0.0,0.0,0.0,0.0,0.0,0.0,0.0,0.0,0.0,0.0,0.0,0.0,0.0,-3.552,-3.8002,-3.9534,-3.9082,-4.093,-4.1609,-3.9948,-4.1241,-4.2238,-4.2238,-4.2728,-4.2974,-4.2974,-4.2974,-4.2974,-4.2974,-4.2974,-4.2974,-4.2974,-4.2974,-4.2974,-4.2974,-4.2974,-4.2974,-4.2974,-4.2974,-4.2974,-4.2974,-4.2974,-4.2359,-4.1313,-4.13,-4.0701,-3.9659,-3.9107,-3.8944,-3.8831,-3.8266,-3.804,-3.7939,-3.74,-3.6835,-3.6317,-3.5696,-3.552,-3.5395,-3.4868,-3.4361,-3.3922,-3.3922,-3.3533,-3.3106,-3.3106,-3.3093,-3.3124,-3.3124,-3.3124,-3.3124,-3.3124,-3.3124,-3.3124,-3.3124,-3.3124,-3.2893,-3.234,-3.224,-3.259,-3.3631,-3.2895,0.0,-3.4432,-3.3755,-3.3051,-3.283,-3.1968,-3.1732,-3.248,-3.1209,-3.0717,-3.1647,-3.0021,-2.8675,-2.7887,-2.7397,-2.65,-2.5129,-2.4,-2.2463,-2.0575,0.0,0.0,0.0,0.0,0.0,0.0,0.0,0.0,0.0,0.0,0.0,0.0,0.0,0.0,0.0,0.0,0.0,0.0,0.0,0.0,0.0,-3.6107,-3.7789,-3.7927,-3.9308,-4.0526,-4.1232,-4.2187,-4.2572,-4.212,-4.2484,-4.2748,-4.2748,-4.2898,-4.2974,-4.2974,-4.2974,-4.2974,-4.2974,-4.2974,-4.2974,-4.2974,-4.2974,-4.2974,-4.2974,-4.2974,-4.2974,-4.2974,-4.2974,-4.2974,-4.2974,-4.2974,-4.2585,-4.1907,-4.1505,-4.0874,-4.0237,-3.9685,-3.9471,-3.9446,-3.9283,-3.8705,-3.799,-3.7839,-3.7161,-3.638,-3.6194,-3.5868,-3.547,-3.532,-3.4893,-3.45,-3.45,-3.4098,-3.3671,-3.3671,-3.337,-3.3124,-3.3124,-3.3124,-3.3124,-3.3124,-3.3124,-3.3124,-3.3124,-3.3124,-3.3074,-3.2867,-3.2842,-3.2958,-3.3229,-3.3043,-3.3021,-3.3488,-3.3953,-3.3781,-3.2495,-3.2481,-3.2189,-3.1242,-3.0023,-2.9257,-2.9148,-2.7928,-2.7129,-2.6871,-2.6354,-2.5679,-2.49,-2.423,-2.3408,0.0,0.0,0.0,0.0,0.0,0.0,0.0,0.0,0.0,0.0,0.0,0.0,0.0,0.0,0.0,0.0,0.0,0.0,0.0,0.0,0.0,0.0,-3.804,-3.9722,-4.0239,-4.0802,-4.1605,-4.271,-4.3124,-4.3413,-4.3639,-4.3463,-4.3325,-4.3325,-4.3112,-4.2974,-4.2974,-4.2974,-4.2974,-4.2974,-4.2974,-4.2974,-4.2974,-4.2974,-4.2974,-4.2974,-4.2974,-4.2974,-4.2974,-4.2974,-4.2974,-4.2974,-4.2974,-4.2534,-4.1794,-4.1467,-4.0824,0.0,0.0,0.0,0.0,0.0,-3.8981,-3.8002,-3.8002,-3.7287,-3.6405,-3.6405,-3.6144,-3.5893,-3.5893,-3.5504,-3.5019,-3.5019,-3.45,-3.3897,-3.3897,-3.3483,-3.3124,-3.3124,-3.3124,-3.3124,-3.3124,-3.3124,-3.3124,-3.3124,-3.3124,0.0,-3.3124,-3.3124,-3.3124,-3.3124,-3.3124,-3.3124,-3.3124,-3.3641,-3.3566,-3.2319,-3.2273,-3.187,-3.0698,-2.954,0.0,0.0,0.0,-2.6409,-2.6281,-2.5633,0.0,0.0,0.0,0.0,0.0,0.0,0.0,0.0,-2.3783,-2.4205,0.0,0.0,0.0,0.0,0.0,0.0,0.0,0.0,0.0,0.0,0.0,0.0,0.0,0.0,0.0,0.0,-3.9697,-4.1153,-4.225,-4.2451,-4.2828,-4.3689,-4.3853,-4.4091,-4.4568,-4.4116,-4.3802,-4.3802,-4.3288,-4.2974,-4.2974,-4.2974,0.0,0.0,0.0,-4.2974,-4.2974,-4.2974,-4.2974,-4.2974,-4.2974,-4.2974,-4.2974,-4.2974,-4.2974,-4.2974,-4.2974,-4.2396,-4.1376,-4.1313,-4.0689,-3.9697,-3.9697,-3.9697,-3.9697,-3.9697,-3.8981,-3.8002,-3.8002,0.0,0.0,-3.6405,-3.6405,-3.6405,-3.6405,-3.6031,-3.5596,-3.5596,-3.4889,-3.4073,-3.401,-3.3583,-3.3156,-3.3093,-3.3124,-3.3124,-3.3124,-3.3124,-3.3124,-3.3124,-3.3124,-3.3124,-3.3124,-3.3124,-3.3124,-3.3124,-3.3124,-3.3124,-3.3124,-3.3124,-3.288,-3.2365,0.0,0.0,-3.0746,-2.9628,-2.8963,-2.8888,-2.7494,-2.6477,-2.6073,-2.5479,-2.5446,-2.6052,-2.5874,-2.5787,-2.5787,-2.6791,-2.7102,-2.6659,-2.5638,-2.5819,0.0,0.0,0.0,0.0,0.0,0.0,0.0,0.0,0.0,0.0,0.0,0.0,0.0,0.0,0.0,-3.9735,-4.1417,-4.2723,-4.3388,-4.3865,-4.4066,-4.3827,-4.4192,-4.4505,-4.4618,-4.4116,-4.3802,-4.3802,-4.3288,-4.2974,-4.2974,-4.2974,-4.2974,-4.2974,-4.2974,-4.2974,-4.2974,-4.2974,-4.2974,-4.2974,-4.2974,0.0,-4.2974,-4.2974,-4.2974,-4.2974,-4.2974,-4.2597,-4.1969,-4.1517,-4.0689,-3.9697,-3.9697,-3.9697,-3.9697,-3.9697,-3.8981,-3.8002,-3.8002,-3.7287,-3.6405,-3.6405,-3.6405,-3.6405,-3.6405,-3.6329,0.0,-3.6207,-3.573,-3.5082,-3.4675,-3.4161,-3.3633,-3.3181,-3.3124,-3.3124,-3.3124,-3.3124,-3.3124,-3.3124,-3.3124,-3.3124,-3.3124,-3.3124,-3.3124,-3.3124,-3.3124,-3.3124,-3.3124,-3.3124,-3.3074,-3.2918,-3.2403,-3.1838,-3.1286,-3.0244,-2.9428,-2.8913,-2.821,-2.7553,-2.7059,-2.7301,-2.7326,-2.7034,-2.6996,-2.6954,-2.6954,-2.7168,-2.7457,-2.777,-2.7145,-2.6977,0.0,0.0,0.0,0.0,0.0,0.0,0.0,0.0,0.0,0.0,0.0,-3.6621,-3.7475,0.0,-3.981,-4.148,-4.2672,-4.3576,-4.4129,-4.4706,-4.4957,-4.4681,-4.4631,-4.4844,-4.5422,-4.4455,-4.3915,-4.4192,-4.3438,-4.2974,-4.2974,-4.2974,-4.2974,-4.2974,-4.2974,-4.2974,-4.2974,-4.2974,-4.2974,-4.2974,-4.2974,-4.2974,-4.2974,-4.2974,-4.2974,-4.2974,-4.2974,-4.2509,-4.1681,-4.0852,-4.0187,-3.9697,-3.9697,-3.9697,-3.9697,-3.9697,-3.8981,-3.8002,-3.8002,-3.7287,-3.6405,-3.6405,-3.6405,-3.6405,-3.6405,-3.6405,-3.6405,-3.6405,-3.5968,-3.5433,-3.5157,-3.4512,-3.3834,-3.3558,-3.3325,-3.3124,-3.3124,-3.3124,-3.3124,-3.3124,-3.3124,-3.3124,-3.3124,-3.3124,-3.3124,-3.3124,-3.3124,-3.3124,-3.3124,-3.3124,-3.3124,-3.3124,-3.2554,-3.2102,-3.1825,-3.106,-3.0357,-2.9804,-2.9252,-2.8699,-2.8134,-2.8109,-2.7971,-2.7708,-2.7959,-2.8109,-2.8109,-2.8674,-2.9089,-2.9365,-2.9352,-2.89,0.0,0.0,0.0,0.0,0.0,0.0,0.0,-3.5466,-3.6461,-3.7086,-3.7977,-3.8931,-3.9848,-4.0463,-4.1342,-4.2886,-4.3601,-4.4154,-4.4719,-4.5196,-4.5485,-4.5485,-4.507,-4.5108,-4.5899,-4.4656,-4.3978,-4.443,-4.3539,-4.2974,-4.2974,-4.2974,-4.2974,-4.2974,-4.2974,-4.2974,-4.2974,-4.2974,-4.2974,-4.2974,-4.2974,-4.2974,-4.2974,-4.2974,-4.2974,-4.2974,-4.276,-4.2095,-4.105,-4.0111,-3.9697,-3.9697,-3.9697,-3.9697,-3.9697,-3.9697,-3.8981,-3.8002,-3.8002,-3.7287,-3.6405,-3.6405,-3.6405,-3.6405,-3.6405,-3.6405,-3.6405,-3.6405,-3.6044,-3.5633,-3.552,-3.4756,-3.4035,-3.3922,-3.3483,-3.3124,-3.3124,-3.3124,-3.3124,-3.3124,-3.3124,-3.3124,-3.3124,-3.3124,-3.3124,-3.3124,-3.3124,-3.3124,-3.3124,-3.3124,-3.3124,-3.3124,-3.2654,-3.234,-3.2227,-3.1712,-3.121,-3.0796,-3.0344,-2.9892,-2.9389,-2.8976,-2.875,-2.875,-2.9189,-2.9402,-2.9377,-3.0319,-3.0771,-3.0783,-3.1198,-3.0683,-3.4505,-3.3721,-3.342,-3.4781,-3.5219,-3.6072,0.0,-3.9446,-3.9383,-3.9936,-4.0551,-4.0949,-4.1075,-4.1605,-4.2401,-4.3526,-4.4166,-4.4731,-4.5309,-4.5447,-4.5485,-4.5485,-4.5434,-4.5234,-4.4857,-4.4204,-4.3827,-4.389,-4.3325,-4.2974,-4.2974,-4.2974,-4.2974,-4.2974,-4.2974,-4.2974,-4.2974,-4.2974,-4.2974,-4.2974,-4.2974,-4.2974,-4.2974,-4.2974,-4.2974,-4.2924,-4.1944,-4.1178,-4.0563,-3.9948,-3.9697,-3.9697,-3.9697,-3.9697,-3.9697,-3.9697,-3.8981,-3.8002,-3.8002,-3.7287,-3.6405,-3.6405,-3.6405,-3.6405,-3.6405,-3.6405,-3.6405,-3.6405,-3.6367,-3.6157,-3.5621,-3.5044,-3.4512,-3.401,-3.3483,-3.3124,-3.3124,-3.3124,-3.3124,-3.3124,-3.3124,-3.3124,-3.3124,-3.3124,-3.3124,-3.3124,-3.3124,-3.3124,-3.3124,-3.3124,-3.3124,-3.3124,-3.3061,-3.2767,-3.2252,-3.1712,-3.1361,-3.1298,-3.1248,-3.1185,-3.1122,-3.1047,-3.1022,-3.1022,-3.1085,-3.1122,-3.1122,-3.1248,-3.1298,-3.1298,-3.1361,-3.1286,-3.6219,-3.5579,-3.5286,-3.6245,-3.7236,-3.8316,-3.9722,-4.035,-4.0802,-4.1354,-4.1907,-4.2296,-4.2296,-4.2484,-4.2999,-4.4104,-4.4468,-4.4819,-4.5409,-4.5485,-4.5246,-4.4581,-4.4505,-4.4531,-4.4618,-4.3827,-4.3451,-4.3777,-4.3288,-4.2974,-4.2974,-4.2974,-4.2974,-4.2974,-4.2974,-4.2974,-4.2974,-4.2974,-4.2974,-4.2974,-4.2974,-4.2974,-4.2974,-4.2974,-4.2974,-4.2924,-4.1819,-4.115,-4.0874,-4.0061,-3.9697,-3.9697,-3.9697,-3.9697,-3.9697,-3.9697,-3.8981,-3.8002,-3.8002,-3.7287,-3.6405,-3.6405,-3.6405,-3.6405,-3.6405,-3.6405,-3.6405,-3.6405,-3.6405,-3.6279,-3.5646,-3.5094,-3.4575,-3.4035,-3.3483,-3.3124,-3.3124,-3.3124,-3.3124,-3.3124,-3.3124,-3.3124,-3.3124,-3.3124,-3.3124,-3.3124,-3.3124,-3.3124,-3.3124,-3.3124,-3.3124,-3.3124,-3.3124,-3.298,-3.2742,-3.2503,-3.2365,-3.2365,-3.2051,-3.1863,-3.1863,-3.1562,-3.1386,-3.1386,-3.1386,-3.1386,-3.1386,-3.1712,-3.1863,-3.1876,-3.2215,-3.2365,-3.6772,-3.6659,-3.6845,-3.7663,-3.9019,-4.0187,-4.0337,-4.1103,-4.1907,-4.2351,-4.2753,-4.2974,-4.2974,-4.2974,-4.3338,-4.4443,-4.4618,-4.4819,-4.5409,-4.5347,-4.4895,-4.3915,-4.3664,-4.3727,-4.4129,-4.3451,-4.3137,-4.3539,-4.32,-4.2974,-4.2974,-4.2974,-4.2974,-4.2974,-4.2974,-4.2974,-4.2974,-4.2974,-4.2974,-4.2974,-4.2974,-4.2974,-4.2974,-4.2974,-4.2811,-4.2484,-4.1681,-4.1112,-4.0827,-4.0023,-3.9697,-3.9697,-3.9697,-3.9697,-3.9697,-3.9697,-3.8981,-3.8002,-3.8002,-3.7287,-3.6405,-3.6405,-3.6405,-3.6405,-3.6405,-3.6405,-3.6405,-3.6405,-3.6405,-3.6317,-3.5868,-3.5253,-3.4625,-3.4223,-3.3583,-3.3124,-3.3124,-3.3124,-3.3124,-3.3124,-3.3124,-3.3124,-3.3124,-3.3124,-3.3124,-3.3124,-3.3124,-3.3124,-3.3124,-3.3124,-3.3124,-3.3124,-3.3124,-3.3124,-3.3124,-3.3124,-3.3124,-3.3124,-3.2679,-3.2453,-3.2453,-3.2064,-3.1851,-3.1851,-3.1851,-3.1851,-3.1851,-3.2252,-3.2453,-3.2466,-3.288,-3.3124,-3.5696,-3.6358,-3.755,-3.9207,-4.0463,-4.143,-4.2011,-4.2577,-4.2936,-4.2949,-4.2974,-4.2974,-4.2974,-4.2974,-4.3338,-4.4443,-4.4618,-4.4819,-4.5409,-4.5008,-4.443,-4.3865,-4.3325,-4.3011,-4.3024,-4.2999,-4.2986,-4.2999,-4.2986,-4.2974,-4.2974,-4.2974,-4.2974,-4.2974,-4.2974,-4.2974,-4.2974,-4.2974,-4.2974,-4.2974,-4.2974,-4.2974,-4.2974,-4.2974,-4.2396,-4.1338,-4.13,-4.0727,-3.9747,-3.971,-3.9697,-3.9697,-3.9697,-3.9697,-3.9697,-3.9697,-3.8981,-3.8002,-3.8002,-3.7287,-3.6405,-3.6405,-3.6405,-3.6405,-3.6405,-3.6405,-3.6405,-3.6405,-3.6405,-3.6405,-3.6392,-3.5529,-3.4713,-3.47,-3.3872,-3.3124,-3.3124,-3.3124,-3.3124,-3.3124,-3.3124,-3.3124,-3.3124,-3.3124,-3.3124,-3.3124,-3.3124,-3.3124,-3.3124,-3.3124,-3.3124,-3.3124,-3.3124,-3.3124,-3.3124,-3.3124,-3.3124,-3.3124,-3.3056,-3.3056,-3.3056,-3.3074,-3.3074,-3.3074,-3.3074,-3.3074,-3.3074,-3.3043,-3.3056,-3.3056,-3.3111,-3.3124,-3.6584,-3.7713,-3.917,-4.0463,-4.1342,-4.202,-4.2572,-4.2848,-4.2974,-4.2974,-4.274,-4.2489,-4.2489,-4.2489,-4.2728,-4.3413,-4.4154,-4.4568,-4.4392,-4.4518,-4.4279,-4.3363,-4.3087,-4.2974,-4.2974,-4.2974,-4.2974,-4.2974,-4.2974,-4.2974,-4.2974,-4.2974,-4.2974,-4.2974,-4.2974,-4.2974,-4.2974,-4.2974,-4.2974,-4.2974,-4.2974,-4.2974,-4.2974,-4.2974,-4.2572,-4.1856,-4.1492,-4.0862,-4.0212,-3.9848,-3.9697,-3.9697,-3.9697,-3.9697,-3.9647,-3.9283,-3.8668,-3.8002,-3.8002,-3.7287,-3.6405,-3.6405,-3.6405,-3.6405,-3.6405,-3.6405,-3.6405,-3.6405,-3.6405,-3.6329,-3.5918,-3.5265,-3.4625,-3.4261,-3.3608,-3.3124,-3.3124,-3.3124,-3.3124,-3.3124,-3.3124,-3.3124,-3.3124,-3.3124,-3.3124,-3.3124,-3.3124,-3.3124,-3.3124,-3.3124,-3.3124,-3.3124,-3.3124,-3.3124,-3.3124,-3.3124,-3.3124,-3.3124,-3.3124,-3.3124,-3.3124,-3.3124,-3.3124,-3.3124,-3.3124,-3.3124,-3.3124,-3.3124,-3.3124,-3.3124,-3.3124,-3.3124,-3.7826,-3.9019,-4.03,-4.1605,-4.2183,-4.2602,-4.2898,-4.2974,-4.2924,-4.2778,-4.2246,-4.1806,-4.1605,-4.1471,-4.1634,-4.259,-4.3438,-4.4053,-4.4091,-4.4405,-4.4279,-4.3376,-4.3099,-4.2974,-4.2974,-4.2974,-4.2974,-4.2974,-4.2974,-4.2974,-4.2974,-4.2974,-4.2974,-4.2974,-4.2974,-4.2974,-4.2974,-4.2974,-4.2974,-4.2974,-4.2974,-4.2974,-4.2974,-4.2828,-4.2384,-4.1831,-4.1291,-4.0727,-4.0199,-3.9835,-3.9697,-3.9697,-3.9697,-3.9697,-3.9634,-3.9082,-3.8504,-3.7977,-3.7789,-3.7123,-3.6405,-3.6405,-3.6405,-3.6405,-3.6405,-3.6405,-3.6405,-3.6405,-3.6405,-3.6329,-3.5931,-3.5278,-3.4625,-3.4274,-3.3621,-3.3124,-3.3124,-3.3124,-3.3124,-3.3124,-3.3124,-3.3124,-3.3124,-3.3124,-3.3124,-3.3124,-3.3124,-3.3124,-3.3124,-3.3124,-3.3124,-3.3124,-3.3124,-3.3124,-3.3124,-3.3124,-3.3124,-3.3124,-3.3124,-3.3124,-3.3124,-3.3124,-3.3124,-3.3124,-3.3124,-3.3124,-3.3124,-3.3124,-3.3124,-3.3124,-3.3124,-3.3124,-3.9295,-4.0187,-4.1015,-4.2585,-4.2974,-4.2974,-4.2974,-4.2949,-4.2828,-4.225,-4.1605,-4.0974,-4.0463,-3.9986,-4.0199,-4.1823,-4.264,-4.3388,-4.443,-4.4581,-4.438,-4.3865,-4.3313,-4.2974,-4.2974,-4.2974,-4.2974,-4.2974,-4.2974,-4.2974,-4.2974,-4.2974,-4.2974,-4.2974,-4.2974,-4.2974,-4.2974,-4.2974,-4.2974,-4.2974,-4.2974,-4.2961,-4.2924,-4.2451,-4.1844,-4.1213,-4.0752,-4.0212,-3.9697,-3.9697,-3.9697,-3.9697,-3.9697,-3.9697,-3.9622,-3.9044,-3.8479,-3.7927,-3.7337,-3.6845,-3.6405,-3.6405,-3.6405,-3.6405,-3.6405,-3.6405,-3.6405,-3.6405,-3.6405,-3.6405,-3.6405,-3.5542,-3.468,-3.468,-3.3884,-3.3124,-3.3124,-3.3124,-3.3124,-3.3124,-3.3124,-3.3124,-3.3124,-3.3124,-3.3124,-3.3124,-3.3124,-3.3124,-3.3124,-3.3124,-3.3124,-3.3124,-3.3124,-3.3124,-3.3124,-3.3124,-3.3124,-3.3124,-3.3124,-3.3124,-3.3124,-3.3124,-3.3124,-3.3124,-3.3124,-3.3124,-3.3124,-3.3124,-3.3124,-3.3124,-3.3124,-3.3124,-4.0074,-4.1304,-4.2459,-4.2873,-4.2974,-4.2974,-4.2974,-4.2715,-4.215,-4.1141,-4.0174,-3.9195,-3.8216,-3.8944,-3.9835,-4.0249,-4.2158,-4.3689,-4.3978,-4.4003,-4.3953,-4.3815,-4.3313,-4.2974,-4.2974,-4.2974,-4.2974,-4.2974,-4.2974,-4.2974,-4.2974,-4.2974,-4.2974,-4.2974,-4.2974,-4.2974,-4.2974,-4.2974,-4.2974,-4.2974,-4.2974,-4.276,-4.2414,-4.2275,-4.163,-4.0727,-4.0576,-4.0212,-3.9697,-3.9697,-3.9697,-3.9697,-3.9697,-3.9697,-3.9572,-3.8592,-3.814,-3.7864,-3.6958,-3.6518,-3.6405,-3.6405,-3.6405,-3.6405,-3.6405,-3.6405,-3.6405,-3.6405,-3.6405,-3.6405,-3.6405,-3.5542,-3.468,-3.468,-3.3884,-3.3124,-3.3124,-3.3124,-3.3124,-3.3124,-3.3124,-3.3124,-3.3124,-3.3124,-3.3124,-3.3124,-3.3124,-3.3124,-3.3124,-3.3124,-3.3124,-3.3124,-3.3124,-3.3124,-3.3124,-3.3124,-3.3124,-3.3124,-3.3124,-3.3124,-3.3124,-3.3124,-3.3124,-3.3124,-3.3124,-3.3124,-3.3124,-3.3124,-3.3124,-3.3124,-3.3124,-3.3124,-4.1091,-4.2082,-4.2974,-4.2974,-4.2974,-4.2785,-4.2057,-4.1656,-4.099,-3.9383,-3.8366,-3.7549,-3.6621,-3.7425,-3.8467,-3.922,-4.1241,-4.2974,-4.3702,-4.3802,-4.3802,-4.3802,-4.3313,-4.2974,-4.2974,-4.2974,-4.2974,-4.2974,-4.2974,-4.2974,-4.2974,-4.2974,-4.2974,-4.2974,-4.2974,-4.2974,-4.2974,-4.2974,-4.2848,-4.2678,-4.2678,-4.2333,-4.1794,-4.1543,-4.1103,-4.0501,-4.0262,-3.9986,-3.9697,-3.9697,-3.9697,-3.9697,-3.9697,-3.9697,-3.9559,-3.8417,-3.8002,-3.7852,-3.6795,-3.6405,-3.6405,-3.6405,-3.6405,-3.6405,-3.6405,-3.6405,-3.6405,-3.6405,-3.6405,-3.6405,-3.6405,-3.573,-3.4969,-3.4776,-3.406,-3.337,-3.3174,-3.3124,-3.3124,-3.3124,-3.3124,-3.3124,-3.3124,-3.3124,-3.3124,-3.3124,-3.3124,-3.3124,-3.3124,-3.3124,-3.3124,-3.3124,-3.3124,-3.3124,-3.3124,-3.3124,-3.3124,-3.3124,-3.3124,-3.3124,-3.3124,-3.3124,-3.3124,-3.3124,-3.3124,-3.3124,-3.3124,-3.3124,-3.3124,-3.3124,-3.3124,-3.3124,-4.212,-4.2678,-4.2974,-4.2974,-4.2924,-4.2459,-4.0877,-4.04,-3.9672,-3.7425,-3.6568,-3.5956,-3.5282,-3.578,-3.6857,-3.8529,-4.0149,-4.1777,-4.3551,-4.374,-4.3714,-4.379,-4.3313,-4.2974,-4.2974,-4.2974,-4.2974,-4.2974,-4.2974,-4.2974,-4.2974,-4.2974,-4.2974,-4.2974,-4.2974,-4.2974,-4.2974,-4.2898,-4.269,-4.2213,-4.2137,-4.1756,-4.1163,-4.0739,-4.0475,-4.0375,-3.9898,-3.9697,-3.9697,-3.9697,-3.9697,-3.9697,-3.9697,-3.9697,-3.9559,-3.8417,-3.8002,-3.7852,-3.6795,-3.6405,-3.6405,-3.6405,-3.6405,-3.6405,-3.6405,-3.6405,-3.6405,-3.6405,-3.6405,-3.6405,-3.6405,-3.5956,-3.537,-3.4906,-3.4349,-3.3771,-3.3294,-3.3174,-3.3124,-3.3124,-3.3124,-3.3124,-3.3124,-3.3124,-3.3124,-3.3124,-3.3124,-3.3124,-3.3124,-3.3124,-3.3124,-3.3124,-3.3124,-3.3124,-3.3124,-3.3124,-3.3124,-3.3124,-3.3124,-3.3124,-3.3124,-3.3124,-3.3124,-3.3124,-3.3124,-3.3124,-3.3124,-3.3124,-3.3124,-3.3124,-3.3124,-3.3124,-4.2685,-4.2898,-4.2974,-4.2974,-4.269,-4.2037,-4.0789,-3.981,-3.8517,-3.6235,-3.5345,-3.47,-3.3684,-3.47,-3.6185,-3.7889,-3.9559,-4.1392,-4.3501,-4.3413,-4.3288,-4.374,-4.3313,-4.2974,-4.2974,-4.2974,-4.2974,-4.2974,-4.2974,-4.2974,-4.2974,-4.2974,-4.2974,-4.2974,-4.2974,-4.2974,-4.2974,-4.2577,-4.2301,-4.22,-4.1693,-4.1191,-4.0664,-4.0563,-4.0275,-3.9835,-3.9735,-3.9697,-3.9697,-3.9697,-3.9697,-3.9697,-3.9697,-3.9697,-3.9559,-3.8417,-3.8002,-3.7852,-3.6795,-3.6405,-3.6405,-3.6405,-3.6405,-3.6405,-3.6405,-3.6405,-3.6405,-3.6405,-3.6405,-3.6405,-3.6405,-3.5956,-3.547,-3.537,-3.4625,-3.3872,-3.3771,-3.3395,-3.3124,-3.3124,-3.3124,-3.3124,-3.3124,-3.3124,-3.3124,-3.3124,-3.3124,-3.3124,-3.3124,-3.3124,-3.3124,-3.3124,-3.3124,-3.3124,-3.3124,-3.3124,-3.3124,-3.3124,-3.3124,-3.3124,-3.3124,-3.3124,-3.3124,-3.3124,-3.3124,-3.3124,-3.3124,-3.3124,-3.3124,-3.3124,-3.3124,-3.3124,-4.2823,-4.2974,-4.2974,-4.2974,-4.2627,-4.1685,-3.9659,-3.858,-3.7287,-3.4776,-3.4048,-3.3709,-3.3169,-3.4198,-3.5567,-3.6923,-3.8065,-3.9659,-4.217,-4.2045,-4.212,-4.3237,-4.3137,-4.2974,-4.2974,-4.2974,-4.2974,-4.2974,-4.2974,-4.2974,-4.2974,-4.2974,-4.2974,-4.2974,-4.2974,-4.2974,-4.2974,-4.2489,-4.2062,-4.1718,-4.1178,-4.0626,-4.0086,-4.0086,-3.9936,-3.9697,-3.9697,-3.9697,-3.9697,-3.9697,-3.9697,-3.9697,-3.9697,-3.9697,-3.9559,-3.8417,-3.8002,-3.7852,-3.6795,-3.6405,-3.6405,-3.6405,-3.6405,-3.6405,-3.6405,-3.6405,-3.6405,-3.6405,-3.6405,-3.6405,-3.6405,-3.6169,-3.5893,-3.5558,-3.4868,-3.4324,-3.4324,-3.3884,-3.3508,-3.3508,-3.3269,-3.3124,-3.3124,-3.3124,-3.3124,-3.3124,-3.3124,-3.3124,-3.3124,-3.3124,-3.3124,-3.3124,-3.3124,-3.3124,-3.3124,-3.3124,-3.3124,-3.3124,-3.3124,-3.3124,-3.3124,-3.3124,-3.3124,-3.3124,-3.3124,-3.3124,-3.3124,-3.3124,-3.3124,-3.3124,-3.3124,-3.3124,-4.2823,-4.2974,-4.2974,-4.2974,-4.2384,-4.1128,-3.8592,-3.74,-3.6119,-3.3639,-3.3124,-3.3124,-3.3124,-3.3784,-3.4763,-3.5994,-3.6646,-3.7977,-4.0711,-4.0837,-4.1254,-4.2798,-4.2974,-4.2974,-4.2974,-4.2974,-4.2974,-4.2974,-4.2974,-4.2974,-4.2974,-4.2974,-4.2974,-4.2974,-4.2974,-4.2924,-4.2798,-4.2258,-4.1706,-4.11,-4.0601,-4.0111,-3.9697,-3.9697,-3.9697,-3.9697,-3.9697,-3.9697,-3.9697,-3.9697,-3.9697,-3.9697,-3.9697,-3.9697,-3.9559,-3.8417,-3.8002,-3.7852,-3.6795,-3.6405,-3.6405,-3.6405,-3.6405,-3.6405,-3.6405,-3.6405,-3.6405,-3.6405,-3.6405,-3.6405,-3.6405,-3.6405,-3.6267,-3.5621,-3.5169,-3.4818,-3.4705,-3.4387,-3.4035,-3.3922,-3.3646,-3.3357,-3.3162,-3.3224,-3.3219,-3.3136,-3.3124,-3.3124,-3.3124,-3.3124,-3.3124,-3.3124,-3.3124,-3.3124,-3.3124,-3.3124,-3.3124,-3.3124,-3.3124,-3.3124,-3.3124,-3.3124,-3.3124,-3.3124,-3.3124,-3.3124,-3.3124,-3.3124,-3.3124,-3.3124,-3.3124,-3.3124,-4.2823,-4.2974,-4.2974,-4.2974,-4.1819,-4.0199,-3.8417,-3.6762,-3.5157,-3.3432,-3.3124,-3.3124,-3.3124,-3.3156,-3.3759,-3.532,-3.6081,-3.7412,-4.0199,-4.0924,-4.1693,-4.2836,-4.2974,-4.2974,-4.2974,-4.2974,-4.2974,-4.2974,-4.2974,-4.2974,-4.2974,-4.2974,-4.2974,-4.2974,-4.2974,-4.2791,-4.2288,-4.1693,-4.1087,-4.0588,-4.0036,-3.9747,-3.9697,-3.9697,-3.9697,-3.9697,-3.9697,-3.9697,-3.9697,-3.9697,-3.9697,-3.9697,-3.9697,-3.9697,-3.9559,-3.8417,-3.8002,-3.7852,-3.6795,-3.6405,-3.6405,-3.6405,-3.6405,-3.6405,-3.6405,-3.6405,-3.6405,-3.6405,-3.6405,-3.6405,-3.6405,-3.6405,-3.6267,-3.5621,-3.5458,-3.5282,-3.4826,-3.4675,-3.45,-3.3997,-3.4261,-3.4248,-3.3257,-3.3483,-3.3658,-3.3156,-3.3124,-3.3124,-3.3124,-3.3124,-3.3124,-3.3124,-3.3124,-3.3124,-3.3124,-3.3124,-3.3124,-3.3124,-3.3124,-3.3124,-3.3124,-3.3124,-3.3124,-3.3124,-3.3124,-3.3124,-3.3124,-3.3124,-3.3124,-3.3124,-3.3124,-3.3124,-4.2213,-4.2778,-4.2974,-4.2974,-4.1743,-4.0074,-3.8391,-3.6686,-3.5031,-3.342,-3.3124,-3.3124,-3.3124,-3.3124,-3.3395,-3.4399,-3.4462,-3.524,-3.7701,-3.8216,-3.9132,-4.1241,-4.1794,-4.2258,-4.2911,-4.2974,-4.2974,-4.2974,-4.2974,-4.2974,-4.2974,-4.2974,-4.2974,-4.2974,-4.2974,-4.271,-4.2213,-4.1605,-4.1012,-4.0513,-3.9961,-3.9697,-3.9697,-3.9697,-3.9697,-3.9697,-3.9697,-3.9697,-3.9697,-3.9697,-3.9697,-3.9697,-3.9697,-3.9484,-3.9094,-3.8304,-3.7801,-3.74,-3.6681,-3.6405,-3.6405,-3.6405,-3.6405,-3.6405,-3.6405,-3.6405,-3.6405,-3.6405,-3.6405,-3.6405,-3.6405,-3.6405,-3.6355,-3.6094,-3.6031,-3.5981,-3.5755,-3.5454,-3.5107,-3.4893,-3.4756,-3.4575,-3.4148,-3.4248,-3.4324,-3.4098,-3.3784,-3.3571,-3.3571,-3.3282,-3.3124,-3.3124,-3.3124,-3.3124,-3.3124,-3.3124,-3.3124,-3.3124,-3.3124,-3.3124,-3.3124,-3.3124,-3.3124,-3.3124,-3.3124,-3.3124,-3.3124,-3.3124,-3.3124,-3.3124,-3.3124,-3.3124,-4.1467,-4.2321,-4.2791,-4.2791,-4.1492,-3.9835,-3.8153,-3.6483,-3.4831,-3.3382,-3.3124,-3.3124,-3.3124,-3.3124,-3.3206,-3.3596,-3.347,-3.4035,-3.6119,-3.6521,-3.7513,-3.9973,-4.0614,-4.1291,-4.2384,-4.2785,-4.2974,-4.2974,-4.2974,-4.2974,-4.2974,-4.2974,-4.2974,-4.2974,-4.2879,-4.2527,-4.1919,-4.1367,-4.0761,-4.0275,-3.9885,-3.9697,-3.9697,-3.9697,-3.9697,-3.9697,-3.9697,-3.9697,-3.9697,-3.9697,-3.9697,-3.9697,-3.9697,-3.9358,-3.8856,-3.8216,-3.7663,-3.7098,-3.6606,-3.6405,-3.6405,-3.6405,-3.6405,-3.6405,-3.6405,-3.6405,-3.6405,-3.6405,-3.6405,-3.6405,-3.6405,-3.6405,-3.6405,-3.6405,-3.6405,-3.6405,-3.6405,-3.6056,-3.5683,-3.552,-3.5366,-3.5102,-3.4776,-3.4806,-3.4868,-3.4705,-3.4399,-3.4148,-3.4148,-3.3809,-3.3558,-3.3558,-3.3558,-3.3432,-3.3149,-3.3124,-3.3124,-3.3124,-3.3124,-3.3124,-3.3124,-3.3124,-3.3124,-3.3124,-3.3124,-3.3124,-3.3124,-3.3124,-3.3124,-3.3124,-3.3124,-3.3124,-4.0902,-4.1743,-4.2213,-4.2213,-4.0927,-3.9258,-3.7575,-3.5918,-3.4412,-3.3307,-3.3124,-3.3124,-3.3124,-3.3124,-3.3124,-3.3124,-3.3533,-3.4474,-3.6169,-3.6847,-3.7801,-3.9496,-3.971,-4.0149,-4.12,-4.2346,-4.2974,-4.2974,-4.2974,-4.2974,-4.2974,-4.2974,-4.2974,-4.2974,-4.2502,-4.1907,-4.13,-4.0802,-4.0249,-3.9697,-3.9697,-3.9697,-3.9697,-3.9697,-3.9697,-3.9697,-3.9697,-3.9697,0.0,-3.9697,-3.9697,-3.9697,-3.9697,-3.9358,-3.8856,-3.8216,-3.7663,-3.7098,-3.6606,-3.6405,-3.6405,-3.6405,-3.6405,-3.6405,-3.6405,-3.6405,-3.6405,-3.6405,-3.6405,-3.6405,-3.6405,-3.6405,-3.6405,-3.6405,-3.6405,-3.6405,-3.6405,-3.6405,-3.6194,-3.5608,-3.5981,-3.5994,-3.4914,-3.5132,-3.5307,-3.4756,-3.4713,-3.4668,-3.4668,-3.4713,-3.4655,-3.4655,-3.4655,-3.4261,-3.3212,-3.3124,-3.3124,-3.3124,-3.3124,-3.3124,-3.3124,-3.3124,-3.3124,-3.3124,-3.3124,-3.3124,-3.3124,-3.3124,-3.3124,-3.3124,-3.3124,-3.3124,-3.8253,-3.9195,-3.9862,-3.9421,-3.8366,-3.7174,-3.627,-3.5077,-3.396,-3.3275,-3.3124,-3.2955,-3.2554,-3.2491,-3.2616,-3.3018,-3.3219,-3.3784,-3.5077,-3.637,-3.7676,-3.8981,-4.0789,-4.207,-4.2421,-4.2773,-4.2974,-4.2974,-4.2974,-4.2974,-4.2974,-4.2974,-4.2974,-4.2974,-4.2502,-4.1894,-4.13,-4.0802,-4.0237,-3.9697,-3.9697,-3.9697,-3.9697,-3.9697,-3.9697,-3.9697,-3.9697,-3.9697,-3.9697,-3.9697,-3.9697,-3.9697,-3.9697,-3.9358,-3.8894,-3.8668,-3.8241,-3.7663,-3.7111,-3.6971,-3.6908,-3.6531,-3.6405,-3.6405,-3.6405,-3.6405,-3.6405,-3.6405,-3.6405,-3.6405,-3.6405,-3.6405,-3.6405,-3.6405,-3.6405,-3.6405,-3.6405,-3.6405,-3.6355,-3.6132,-3.6292,-3.6304,-3.5906,-3.5981,-3.6044,-3.5868,-3.5529,-3.5245,-3.5245,-3.4906,-3.468,-3.468,-3.468,-3.4575,-3.4223,-3.4198,-3.4198,-3.4198,-3.3847,-3.3633,-3.3633,-3.3269,-3.3124,-3.3124,-3.3124,-3.3269,-3.3633,-3.3633,-3.3834,-3.4198,-3.4198,-3.4198,-3.6543,-3.7538,-3.8153,-3.7789,-3.7023,-3.6216,-3.5357,-3.4537,-3.3746,-3.3194,-3.2905,-3.2641,-3.2277,-3.2039,-3.2089,-3.2654,-3.2754,-3.3206,-3.4537,-3.5968,-3.745,-3.8994,-4.1065,-4.2359,-4.2359,-4.2735,-4.2974,-4.2974,-4.2974,-4.2886,-4.274,-4.2728,-4.2572,-4.2371,-4.202,-4.158,-4.0974,-4.0488,-4.0036,-3.9697,-3.9697,-3.9697,-3.9697,-3.9697,-3.9697,-3.9697,-3.9697,-3.9697,0.0,-3.9697,-3.9697,-3.9697,-3.9697,-3.9358,-3.8919,-3.8919,-3.8504,-3.7927,-3.7374,-3.7186,-3.7098,-3.6581,-3.6405,-3.6405,-3.6405,-3.6405,-3.6405,-3.6405,-3.6405,-3.6405,-3.6405,-3.6405,-3.6405,-3.6405,-3.6405,-3.6405,-3.6405,-3.6405,-3.6405,-3.6405,-3.6405,-3.6405,-3.6405,-3.6405,-3.6405,-3.6405,-3.6069,-3.5855,-3.5855,-3.5554,-3.5341,-3.5341,-3.5341,-3.5341,-3.5341,-3.4964,-3.468,-3.468,-3.4399,-3.4211,-3.4211,-3.3884,-3.3696,-3.3696,-3.3696,-3.3872,-3.4211,-3.4211,-3.4387,-3.468,-3.468,-3.468,0.0,-3.6455,-3.6822,-3.6784,-3.643,-3.5789,-3.4726,-3.4085,0.0,-3.3068,-3.2528,-3.2152,-3.2152,-3.1738,-3.1587,-3.2177,-3.2303,-3.2905,-3.455,-3.583,-3.7473,-3.9659,-4.0827,-4.1401,-4.1401,-4.2384,-4.2974,-4.2974,-4.2974,-4.2791,-4.2238,-4.2213,-4.1882,-4.125,-4.1225,-4.0974,-4.0526,-3.9973,-3.9697,-3.9697,-3.9697,-3.9697,-3.9697,-3.9697,-3.9697,-3.9697,-3.9697,-3.9697,-3.9697,-3.9697,-3.9697,-3.9697,-3.9697,-3.9383,-3.8982,-3.8982,-3.8567,-3.799,-3.7425,-3.7211,-3.7098,-3.6581,-3.6405,-3.6405,-3.6405,-3.6405,-3.6405,-3.6405,-3.6405,-3.6405,-3.6405,-3.6405,-3.6405,-3.6405,-3.6405,-3.6405,-3.6405,-3.6405,-3.6405,-3.6405,-3.6405,-3.6405,-3.6405,-3.6405,-3.6405,-3.6405,-3.6405,-3.6405,-3.6405,-3.6405,-3.6405,-3.6405,-3.6405,-3.6405,-3.6405,-3.5429,-3.4839,-3.4839,-3.4801,-3.4776,-3.4776,-3.4705,-3.468,-3.468,-3.4718,-3.4776,-3.4776,-3.4813,-3.4839,-3.4839,-3.4839,-3.4839,-3.2265,0.0,-3.3282,-3.2855,-3.2654,-3.2491,0.0,-3.2077,-3.1938,-3.1813,-3.1675,-3.1587,-3.1587,-3.1474,-3.1712,-3.2717,-3.3232,-3.3935,-3.5132,-3.7412,-3.9735,-4.1944,-4.2434,-4.2585,-4.2585,-4.2823,-4.2974,-4.2974,-4.2974,-4.2791,-4.2238,-4.2213,-4.1718,-4.0739,-4.0714,-4.0651,-4.0513,-3.9973,-3.9697,-3.9697,-3.9697,-3.9697,-3.9697,-3.9697,-3.9697,-3.9697,-3.9697,-3.9697,-3.9697,-3.9697,-3.9697,-3.9697,-3.9697,-3.9609,-3.9496,-3.9496,-3.9145,-3.858,-3.8015,-3.7538,-3.7098,-3.6581,-3.6405,-3.6405,-3.6405,-3.6405,-3.6405,-3.6405,-3.6405,-3.6405,-3.6405,-3.6405,-3.6405,-3.6405,-3.6405,-3.6405,-3.6405,-3.6405,-3.6405,-3.6405,-3.6405,-3.6405,-3.6405,-3.6405,-3.6405,-3.6405,-3.6405,-3.6405,-3.6405,-3.6405,-3.6405,-3.6405,-3.6405,-3.6405,-3.6405,-3.6166,-3.6015,-3.6015,-3.5579,-3.5307,-3.5307,-3.4906,-3.468,-3.468,-3.5094,-3.5307,-3.5307,-3.578,-3.6015,-3.6015,-3.6015,-3.6015,-3.0583,-3.1424,-3.2139,-3.1838,-3.1763,-3.1763,-3.1763,-3.1574,-3.1386,-3.1386,-3.1198,-3.111,-3.1348,-3.1198,-3.1486,-3.2855,-3.3319,-3.4361,-3.6734,-3.8806,-4.0789,-4.2748,-4.2974,-4.2974,-4.2974,-4.2974,-4.2974,-4.2974,-4.2748,-4.2414,-4.1806,-4.1543,-4.1015,-4.0162,-4.0136,-4.0136,-4.0136,-3.9848,-3.9697,-3.9697,-3.9697,-3.9697,-3.9697,-3.9697,-3.9697,-3.9697,-3.9697,-3.9697,-3.9697,-3.9697,-3.9697,-3.9697,-3.9697,-3.9697,-3.9697,-3.9697,-3.9509,-3.9132,-3.8291,-3.7475,-3.6807,-3.6505,-3.6405,-3.6405,-3.6405,-3.6405,-3.6405,-3.6405,-3.6405,-3.6405,-3.6405,-3.6405,-3.6405,-3.6405,-3.6405,-3.6405,-3.6405,-3.6405,-3.6405,-3.6405,-3.6405,-3.6405,-3.6405,-3.6405,-3.6405,-3.6405,-3.6405,-3.6405,-3.6405,-3.6405,-3.6405,-3.6405,-3.6405,-3.6405,-3.6405,-3.6405,-3.6405,-3.6405,-3.6081,-3.5918,-3.5918,-3.5629,-3.5479,-3.5479,-3.5768,-3.5918,-3.5918,-3.6267,-3.6405,-3.6405,-3.6405,-3.6405,-2.9892,-3.1047,-3.2177,-3.2014,-3.2026,-3.2089,-3.2089,-3.1725,-3.1386,-3.1386,-3.1035,-3.0896,-3.1424,-3.1235,-3.1499,-3.3068,-3.3608,-3.5077,-3.8617,-3.9998,-4.1229,-4.2785,-4.2974,-4.2974,-4.2974,-4.2974,-4.2949,-4.2861,-4.2476,-4.1882,-4.12,-4.0777,-4.0262,-3.971,-3.9697,-3.9697,-3.9697,-3.9697,-3.9697,-3.9697,-3.9697,-3.9697,-3.9697,-3.9697,-3.9697,-3.9697,-3.9697,0.0,-3.9697,-3.9697,-3.9697,-3.9697,-3.9697,-3.9697,-3.9697,-3.9697,-3.9647,-3.9421,-3.8366,-3.7337,-3.6531,-3.6531,-3.648,-3.6405,-3.6405,-3.6405,-3.6405,-3.6405,-3.6405,-3.6405,-3.6405,-3.6405,-3.6405,-3.6405,-3.6405,-3.6405,-3.6405,-3.6405,-3.6405,-3.6405,-3.6405,-3.6405,-3.6405,-3.6405,-3.6405,-3.6405,-3.6405,-3.6405,-3.6405,-3.6405,-3.6405,-3.6405,-3.6405,-3.6405,-3.6405,-3.6405,-3.6405,-3.6405,-3.6405,-3.6405,-3.6405,-3.6405,-3.6405,-3.6405,-3.6405,-3.6405,-3.6405,-3.6405,-3.6405,-3.6405,-3.6405,-3.6405,-3.0357,-3.1336,-3.1989,-3.1085,-3.1198,-3.1512,-3.1512,-3.1449,-3.1386,-3.1386,-3.1323,-3.1436,-3.1989,-3.2416,-3.3081,-3.4274,-3.6031,-3.7952,-3.9973,-4.0814,-4.1656,-4.2836,-4.2974,-4.2974,-4.2974,-4.2974,-4.2841,-4.2376,-4.2263,-4.1718,-4.0701,-4.0563,-4.0262,-3.971,-3.9697,-3.9697,-3.9697,-3.9697,-3.9697,-3.9697,-3.9697,-3.9697,-3.9697,-3.9697,-3.9697,-3.9697,0.0,-3.9697,-3.9697,-3.9697,-3.9697,-3.9697,-3.9697,-3.9697,-3.9697,-3.9697,-3.9396,-3.8894,-3.8241,-3.7588,-3.7061,-3.7061,-3.6782,-3.6405,-3.6405,-3.6405,-3.6405,-3.6405,-3.6405,-3.6405,-3.6405,-3.6405,-3.6405,-3.6405,-3.6405,-3.6405,-3.6405,-3.6405,-3.6405,-3.6405,-3.6405,-3.6405,-3.6405,-3.6405,-3.6405,-3.6405,-3.6405,-3.6405,-3.6405,-3.6405,-3.6405,-3.6405,-3.6405,-3.6405,-3.6405,-3.6405,-3.6405,-3.6405,-3.6405,-3.6405,-3.6405,-3.6405,-3.6405,-3.6405,-3.6405,-3.6405,-3.6405,-3.6405,-3.6405,-3.6405,-3.6405,-3.6405,-3.0105,-3.0947,-3.165,-3.116,-3.1675,-3.2215,-3.1901,-3.1599,-3.1386,-3.1386,-3.1386,-3.1549,-3.2114,-3.293,-3.4173,-3.6169,-3.7852,-3.9396,-4.0711,-4.1442,-4.2082,-4.2886,-4.2974,-4.2974,-4.2974,-4.2974,-4.2803,-4.225,-4.1882,-4.1367,-4.0563,-4.0237,-3.9961,-3.9697,-3.9697,-3.9697,-3.9697,-3.9697,-3.9697,-3.9697,-3.9697,-3.9697,-3.9697,-3.9697,-3.9697,-3.9697,0.0,-3.9697,-3.9697,-3.9697,-3.9697,-3.9697,-3.9697,-3.9697,-3.9697,-3.9697,-3.9346,-3.8881,-3.8567,-3.8103,-3.7575,-3.7274,-3.701,-3.6795,-3.6505,-3.6405,-3.6405,-3.6405,-3.6405,-3.6405,-3.6405,-3.6405,-3.6405,-3.6405,-3.6405,-3.6405,-3.6405,-3.6405,-3.6405,-3.6405,-3.6405,-3.6405,-3.6405,-3.6405,-3.6405,-3.6405,-3.6405,-3.6405,-3.6405,-3.6405,-3.6405,-3.6405,-3.6405,-3.6405,-3.6405,-3.6405,-3.6405,-3.6405,-3.6405,-3.6405,-3.6405,-3.6405,-3.6405,-3.6405,-3.6405,-3.6405,-3.6405,-3.6405,-3.6405,-3.6405,-3.6405,-3.6405,-3.0093,-3.067,-3.1235,-3.1361,-3.2139,-3.2855,-3.2805,-3.2365,-3.2089,-3.2478,-3.2453,-3.2491,-3.2918,-3.3909,-3.5441,-3.7826,-3.9258,-4.0425,-4.1392,-4.2007,-4.2552,-4.2924,-4.2974,-4.2974,-4.2974,-4.2861,-4.2547,-4.2007,-4.1455,-4.0902,-4.035,-3.9923,-3.9697,-3.9697,-3.9697,-3.9697,-3.9697,-3.9697,-3.9697,-3.9697,-3.9697,-3.9697,-3.9697,-3.9697,-3.9697,-3.9697,-3.9697,-3.9697,-3.9697,-3.9697,-3.9697,-3.9697,-3.9697,-3.9697,-3.9697,-3.9697,-3.9433,-3.9108,-3.9108,-3.8693,-3.814,-3.7713,-3.7487,-3.7299,-3.692,-3.6795,-3.6795,-3.6795,-3.6795,-3.6732,-3.648,-3.6405,-3.6405,-3.6405,-3.6405,-3.6443,-3.6568,-3.6505,-3.648,-3.6744,-3.6681,-3.6606,-3.6606,-3.6606,-3.6556,-3.643,-3.6405,-3.6405,-3.6405,-3.6405,-3.6405,-3.6405,-3.6405,-3.6405,-3.6405,-3.6405,-3.6405,-3.6405,-3.6405,-3.6405,-3.6405,-3.6405,-3.6405,-3.6405,-3.6405,-3.6405,-3.6405,-3.6405,-3.6405,-3.6405,-3.6405,-3.6405,-3.0997,-3.0984,-3.0783,-3.1273,-3.1838,-3.2679,-3.4198,-3.4123,-3.4161,-3.5726,-3.5592,-3.5207,-3.5257,-3.6207,-3.7349,-3.8605,-4.0174,-4.143,-4.2074,-4.2627,-4.2936,-4.2974,-4.2974,-4.2974,-4.2974,-4.2577,-4.1982,-4.1388,-4.0837,-4.0337,-3.9785,-3.9722,-3.9697,-3.9697,-3.9697,-3.9697,-3.9697,-3.9697,-3.9697,-3.9697,-3.9697,-3.9697,-3.9697,-3.9697,-3.9697,-3.9697,-3.9697,-3.9697,-3.9697,-3.9697,-3.9697,-3.9697,-3.9697,-3.9697,-3.9697,-3.9697,-3.9672,-3.9634,-3.9634,-3.927,-3.8856,-3.8806,-3.8391,-3.7939,-3.7902,-3.7889,-3.7889,-3.7889,-3.7889,-3.7651,-3.6669,-3.6405,-3.6405,-3.6405,-3.6405,-3.6556,-3.701,-3.6769,-3.6707,-3.7688,-3.7475,-3.7123,-3.7123,-3.7123,-3.6948,-3.648,-3.6405,-3.6405,-3.6405,-3.6405,-3.6405,-3.6405,-3.6405,-3.6405,-3.6405,-3.6405,-3.6405,-3.6405,-3.6405,-3.6405,-3.6405,-3.6405,-3.6405,-3.6405,-3.6405,-3.6405,-3.6405,-3.6405,-3.6405,-3.6405,-3.6405,-3.6405,-3.0281,-3.0733,-3.1072,-3.0947,-3.1838,-3.3006,-3.3985,-3.4311,-3.4788,-3.6119,-3.6207,-3.6157,-3.6496,-3.691,-3.7663,-3.9145,-4.0488,-4.153,-4.2137,-4.269,-4.2974,-4.2974,-4.2728,-4.2527,-4.2527,-4.1969,-4.1417,-4.0811,-4.0626,-4.0275,-3.9722,-3.9697,-3.9697,-3.9697,-3.9697,-3.9697,-3.9697,-3.9697,-3.9697,-3.9697,-3.9697,-3.9697,-3.9697,-3.9697,-3.9697,-3.9697,-3.9697,-3.9697,-3.9697,-3.9697,-3.9697,-3.9697,-3.9697,-3.9697,-3.9697,-3.9697,-3.9697,-3.9697,-3.9697,-3.9559,-3.932,-3.8981,-3.873,-3.8479,-3.8115,-3.8002,-3.8002,-3.8002,-3.8002,-3.7914,-3.75,-3.7374,-3.7374,-3.7374,-3.7374,-3.7437,-3.7651,-3.7525,-3.75,-3.7927,-3.7839,-3.7701,-3.7701,-3.7701,-3.7626,-3.7412,-3.7374,-3.7374,-3.7374,-3.7374,-3.7249,-3.691,-3.6619,-3.6405,-3.6405,-3.6405,-3.6405,-3.6405,-3.6405,-3.6405,-3.6405,-3.6405,-3.6405,-3.6405,-3.6405,-3.6405,-3.6405,-3.6405,-3.6405,-3.6405,-3.6405,-3.6405,-3.0093,-3.0457,-3.0884,-3.0871,-3.1838,-3.3093,-3.4173,-3.4668,-3.5458,-3.7337,-3.7412,-3.7322,-3.7651,-3.7563,-3.7939,-3.9446,-4.0475,-4.1329,-4.2112,-4.2333,-4.2522,-4.2698,-4.2233,-4.1907,-4.1907,-4.1404,-4.0927,-4.0538,-4.035,-4.0086,-3.971,-3.9697,-3.9697,-3.9697,-3.9697,-3.9609,-3.9433,-3.9433,-3.9346,-3.917,-3.9346,-3.9534,-3.9697,-3.9697,-3.9697,-3.9697,-3.9697,-3.9697,-3.9697,-3.9697,-3.9697,-3.9697,-3.9697,-3.9697,-3.9697,-3.9697,-3.9697,-3.9697,-3.9697,-3.9697,-3.9634,-3.9245,-3.9132,-3.9057,-3.8655,-3.8542,-3.8542,-3.8542,-3.8542,-3.8542,-3.8542,-3.8278,-3.8002,-3.8002,-3.8002,-3.8052,-3.8241,-3.814,-3.8115,-3.8467,-3.8404,-3.8278,-3.8278,-3.8278,-3.8216,-3.804,-3.8002,-3.8002,-3.8002,-3.8002,-3.7864,-3.7475,-3.7111,-3.6933,-3.6933,-3.6933,-3.6933,-3.6933,-3.6933,-3.6769,-3.6417,-3.6405,-3.6405,-3.6405,-3.6405,-3.6405,-3.6405,-3.6581,-3.6669,-3.6669,-3.6845,-3.6933,-3.0733,-3.0206,-3.0055,-3.1122,-3.1813,-3.283,-3.5006,-3.552,-3.6461,-3.9823,-3.9634,-3.8919,-3.8919,-3.8404,-3.8379,-3.9496,-4.0162,-4.089,-4.2037,-4.1681,-4.1543,-4.2137,-4.1668,-4.1275,-4.1275,-4.0827,-4.0513,-4.0513,-4.0011,-3.9697,-3.9697,-3.9697,-3.9697,-3.9685,-3.9685,-3.9421,-3.8919,-3.8906,-3.858,-3.8015,-3.8592,-3.9145,-3.9685,-3.9697,-3.9697,-3.9697,-3.9697,-3.9697,-3.9697,-3.9697,-3.9697,-3.9697,-3.9697,-3.9697,-3.9697,-3.9697,-3.9697,-3.9697,-3.9697,-3.9697,-3.9697,-3.9697,-3.9697,-3.9697,-3.9697,-3.9697,-3.9697,-3.9697,-3.9697,-3.9697,-3.9697,-3.8856,-3.8027,-3.8027,-3.8027,-3.8178,-3.8755,-3.8429,-3.8354,-3.9471,-3.9245,-3.8932,-3.8932,-3.8932,-3.868,-3.8115,-3.8027,-3.8027,-3.8027,-3.8015,-3.8015,-3.8015,-3.8002,-3.8002,-3.8002,-3.8002,-3.8002,-3.8002,-3.8002,-3.7513,-3.6468,-3.643,-3.643,-3.643,-3.643,-3.643,-3.643,-3.6923,-3.7199,-3.7211,-3.7751,-3.8002,-2.954,-2.9853,-3.0532,-3.1223,-3.298,-3.4893,-3.637,-3.6697,-3.7312,-3.9484,-3.9371,-3.8919,-3.8919,-3.873,-3.8718,-3.9057,-3.9898,-4.0626,-4.0953,-4.1137,-4.1351,-4.1568,-4.1091,-4.0764,-4.0764,-4.0262,-3.9936,-3.9936,-3.9785,-3.9697,-3.9697,-3.9697,-3.9521,-3.9132,-3.912,-3.8843,-3.8266,-3.8266,-3.8178,-3.8002,-3.8178,-3.8567,-3.9132,-3.9521,-3.9697,-3.9697,-3.9697,-3.9697,-3.9697,-3.9697,-3.9697,-3.9697,-3.9697,-3.9697,-3.9697,-3.9697,-3.9697,-3.9697,-3.9697,-3.9697,-3.9697,-3.9697,-3.9697,-3.9697,-3.9697,-3.9697,-3.9697,-3.9697,-3.9697,-3.9697,-3.9697,-3.9446,-3.9195,-3.9195,-3.9195,-3.9233,-3.9408,-3.932,-3.9295,-3.9622,-3.9559,-3.9446,-3.9446,-3.9446,-3.9396,-3.922,-3.9195,-3.9195,-3.9195,-3.8856,-3.8617,-3.8617,-3.8253,-3.8002,-3.8002,-3.8002,-3.8002,-3.8002,-3.8002,-3.7864,-3.7525,-3.7525,-3.7525,-3.7525,-3.7525,-3.7525,-3.7525,-3.7688,-3.7764,-3.7764,-3.7939,-3.8002,-3.0005,-3.057,-3.1436,-3.2202,-3.3809,-3.5633,-3.745,-3.8191,-3.8793,-3.981,-3.9584,-3.927,-3.9484,-3.917,-3.8994,-3.9157,-3.976,-4.0275,-4.0488,-4.0614,-4.0764,-4.0937,-4.0526,-4.0187,-4.0187,-3.9885,-3.9697,-3.9697,-3.9697,-3.9597,-3.9383,-3.9371,-3.9107,-3.8542,-3.853,-3.8253,-3.7688,-3.7676,-3.7575,-3.7362,-3.7575,-3.7864,-3.8216,-3.8768,-3.9145,-3.9383,-3.9597,-3.9697,-3.9697,-3.9697,-3.9697,-3.9697,-3.9697,-3.9697,-3.9697,-3.9697,-3.9697,-3.9697,-3.9697,-3.9697,-3.9697,-3.9697,-3.9697,-3.9697,-3.9697,-3.9697,-3.9697,-3.9697,-3.9697,-3.9697,-3.9697,-3.9697,-3.9697,-3.9697,-3.9697,-3.9697,-3.9697,-3.9697,-3.9697,-3.9697,-3.9697,-3.9697,-3.9697,-3.9697,-3.9697,-3.9697,-3.9697,-3.9697,-3.9697,-3.9408,-3.9195,-3.9195,-3.8881,-3.868,-3.868,-3.868,-3.868,-3.868,-3.868,-3.868,-3.868,-3.8241,-3.8002,-3.8002,-3.8002,-3.8002,-3.8002,-3.8241,-3.8354,-3.8354,-3.858,-3.868,-3.1173,-3.1675,-3.2478,-3.3621,-3.4462,-3.5717,-3.8341,-3.9722,-4.0438,-4.0438,-4.0036,-3.9848,-4.035,-3.9622,-3.9107,-3.9609,-3.9697,-3.9873,-4.0375,-4.0011,-3.9885,-4.0388,-3.9998,-3.9672,-3.9622,-3.9622,-3.9597,-3.9546,-3.9546,-3.932,-3.8818,-3.8844,-3.853,-3.7952,-3.7939,-3.7663,-3.7111,-3.7111,-3.6908,-3.6417,-3.6872,-3.7111,-3.7123,-3.7739,-3.8291,-3.8869,-3.932,-3.9572,-3.9622,-3.9622,-3.9647,-3.9697,-3.9697,-3.9697,-3.9697,-3.9697,-3.9697,-3.9697,-3.9697,-3.9697,-3.9697,-3.9697,-3.9697,-3.9697,-3.9697,-3.9697,-3.9697,-3.9697,-3.9697,-3.9697,-3.9697,-3.9697,-3.9697,-3.9697,-3.9697,-3.9697,-3.9697,-3.9697,-3.9697,-3.9697,-3.9697,-3.9697,-3.9697,-3.9697,-3.9697,-3.9697,-3.9697,-3.9697,-3.9697,-3.9697,-3.9697,-3.9697,-3.9697,-3.9697,-3.9697,-3.9697,-3.9697,-3.9697,-3.9697,-3.9697,-3.9697,-3.8705,-3.8153,-3.8153,-3.8153,-3.8153,-3.8165,-3.8693,-3.8994,-3.8956,-3.9459,-3.9697,-2.9453,-3.0809,-3.2478,-3.3621,-3.5617,-3.7688,-3.9182,-3.9697,-3.9873,-3.9873,-3.9772,-3.9735,-3.9848,-3.9672,-3.9559,-3.9672,-3.9697,-3.9735,-3.9848,-3.9772,-3.9735,-3.986,-3.9772,-3.9521,-3.9094,-3.9044,-3.8868,-3.8404,-3.8366,-3.8316,-3.8203,-3.8191,-3.7939,-3.7374,-3.7362,-3.7098,-3.6593,-3.6581,-3.6518,-3.6405,-3.6531,-3.6581,-3.6619,-3.755,-3.8078,-3.8203,-3.8316,-3.863,-3.9044,-3.9044,-3.9308,-3.9697,-3.9697,-3.9697,-3.9697,-3.9697,-3.9697,-3.9697,-3.9697,-3.9697,-3.9697,-3.9697,-3.9697,-3.9697,-3.9697,-3.9697,-3.9697,-3.9697,-3.9697,-3.9697,-3.9697,-3.9697,-3.9697,-3.9697,-3.9697,-3.9697,-3.9697,-3.9697,-3.9697,-3.9697,-3.9697,-3.9697,-3.9697,-3.9697,-3.9697,-3.9697,-3.9697,-3.9697,-3.9697,-3.9697,-3.9697,-3.9697,-3.9697,-3.9697,-3.9697,-3.9697,-3.9697,-3.9697,-3.9697,-3.9697,-3.9697,-3.9459,-3.9333,-3.9333,-3.9333,-3.9333,-3.9333,-3.9446,-3.9521,-3.9521,-3.9634,-3.9697,-2.9817,-3.1336,-3.3018,-3.4663,-3.6558,-3.8228,-3.9107,-3.9509,-3.9622,-3.9358,-3.9509,-3.9697,-3.9697,-3.9697,-3.9697,-3.9697,-3.9697,-3.9697,-3.9697,-3.9697,-3.9597,-3.9333,-3.9295,-3.9082,-3.8517,-3.8454,-3.8329,-3.8027,-3.8002,-3.7889,-3.7626,-3.7613,-3.7362,-3.6857,-3.6832,-3.6694,-3.6405,-3.6405,-3.6405,-3.6405,-3.6405,-3.6405,-3.643,-3.7224,-3.7613,-3.7626,-3.7889,-3.8178,-3.8454,-3.8454,-3.863,-3.8906,-3.9195,-3.9295,-3.9333,-3.9597,-3.9697,-3.9697,-3.9697,-3.9697,-3.9697,-3.9697,-3.9697,-3.9697,-3.9697,-3.9697,-3.9697,-3.9697,-3.9697,-3.9697,-3.9697,-3.9697,-3.9697,-3.9697,-3.9697,-3.9697,-3.9697,-3.9697,-3.9697,-3.9697,-3.9697,-3.9697,-3.9697,-3.9697,-3.9697,-3.9697,-3.9697,-3.9697,-3.9697,-3.9697,-3.9697,-3.9697,-3.9697,-3.9697,-3.9697,-3.9697,-3.9697,-3.9697,-3.9697,-3.9697,-3.9697,-3.9697,-3.9697,-3.9697,-3.9697,-3.9697,-3.9697,-3.9697,-3.9697,-3.9697,-3.9697,-3.9697,-3.0043,-3.17,-3.3483,-3.5839,-3.7123,-3.8015,-3.8592,-3.9082,-3.927,-3.8818,-3.917,-3.9521,-3.9421,-3.9396,-3.9433,-3.9534,-3.9471,-3.9433,-3.9534,-3.9471,-3.9233,-3.8781,-3.8718,-3.8492,-3.7914,-3.7864,-3.7826,-3.7726,-3.7713,-3.7525,-3.7073,-3.7048,-3.6883,-3.6417,-3.6405,-3.6405,-3.6405,-3.6405,-3.6405,-3.6405,-3.6405,-3.6405,-3.643,-3.6883,-3.7048,-3.7073,-3.7525,-3.7776,-3.7864,-3.7864,-3.7927,-3.8065,-3.8642,-3.8919,-3.8931,-3.9484,-3.9697,-3.9697,-3.9697,-3.9697,-3.9697,-3.9697,-3.9697,-3.9697,-3.9697,-3.9697,-3.9697,-3.9697,-3.9697,-3.9697,-3.9697,-3.9697,-3.9697,-3.9697,-3.9697,-3.9697,-3.9697,-3.9697,-3.9697,-3.9697,-3.9697,-3.9697,-3.9697,-3.9697,-3.9697,-3.9697,-3.9697,-3.9697,-3.9697,-3.9697,-3.9697,-3.9697,-3.9697,-3.9697,-3.9697,-3.9697,-3.9697,-3.9697,-3.9697,-3.9697,-3.9697,-3.9697,-3.9697,-3.9697,-3.9697,-3.9697,-3.9697,-3.9697,-3.9697,-3.9697,-3.9697,-3.9697,-2.7065,-2.9666,-3.298,-3.5717,-3.6847,-3.7437,-3.8002,-3.8178,-3.8216,-3.814,-3.858,-3.8831,-3.8316,-3.8228,-3.8404,-3.8894,-3.8567,-3.8404,-3.8906,-3.8542,-3.8203,-3.8128,-3.8115,-3.7902,-3.7349,-3.7299,-3.7098,-3.6669,-3.6631,-3.6593,-3.6518,-3.6518,-3.648,-3.6405,-3.6405,-3.6405,-3.6405,-3.6405,-3.6405,-3.6405,-3.6405,-3.6405,-3.6405,-3.648,-3.6518,-3.6518,-3.6593,-3.6908,-3.7299,-3.7299,-3.7575,-3.8065,-3.8642,-3.8919,-3.8931,-3.9484,-3.9697,-3.9697,-3.9697,-3.9697,-3.9697,-3.9697,-3.9697,-3.9697,-3.9697,-3.9697,-3.9697,-3.9697,-3.9697,-3.9697,-3.9697,-3.9697,-3.9697,-3.9697,-3.9697,-3.9697,-3.9697,-3.9697,-3.9697,-3.9697,-3.9697,-3.9697,-3.9697,-3.9697,-3.9697,-3.9697,-3.9697,-3.9697,-3.9697,-3.9697,-3.9697,-3.9697,-3.9697,-3.9697,-3.9697,-3.9697,-3.9697,-3.9697,-3.9697,-3.9697,-3.9697,-3.9697,-3.9697,-3.9697,-3.9697,-3.9697,-3.9697,-3.9697,-3.9697,-3.9697,-3.9697,-3.9697,-2.8197,-3.047,-3.2805,-3.5257,-3.6332,-3.6872,-3.7425,-3.7789,-3.7914,-3.7613,-3.7739,-3.7939,-3.8002,-3.8002,-3.809,-3.8341,-3.8165,-3.809,-3.8354,-3.8165,-3.7889,-3.7575,-3.755,-3.7324,-3.682,-3.6769,-3.6669,-3.643,-3.6405,-3.6405,-3.6405,-3.6405,-3.6405,-3.6405,-3.6405,-3.6405,-3.6405,-3.6405,-3.6405,-3.6405,-3.6405,-3.6405,-3.6405,-3.6405,-3.6405,-3.6405,-3.6405,-3.6543,-3.6769,-3.6769,-3.6908,-3.7174,-3.804,-3.8391,-3.8492,-3.9371,-3.9697,-3.9697,-3.9697,-3.9697,-3.9697,-3.9697,-3.9697,-3.9697,-3.9697,-3.9697,-3.9697,-3.9697,-3.9697,-3.9697,-3.9697,-3.9697,-3.9697,-3.9697,-3.9697,-3.9697,-3.9697,-3.9697,-3.9697,-3.9697,-3.9697,-3.9697,-3.9697,-3.9697,-3.9697,-3.9697,-3.9697,-3.9697,-3.9697,-3.9697,-3.9697,-3.9697,-3.9697,-3.9697,-3.9697,-3.9697,-3.9697,-3.9697,-3.9697,-3.9697,-3.9697,-3.9697,-3.9697,-3.9697,-3.9697,-3.9697,-3.9697,-3.9697,-3.9697,-3.9697,-3.9697,-3.9697,-2.8787,-3.0457,-3.1738,-3.4066,-3.5228,-3.5927,-3.6433,-3.6985,-3.7262,-3.6847,-3.6872,-3.7098,-3.7513,-3.7588,-3.7638,-3.7776,-3.7676,-3.7638,-3.7776,-3.7676,-3.7437,-3.7023,-3.6973,-3.6857,-3.6455,-3.6405,-3.6405,-3.6405,-3.6279,-3.6157,-3.6157,-3.6019,-3.5943,-3.5943,-3.6081,-3.6157,-3.6157,-3.6329,-3.6405,-3.6405,-3.6405,-3.6405,-3.6405,-3.6405,-3.6405,-3.6405,-3.6405,-3.6405,-3.6405,-3.6405,-3.6405,-3.6518,-3.7575,-3.8002,-3.814,-3.9283,-3.9697,-3.9697,-3.9697,-3.9697,-3.9697,-3.9697,-3.9697,-3.9697,-3.9697,-3.9697,-3.9697,-3.9697,-3.9697,-3.9697,-3.9697,-3.9697,-3.9697,-3.9697,-3.9697,-3.9697,-3.9697,-3.9697,-3.9697,-3.9697,-3.9697,-3.9697,-3.9697,-3.9697,-3.9697,-3.9697,-3.9697,-3.9697,-3.9697,-3.9697,-3.9697,-3.9697,-3.9697,-3.9697,-3.9697,-3.9697,-3.9697,-3.9697,-3.9697,-3.9697,-3.9697,-3.9697,-3.9697,-3.9697,-3.9697,-3.9697,-3.9697,-3.9697,-3.9697,-3.9697,-3.9697,-3.9697,-2.6691,-2.7871,-2.8976,-3.1712,-3.3219,-3.4173,-3.4726,-3.5232,-3.5621,-3.5596,-3.6044,-3.6455,-3.6493,-3.6493,-3.6669,-3.7149,-3.6784,-3.6681,-3.7149,-3.682,-3.648,-3.6455,-3.6455,-3.6443,-3.6405,-3.6405,-3.6405,-3.6405,-3.5881,-3.5545,-3.5545,-3.5044,-3.4813,-3.4813,-3.527,-3.5545,-3.5545,-3.6094,-3.6405,-3.6405,-3.6405,-3.6405,-3.6405,-3.6405,-3.6405,-3.6405,-3.6405,-3.6405,-3.6405,-3.6405,-3.6405,-3.6518,-3.7575,-3.8002,-3.814,-3.9283,-3.9697,-3.9697,-3.9697,-3.9697,-3.9697,-3.9697,-3.9697,-3.9697,-3.9697,-3.9697,-3.9697,-3.9697,-3.9697,-3.9697,-3.9697,-3.9697,-3.9697,-3.9697,-3.9697,-3.9697,-3.9697,-3.9697,-3.9697,-3.9697,-3.9697,-3.9697,-3.9697,-3.9697,-3.9697,-3.9697,-3.9697,-3.9697,-3.9697,-3.9697,-3.9697,-3.9697,-3.9697,-3.9697,-3.9697,-3.9697,-3.9697,-3.9697,-3.9697,-3.9697,-3.9697,-3.9697,-3.9697,-3.9697,-3.9697,-3.9697,-3.9697,-3.9697,-3.9697,-3.9697,-3.9697,-3.9697,-2.5737,-2.6879,-2.8072,-3.0143,-3.1474,-3.2528,-3.3458,-3.4361,-3.5069,-3.542,-3.5658,-3.5943,-3.6342,-3.6405,-3.6468,-3.6669,-3.6543,-3.648,-3.6669,-3.6531,-3.6405,-3.6405,-3.6405,-3.6405,-3.6405,-3.6405,-3.6267,-3.5868,-3.5608,-3.5345,-3.4994,-3.4781,-3.468,-3.468,-3.4868,-3.5144,-3.5495,-3.6094,-3.6405,-3.6405,-3.6405,-3.6405,-3.6405,-3.6405,-3.6405,-3.6405,-3.6405,-3.6405,-3.6405,-3.6405,-3.6405,-3.6518,-3.7575,-3.8002,-3.814,-3.9283,-3.9697,-3.9697,-3.9697,-3.9697,-3.9697,-3.9697,-3.9697,-3.9697,-3.9697,-3.9697,-3.9697,-3.9697,-3.9697,-3.9697,-3.9697,-3.9697,-3.9697,-3.9697,-3.9697,-3.9697,-3.9697,-3.9697,-3.9697,-3.9697,-3.9697,-3.9697,-3.9697,-3.9697,-3.9697,-3.9697,-3.9697,-3.9697,-3.9697,-3.9697,-3.9697,-3.9697,-3.9697,-3.9697,-3.9697,-3.9697,-3.9697,-3.9697,-3.9697,-3.9697,-3.9697,-3.9697,-3.9697,-3.9697,-3.9697,-3.9697,-3.9697,-3.9697,-3.9697,-3.9697,-3.9697,-3.9697,-2.4808,-2.5875,-2.7168,-2.9038,-2.9892,-3.0783,-3.2696,-3.3495,-3.4053,-3.4793,-3.5094,-3.5332,-3.5742,-3.5805,-3.5931,-3.6355,-3.6405,-3.6405,-3.6405,-3.6013,-3.5715,-3.5715,-3.5196,-3.499,-3.5384,-3.4915,-3.4764,-3.5199,-3.4665,-3.4404,-3.4417,-3.4274,-3.4261,-3.4449,-3.4449,-3.4801,-3.5495,-3.5906,-3.6182,-3.6405,-3.6405,-3.6405,-3.6405,-3.6405,-3.6405,-3.6405,-3.6405,-3.6405,-3.6405,-3.6405,-3.6518,-3.6782,-3.7651,-3.8128,-3.8417,-3.9346,-3.9697,-3.9697,-3.9697,-3.9697,-3.9697,-3.9697,-3.9697,-3.9697,-3.9697,-3.9697,-3.9697,-3.9697,-3.9697,-3.9697,-3.9697,-3.9697,-3.9697,-3.9697,-3.9697,-3.9697,-3.9697,-3.9697,-3.9697,-3.9697,-3.9697,-3.9697,-3.9697,-3.9697,-3.9697,-3.9697,-3.9697,-3.9697,-3.9697,-3.9697,-3.9697,-3.9697,-3.9697,-3.9697,-3.9697,-3.9697,-3.9697,-3.9697,-3.9697,-3.9697,-3.9697,-3.9697,-3.9697,-3.9697,-3.9697,-3.9697,-3.9697,-3.9697,-3.9697,-3.9697,-3.9697,-3.9697,0.0,0.0,0.0,-2.8236,-2.8411,-2.8888,-3.2164,-3.2491,-3.2428,-3.3608,-3.4261,-3.4605,-3.4668,-3.468,-3.5064,-3.6179,-3.6355,-3.6355,-3.6355,-3.5174,-3.4338,-3.4338,-3.2782,-3.2131,-3.3302,-3.1974,-3.2018,-3.4462,-3.3071,-3.2632,-3.3828,-3.337,-3.3319,-3.3859,-3.3884,-3.4412,-3.5445,-3.5483,-3.5805,-3.638,-3.6405,-3.6405,-3.6405,-3.6405,-3.6405,-3.6405,-3.6405,-3.6405,-3.6405,-3.6405,-3.6732,-3.7236,-3.7789,-3.8366,-3.8931,-3.9484,-3.9697,-3.9697,-3.9697,-3.9697,-3.9697,-3.9697,-3.9697,-3.9697,-3.9697,-3.9697,-3.9697,-3.9697,-3.9697,-3.9697,-3.9697,-3.9697,-3.9697,-3.971,-3.9722,-3.9722,-3.9735,-3.9747,-3.9735,-3.9722,-3.9722,-3.9722,-3.9735,-3.9747,-3.9735,-3.9722,-3.9722,-3.971,-3.9697,-3.9697,-3.9697,-3.9697,-3.9697,-3.9697,-3.9697,-3.9697,-3.9697,-3.9697,-3.9697,-3.9697,-3.9697,-3.9697,-3.9697,-3.9697,-3.9697,-3.9697,-3.9697,-3.9697,-3.9697,-3.9697,-3.9697,-3.9697,-2.3954,0.0,0.0,0.0,0.0,0.0,-2.8486,-2.9076,-2.9905,-3.2202,-3.2491,-3.2805,-3.4424,-3.468,-3.4781,-3.5127,-3.5177,-3.5177,-3.5177,-3.4113,-3.3291,-3.3291,-3.2045,-3.1318,-3.1654,-3.129,-3.149,-3.275,-3.2354,-3.2475,-3.3276,-3.3156,-3.3156,-3.3307,-3.3696,-3.4048,-3.4349,-3.5107,-3.5571,-3.5768,-3.6169,-3.6405,-3.6405,-3.6405,-3.6405,-3.6405,-3.6405,-3.6405,-3.6405,-3.6405,-3.6732,-3.7236,-3.7789,-3.8366,-3.8931,-3.9484,-3.9697,-3.9697,-3.9697,-3.9697,-3.9697,-3.9697,-3.9697,-3.9697,-3.9697,-3.9697,-3.9697,-3.9697,-3.9697,-3.9697,-3.9697,-3.9697,-3.9798,-4.0199,-4.0287,-4.04,-4.0802,-4.0837,-4.0764,-4.0362,-4.0287,-4.0413,-4.0814,-4.0837,-4.0752,-4.035,-4.0287,-4.0149,-3.9747,-3.9697,-3.9697,-3.9697,-3.9697,-3.9697,-3.9697,-3.9697,-3.9697,-3.9697,-3.9697,-3.9697,-3.9697,-3.9697,-3.9697,-3.9697,-3.9697,-3.9697,-3.9697,-3.9697,-3.9697,-3.9697,-3.9697,-3.9697,-2.4669,-2.4908,-2.5259,-2.5724,0.0,0.0,-2.7858,-2.821,-2.8825,-3.1348,-3.1612,-3.1851,-3.3395,-3.3684,-3.3759,-3.3997,-3.361,-3.3433,-3.3887,-3.2851,-3.1852,-3.1365,-3.0408,-3.0035,-3.0513,-3.0429,-3.0707,-3.1665,-3.128,-3.1376,-3.2251,-3.2326,-3.2568,-3.3068,-3.3382,-3.3671,-3.3897,-3.4537,-3.5044,-3.5495,-3.5868,-3.6144,-3.6405,-3.6405,-3.6405,-3.6405,-3.6405,-3.6405,-3.6405,-3.6405,-3.687,-3.7563,-3.7889,-3.8504,-3.9245,-3.9572,-3.9697,-3.9697,-3.9697,-3.9697,-3.9697,-3.9697,-3.9697,-3.9697,-3.9697,-3.9697,-3.9697,-3.9697,-3.9697,-3.9697,-3.9697,-3.9873,-4.0124,-4.0438,-4.0689,-4.094,-4.1213,-4.1288,-4.1188,-4.0862,-4.0811,-4.0912,-4.1225,-4.1288,-4.1175,-4.0862,-4.0664,-4.04,-4.0074,-3.9835,-3.9697,-3.9697,-3.9697,-3.9697,-3.9697,-3.9697,-3.9697,-3.9697,-3.9697,-3.9697,-3.9697,-3.9697,-3.9697,-3.9697,-3.9697,-3.9697,-3.9697,-3.9697,-3.9697,-3.9697,-3.9697,-3.9697,-2.5799,-2.5824,-2.6088,-2.6967,-2.6176,0.0,-2.8624,-2.8511,-2.8398,-3.0432,-3.0796,-3.0972,-3.1712,-3.1901,-3.2072,-3.2489,-3.1845,-3.1618,-3.2587,-3.1443,-3.0092,-2.8982,-2.8293,-2.8321,-2.9434,-2.919,-2.9498,-3.0721,-2.9954,-2.9863,-3.0944,-3.1134,-3.1721,-3.284,-3.3025,-3.3319,-3.3809,-3.3872,-3.4424,-3.5408,-3.547,-3.583,-3.6405,-3.6405,-3.6405,-3.6405,-3.6405,-3.6405,-3.6405,-3.6405,-3.701,-3.8002,-3.8002,-3.8705,-3.9697,-3.9697,-3.9697,-3.9697,-3.9697,-3.9697,-3.9697,-3.9697,-3.9697,-3.9697,-3.9697,-3.9697,-3.9697,-3.9697,-3.9697,-3.9697,-3.9697,-4.0111,-4.0538,-4.0588,-4.0974,-4.1388,-4.1451,-4.1463,-4.1463,-4.1463,-4.1413,-4.1388,-4.1463,-4.1463,-4.1451,-4.1388,-4.1015,-4.0651,-4.0538,-4.0086,-3.976,-3.9697,-3.9697,-3.9697,-3.9697,-3.9697,-3.9697,-3.9697,-3.9697,-3.9697,-3.9697,-3.9697,-3.9697,-3.9697,-3.9697,-3.9697,-3.9697,-3.9697,-3.9697,-3.9697,-3.9697,-3.9697,-2.708,-2.7281,-2.7457,-2.6826,-2.7042,0.0,-2.6017,-2.5937,-2.6339,-2.7266,-2.709,-2.7306,-2.9176,-2.9955,-3.0044,-2.9335,-3.0773,-3.1884,-3.1583,-2.9652,-2.8137,-2.7899,-2.6889,-2.6278,-2.65,-2.6478,-2.6935,-2.8226,-2.8993,-2.9498,-2.9727,-3.0676,-3.1311,-3.1545,-3.2568,-3.3174,-3.3275,-3.3671,-3.4223,-3.4843,-3.5282,-3.583,-3.6405,-3.6405,-3.6405,-3.6405,-3.6405,-3.6405,-3.6405,-3.6405,-3.701,-3.8002,-3.8002,-3.8705,-3.9697,-3.9697,-3.9697,-3.9697,-3.9697,-3.9697,-3.9697,-3.9697,-3.9697,-3.9697,-3.9697,-3.9697,-3.9697,-3.9697,-3.9697,-3.9697,-3.9697,-4.0111,-4.0626,-4.1025,-4.1593,-4.212,-4.2559,-4.266,-4.266,-4.266,-4.2296,-4.2133,-4.2585,-4.266,-4.2509,-4.207,-4.1961,-4.1517,-4.0626,-4.0425,-4.0187,-3.9747,-3.9697,-3.9697,-3.9697,-3.9697,-3.9697,-3.9697,-3.9697,-3.9697,-3.9697,-3.9697,-3.9697,-3.9697,-3.9697,-3.9697,-3.9697,-3.9697,-3.9697,-3.9697,-3.9697,-3.9697,-2.826,-2.8109,-2.8047,-2.7758,-2.7494,0.0,0.0,-2.6013,-2.5988,-2.7406,-2.6288,-2.5701,-2.7839,-2.7708,-2.732,-2.7526,-2.8811,-2.9451,-2.8505,-2.8438,-2.8272,-2.7683,-2.704,-2.6668,-2.6668,-2.721,-2.7804,-2.8448,-2.7898,-2.8075,-2.9315,-2.9954,-3.0586,-3.1166,-3.2426,-3.3124,-3.3124,-3.3357,-3.3909,-3.468,-3.4956,-3.5567,-3.6405,-3.6405,-3.6405,-3.6405,-3.6405,-3.6405,-3.6405,-3.6405,-3.6895,-3.7626,-3.7902,-3.8705,-3.9697,-3.9697,-3.9697,-3.9697,-3.9697,-3.9697,-3.9697,-3.9697,-3.9697,-3.9697,-3.9697,-3.9697,-3.9747,-4.0023,-4.0111,-4.0174,-4.0438,-4.0927,-4.1404,-4.1681,-4.217,-4.269,-4.2924,-4.2974,-4.2974,-4.2974,-4.2748,-4.2647,-4.2924,-4.2974,-4.2886,-4.2665,-4.2108,-4.1543,-4.099,-4.0438,-3.9998,-3.9722,-3.9697,-3.9697,-3.9697,-3.9697,-3.9697,-3.9697,-3.9697,-3.9697,-3.9697,-3.9697,-3.9697,-3.9697,-3.9697,-3.9697,-3.9697,-3.9697,-3.9697,-3.9697,-3.9697,-3.9697,-2.9553,-2.9151,-2.89,-2.8888,-2.8013,-2.7181,0.0,0.0,0.0,-2.725,-2.5671,-2.4553,-2.6346,-2.537,-2.4657,-2.5622,-2.6408,-2.649,-2.5307,-2.7031,-2.8047,-2.6983,-2.731,-2.7488,-2.717,-2.7832,-2.842,-2.8659,-2.6594,-2.6337,-2.8566,-2.8901,-2.9498,-3.0496,-3.1965,-3.2742,-3.2742,-3.2982,-3.3583,-3.4562,-3.4675,-3.524,-3.6207,-3.6367,-3.6405,-3.6405,-3.6405,-3.6405,-3.6405,-3.6405,-3.6732,-3.7236,-3.7789,-3.863,-3.9546,-3.9647,-3.9697,-3.9697,-3.9697,-3.9697,-3.9697,-3.9697,-3.9697,-3.9697,-3.9697,-3.9697,-3.981,-4.0362,-4.0513,-4.0639,-4.115,-4.1743,-4.2213,-4.2213,-4.2627,-4.2974,-4.2974,-4.2974,-4.2974,-4.2974,-4.2974,-4.2974,-4.2974,-4.2974,-4.2974,-4.2974,-4.2133,-4.1401,-4.13,-4.0463,-3.981,-3.9697,-3.9697,-3.9697,-3.9697,-3.9697,-3.9697,-3.9697,-3.9697,-3.9697,-3.9697,-3.9697,-3.9697,-3.9697,-3.9697,-3.9697,-3.9697,-3.9697,-3.9697,-3.9697,-3.9697,-3.9697,-3.126,-3.1424,-3.1298,-2.9364,-2.919,-2.8655,-2.5385,0.0,-2.4104,-2.2932,0.0,-2.2408,-2.3142,0.0,0.0,-2.212,-2.4039,-2.5094,-2.3592,-2.4252,-2.4723,-2.4267,-2.6256,-2.7063,-2.5513,-2.4812,-2.4888,-2.6059,-2.4798,-2.465,-2.6041,-2.7173,-2.7861,-2.8002,-3.0226,-3.14,-3.14,-3.2525,-3.3382,-3.3997,-3.4487,-3.5006,-3.5608,-3.6144,-3.6405,-3.6405,-3.6405,-3.6405,-3.6405,-3.6405,-3.6732,-3.7236,-3.7789,-3.8404,-3.9032,-3.9509,-3.9697,-3.9697,-3.9697,-3.9697,-3.9697,-3.9697,-3.9697,-3.9697,-3.9697,-3.9697,-3.981,-4.0362,-4.0513,-4.0639,-4.115,-4.1743,-4.2213,-4.2213,-4.2627,-4.2974,-4.2974,-4.2974,-4.2974,-4.2974,-4.2974,-4.2974,-4.2974,-4.2974,-4.2974,-4.2974,-4.2514,-4.1882,-4.1351,-4.0802,-4.0237,-3.9747,-3.9697,-3.9697,-3.9697,-3.9697,-3.9697,-3.9697,-3.9697,-3.9697,-3.9697,-3.9697,-3.9697,-3.9697,-3.9697,-3.9697,-3.9697,-3.9697,-3.9697,-3.9697,-3.9697,-3.9697,-3.0673,-3.103,-3.126,-2.9312,-2.9096,-2.8682,-2.6176,-2.4907,-2.4054,-2.3408,0.0,0.0,0.0,0.0,0.0,0.0,-2.2035,-2.267,-2.1107,-2.2505,-2.3876,-2.4432,-2.4382,-2.4249,-2.3967,-2.3848,-2.442,-2.5936,-2.4629,-2.4558,-2.6306,-2.717,-2.7589,-2.7589,-2.9269,-3.0496,-3.1166,-3.1733,-3.2653,-3.3909,-3.4462,-3.4969,-3.552,-3.6107,-3.6405,-3.6405,-3.6405,-3.6405,-3.6405,-3.6405,-3.6543,-3.6845,-3.7663,-3.8366,-3.8931,-3.9484,-3.9697,-3.9697,-3.9697,-3.9697,-3.9697,-3.9697,-3.9697,-3.9697,-3.9697,-3.9923,-4.0287,-4.0786,-4.1229,-4.1593,-4.2145,-4.2459,-4.269,-4.269,-4.2811,-4.2974,-4.2974,-4.2974,-4.2974,-4.2974,-4.2974,-4.2974,-4.2974,-4.2974,-4.2974,-4.2974,-4.2233,-4.1605,-4.1313,-4.0576,-3.9948,-3.9722,-3.9697,-3.9697,-3.9697,-3.9697,-3.9697,-3.9697,-3.9697,-3.9697,-3.9697,-3.9697,-3.9697,-3.9697,-3.9697,-3.9697,-3.9697,-3.9697,-3.9697,-3.9697,-3.9697,-3.9697,-3.05,-3.0658,-3.0817,-2.8698,-2.8016,-2.7403,-2.5724,-2.4408,-2.3534,-2.346,-2.1945,0.0,0.0,0.0,-1.9436,-1.9853,0.0,-2.0667,-1.9288,-2.0652,-2.2186,-2.3323,-2.2521,-2.2293,-2.3302,-2.3093,-2.3656,-2.5485,-2.4037,-2.4053,-2.627,-2.6707,-2.6944,-2.7078,-2.8272,-2.9315,-3.0226,-3.0855,-3.1882,-3.3162,-3.4195,-3.4881,-3.5295,-3.6044,-3.6405,-3.6405,-3.6405,-3.6405,-3.6405,-3.6405,-3.6405,-3.6518,-3.7575,-3.8266,-3.8718,-3.9433,-3.9697,-3.9697,-3.9697,-3.9697,-3.9697,-3.9697,-3.9697,-3.9697,-3.9697,-4.0074,-4.0626,-4.1125,-4.1731,-4.2338,-4.2836,-4.2974,-4.2974,-4.2974,-4.2974,-4.2974,-4.2974,-4.2974,-4.2974,-4.2974,-4.2974,-4.2974,-4.2974,-4.2974,-4.2974,-4.2974,-4.217,-4.1568,-4.1568,-4.0601,-3.9973,-4.0124,-3.9873,-3.9747,-3.991,-3.9785,-3.9697,-3.9697,-3.9697,-3.9697,-3.9697,-3.9697,-3.9697,-3.9697,-3.9697,-3.9697,-3.9697,-3.9697,-3.9697,-3.9697,-3.9697,-3.9697,-3.1496,-3.1175,-3.0457,-2.7353,-2.585,-2.4595,-2.2604,-2.2076,-2.1873,-2.1389,-2.1887,-2.2317,-2.1946,-2.1465,-2.0839,-2.0049,-1.9912,0.0,0.0,-1.8355,-1.8503,-1.938,-2.0909,-2.2487,-2.4022,-2.205,-2.1584,-2.3742,-2.2256,-2.2412,-2.5026,-2.5173,-2.5379,-2.5771,-2.6982,-2.7683,-2.7731,-3.0033,-3.1235,-3.1303,-3.3625,-3.4726,-3.4776,-3.5868,-3.6405,-3.6405,-3.6405,-3.6405,-3.6405,-3.6405,-3.6405,-3.6518,-3.7575,-3.8015,-3.8165,-3.9283,-3.9697,-3.9697,-3.9697,-3.9697,-3.9697,-3.9697,-3.9697,-3.9697,-3.9697,-4.0074,-4.0626,-4.1125,-4.1731,-4.2338,-4.2836,-4.2974,-4.2974,-4.2974,-4.2974,-4.2974,-4.2974,-4.2974,-4.2974,-4.2974,-4.2974,-4.2974,-4.2974,-4.2974,-4.2974,-4.2974,-4.2552,-4.2187,-4.2187,-4.1166,-4.0701,-4.1175,-4.0325,-3.991,-4.0438,-3.9998,-3.9697,-3.9697,-3.9697,-3.9697,-3.9697,-3.9697,-3.9697,-3.9697,-3.9697,-3.9697,-3.9697,-3.9697,-3.9697,-3.9697,-3.9697,-3.9697,0.0,0.0,-3.1283,-2.7431,-2.7124,-2.6876,-2.3605,-2.2833,-2.2514,-2.1429,-2.1873,-2.2383,-2.1963,-2.1533,-2.1035,-2.0439,-1.9873,-1.9102,0.0,-1.7178,-1.7073,-1.793,-1.9832,-2.1036,-2.0966,-2.0987,-2.1435,-2.2451,-2.1992,-2.2529,-2.4531,-2.4912,-2.5273,-2.5674,-2.611,-2.6754,-2.7589,-2.8412,-2.9636,-3.1235,-3.2774,-3.3915,-3.4763,-3.5855,-3.6405,-3.6405,-3.6405,-3.6405,-3.6405,-3.6405,-3.6619,-3.6973,-3.7713,-3.8241,-3.8668,-3.9421,-3.9697,-3.9697,-3.9697,-3.9697,-3.9697,-3.9697,-3.9697,-3.976,-4.0124,-4.0626,-4.1178,-4.1718,-4.2271,-4.2791,-4.2924,-4.2974,-4.2974,-4.2974,-4.2974,-4.2974,-4.2974,-4.2974,-4.2974,-4.2974,-4.2974,-4.2974,-4.2974,-4.2974,-4.2974,-4.2974,-4.2564,-4.2213,-4.2213,-4.1517,-4.1075,-4.1263,-4.1003,-4.0811,-4.0987,-4.0837,-4.0777,-4.0777,-4.0438,-4.0237,-4.0237,-3.9885,-3.9697,-3.9697,-3.9697,-3.9697,-3.9697,-3.9697,-3.9697,-3.9697,-3.9697,-3.9697,-2.9514,-3.0041,0.0,-2.7055,-2.7065,0.0,-2.3929,0.0,-2.3363,-2.2146,-2.248,-2.293,-2.2803,-2.2187,-2.1494,-2.0898,-2.0078,-1.8965,0.0,-1.666,-1.6514,-1.708,-1.8633,-1.9619,-1.9521,-1.9863,-2.0489,-2.1572,-2.1357,-2.1992,-2.3857,-2.4521,-2.5039,-2.5488,-2.5606,-2.611,-2.6897,-2.7352,-2.8675,-3.0866,-3.225,-3.3633,-3.5006,-3.5956,-3.6405,-3.6405,-3.6405,-3.6405,-3.6405,-3.6405,-3.6732,-3.7236,-3.7789,-3.8366,-3.8931,-3.9484,-3.9697,-3.9697,-3.9697,-3.9697,-3.9697,-3.9697,-3.9697,-3.9798,-4.035,-4.0849,-4.1401,-4.2049,-4.2602,-4.2974,-4.2974,-4.2974,-4.2974,-4.2974,-4.2974,-4.2974,-4.2974,-4.2974,-4.2974,-4.2974,-4.2974,-4.2974,-4.2974,-4.2974,-4.2974,-4.2974,-4.2728,-4.2502,-4.2502,-4.1969,-4.1706,-4.1894,-4.1514,-4.1288,-4.1288,-4.1288,-4.1288,-4.1288,-4.1003,-4.0761,-4.0761,-4.0275,-3.9986,-3.9986,-3.9798,-3.9785,-3.9986,-3.9785,-3.9798,-3.9986,-3.9785,-3.9697]},{"header":{"parameterUnit":"m.s-1","parameterCategory":1,"la1":30.6,"la2":29.2853,"lo1":-89.7004,"lo2":-87.6739,"dy":0.0162,"dx":0.0183,"nx":112,"ny":82,"refTime":"2025-04-16T06:00:00:Z","depth":0,"parameterNumber":3,"parameterNumberName":"V-component_of_WINDS"},"data":[0.0,0.0,0.0,0.0,0.0,0.0,0.0,0.0,0.0,0.0,0.0,0.0,0.0,0.0,0.0,0.0,0.0,0.0,0.0,0.0,0.0,0.0,0.0,0.0,0.0,0.0,0.0,0.0,0.0,0.0,0.0,0.0,0.0,0.0,0.0,0.0,0.0,0.0,0.0,0.0,0.0,0.0,0.0,0.0,0.0,0.0,0.0,0.0,0.0,0.0,0.0,0.0,0.0,0.0,0.0,0.0,0.0,0.0,0.0,0.0,0.0,0.0,0.0,0.0,0.0,0.0,0.0,0.0,0.0,0.0,0.0,0.0,0.0,0.0,0.0,0.0,0.0,0.0,0.0,0.0,0.0,0.0,0.0,0.0,0.0,0.0,0.0,0.0,0.0,0.0,2.1473,2.2773,2.4739,2.5965,2.5965,2.554,2.4232,2.1758,0.0,0.0,0.0,0.0,0.0,0.0,0.0,0.0,0.0,0.0,0.0,0.0,0.0,0.0,0.0,0.0,0.0,0.0,0.0,0.0,0.0,0.0,0.0,0.0,0.0,0.0,0.0,0.0,0.0,0.0,0.0,0.0,0.0,0.0,0.0,0.0,0.0,0.0,0.0,0.0,0.0,0.0,0.0,0.0,0.0,0.0,0.0,0.0,0.0,0.0,0.0,0.0,0.0,0.0,0.0,0.0,0.0,0.0,0.0,0.0,0.0,0.0,0.0,0.0,0.0,0.0,0.0,0.0,0.0,0.0,0.0,0.0,0.0,0.0,0.0,0.0,0.0,0.0,0.0,0.0,0.0,0.0,0.0,0.0,0.0,0.0,0.0,0.0,0.0,0.0,0.0,0.0,0.0,0.0,0.0,0.0,0.0,0.0,0.0,0.0,0.0,0.0,0.0,0.0,2.1289,2.4401,2.6269,2.7315,2.7315,2.6562,2.5307,2.3454,0.0,0.0,0.0,0.0,0.0,0.0,0.0,0.0,0.0,0.0,0.0,0.0,0.0,0.0,0.0,0.0,0.0,0.0,0.0,0.0,0.0,0.0,0.0,0.0,0.0,0.0,0.0,0.0,0.0,0.0,0.0,0.0,0.0,0.0,0.0,0.0,0.0,0.0,0.0,0.0,0.0,0.0,0.0,0.0,0.0,0.0,0.0,0.0,0.0,0.0,0.0,0.0,0.0,0.0,0.0,0.0,0.0,0.0,0.0,0.0,0.0,0.0,0.0,0.0,0.0,0.0,0.0,0.0,0.0,0.0,0.0,0.0,0.0,0.0,0.0,0.0,0.0,0.0,0.0,0.0,0.0,0.0,0.0,0.0,0.0,0.0,0.0,0.0,0.0,0.0,0.0,0.0,0.0,0.0,0.0,0.0,0.0,0.0,0.0,0.0,0.0,0.0,0.0,2.1722,2.3391,2.7045,2.8132,2.8598,2.8598,2.7695,2.6206,2.387,2.1638,0.0,0.0,0.0,0.0,0.0,0.0,0.0,0.0,0.0,0.0,0.0,0.0,0.0,0.0,0.0,0.0,0.0,0.0,0.0,0.0,0.0,0.0,0.0,0.0,0.0,0.0,0.0,0.0,0.0,0.0,0.0,0.0,0.0,0.0,0.0,0.0,0.0,0.0,0.0,0.0,0.0,0.0,0.0,0.0,0.0,0.0,0.0,0.0,0.0,0.0,0.0,0.0,0.0,0.0,0.0,0.0,0.0,0.0,0.0,0.0,0.0,0.0,0.0,0.0,0.0,0.0,0.0,0.0,0.0,0.0,0.0,0.0,0.0,0.0,0.0,0.0,0.0,0.0,0.0,0.0,0.0,0.0,0.0,0.0,0.0,0.0,0.0,0.0,0.0,0.0,0.0,0.0,0.0,0.0,0.0,0.0,0.0,0.0,0.0,0.0,0.0,0.0,2.4444,2.5899,2.9047,2.9636,2.9806,2.9806,2.8568,2.6662,2.4154,2.1688,0.0,0.0,0.0,0.0,0.0,0.0,0.0,0.0,0.0,0.0,0.0,0.0,0.0,0.0,0.0,0.0,0.0,0.0,0.0,0.0,0.0,0.0,0.0,0.0,0.0,0.0,0.0,0.0,0.0,0.0,0.0,0.0,0.0,0.0,0.0,0.0,0.0,0.0,0.0,0.0,0.0,0.0,0.0,0.0,0.0,0.0,0.0,0.0,0.0,0.0,0.0,0.0,0.0,0.0,0.0,0.0,0.0,0.0,0.0,0.0,0.0,0.0,0.0,0.0,0.0,0.0,0.0,0.0,0.0,0.0,0.0,0.0,0.0,0.0,0.0,0.0,0.0,0.0,0.0,0.0,0.0,0.0,0.0,0.0,0.0,0.0,0.0,0.0,0.0,0.0,0.0,0.0,0.0,0.0,0.0,0.0,0.0,0.0,0.0,0.0,0.0,0.0,2.5924,2.8064,2.9284,3.0395,3.1078,3.1078,2.8793,2.6605,2.4906,2.0966,0.0,0.0,0.0,0.0,0.0,0.0,0.0,0.0,0.0,0.0,0.0,0.0,0.0,0.0,0.0,0.0,0.0,0.0,0.0,0.0,0.0,0.0,0.0,0.0,0.0,0.0,0.0,0.0,0.0,0.0,0.0,0.0,0.0,0.0,0.0,0.0,0.0,0.0,0.0,0.0,0.0,0.0,0.0,0.0,0.0,0.0,0.0,0.0,0.0,0.0,0.0,0.0,0.0,0.0,0.0,0.0,0.0,0.0,0.0,0.0,0.0,0.0,0.0,0.0,0.0,0.0,0.0,0.0,0.0,0.0,0.0,0.0,0.0,0.0,0.0,0.0,0.0,0.0,0.0,0.0,0.0,0.0,0.0,0.0,0.0,0.0,0.0,0.0,0.0,0.0,0.0,0.0,0.0,0.0,0.0,0.0,0.0,0.0,0.0,0.0,0.0,0.0,2.6526,2.8822,3.1428,3.2108,3.2382,3.2382,3.0511,2.8271,2.5762,0.0,0.0,0.0,0.0,0.0,0.0,0.0,0.0,0.0,0.0,0.0,0.0,0.0,0.0,0.0,0.0,0.0,0.0,0.0,0.0,0.0,0.0,0.0,0.0,0.0,0.0,0.0,0.0,0.0,0.0,0.0,0.0,0.0,0.0,0.0,0.0,0.0,0.0,0.0,0.0,0.0,0.0,0.0,0.0,0.0,0.0,0.0,0.0,0.0,0.0,0.0,0.0,0.0,0.0,0.0,0.0,0.0,0.0,0.0,0.0,0.0,0.0,0.0,0.0,0.0,0.0,0.0,0.0,0.0,0.0,0.0,0.0,0.0,0.0,0.0,0.0,0.0,0.0,0.0,0.0,0.0,0.0,0.0,0.0,0.0,0.0,0.0,0.0,0.0,0.0,0.0,0.0,0.0,0.0,0.0,0.0,0.0,0.0,0.0,0.0,0.0,0.0,2.5371,2.7617,3.0026,3.2787,3.3124,3.3006,3.2817,3.0972,2.8573,2.572,0.0,0.0,0.0,0.0,0.0,0.0,0.0,0.0,0.0,0.0,0.0,0.0,0.0,0.0,0.0,0.0,0.0,0.0,0.0,0.0,0.0,0.0,0.0,0.0,0.0,0.0,0.0,0.0,0.0,0.0,0.0,0.0,0.0,0.0,0.0,0.0,0.0,0.0,0.0,0.0,0.0,0.0,0.0,0.0,0.0,0.0,0.0,0.0,0.0,0.0,0.0,0.0,0.0,0.0,0.0,0.0,0.0,0.0,0.0,0.0,0.0,0.0,0.0,0.0,0.0,0.0,0.0,0.0,0.0,0.0,0.0,0.0,0.0,0.0,0.0,0.0,0.0,0.0,0.0,0.0,0.0,0.0,0.0,0.0,0.0,0.0,0.0,0.0,0.0,0.0,0.0,0.0,0.0,0.0,0.0,0.0,0.0,0.0,0.0,0.0,0.0,0.0,2.6267,2.9378,3.1825,3.2998,3.3124,3.2842,3.2265,2.9704,2.7095,0.0,0.0,0.0,0.0,0.0,0.0,0.0,0.0,0.0,0.0,0.0,0.0,0.0,0.0,0.0,0.0,0.0,0.0,0.0,0.0,0.0,0.0,0.0,0.0,0.0,0.0,0.0,0.0,0.0,0.0,0.0,0.0,0.0,0.0,0.0,0.0,0.0,0.0,0.0,0.0,0.0,0.0,0.0,0.0,0.0,0.0,0.0,0.0,0.0,0.0,0.0,0.0,0.0,0.0,0.0,0.0,0.0,0.0,0.0,0.0,0.0,0.0,0.0,0.0,0.0,0.0,0.0,0.0,0.0,0.0,0.0,0.0,0.0,0.0,0.0,0.0,0.0,0.0,0.0,0.0,0.0,0.0,0.0,0.0,0.0,0.0,0.0,0.0,0.0,0.0,0.0,0.0,0.0,0.0,0.0,0.0,0.0,0.0,0.0,0.0,0.0,0.0,0.0,2.6264,2.9378,3.1825,3.2998,3.3124,3.2842,3.2265,3.0419,2.8161,2.5434,0.0,0.0,0.0,0.0,0.0,0.0,0.0,0.0,0.0,0.0,0.0,0.0,0.0,0.0,0.0,0.0,0.0,0.0,0.0,0.0,0.0,0.0,0.0,0.0,0.0,0.0,0.0,0.0,0.0,0.0,0.0,0.0,0.0,0.0,0.0,0.0,0.0,0.0,0.0,0.0,0.0,0.0,0.0,0.0,0.0,0.0,0.0,0.0,0.0,0.0,0.0,0.0,0.0,0.0,0.0,0.0,0.0,0.0,0.0,0.0,0.0,0.0,0.0,0.0,0.0,0.0,0.0,0.0,0.0,0.0,0.0,0.0,0.0,0.0,0.0,0.0,0.0,0.0,0.0,0.0,0.0,0.0,0.0,0.0,0.0,0.0,0.0,0.0,0.0,0.0,0.0,0.0,0.0,0.0,0.0,0.0,0.0,0.0,0.0,0.0,0.0,0.0,2.6285,2.9378,3.1825,3.2998,3.3124,3.2842,3.2265,3.0922,2.8825,2.5787,0.0,0.0,0.0,0.0,0.0,0.0,0.0,0.0,0.0,0.0,0.0,0.0,0.0,0.0,0.0,0.0,0.0,0.0,0.0,0.0,0.0,0.0,0.0,0.0,0.0,0.0,0.0,0.0,0.0,0.0,0.0,0.0,0.0,0.0,0.0,0.0,0.0,0.0,0.0,0.0,0.0,0.0,0.0,0.0,0.0,0.0,0.0,0.0,0.0,0.0,0.0,0.0,0.0,0.0,0.0,0.0,0.0,0.0,0.0,0.0,0.0,0.0,0.0,0.0,0.0,0.0,0.0,0.0,0.0,0.0,0.0,0.0,0.0,0.0,0.0,0.0,0.0,0.0,0.0,0.0,0.0,0.0,0.0,0.0,0.0,0.0,0.0,0.0,0.0,0.0,0.0,0.0,0.0,0.0,0.0,0.0,0.0,0.0,0.0,0.0,0.0,0.0,2.6285,2.9378,3.1825,3.2998,3.3124,3.2842,3.2265,3.1235,2.9227,2.595,0.0,0.0,0.0,0.0,0.0,0.0,0.0,0.0,0.0,0.0,0.0,0.0,0.0,0.0,0.0,0.0,0.0,0.0,0.0,0.0,0.0,0.0,0.0,0.0,0.0,0.0,0.0,0.0,0.0,0.0,0.0,0.0,0.0,0.0,0.0,0.0,0.0,0.0,0.0,0.0,0.0,0.0,0.0,0.0,0.0,0.0,0.0,0.0,0.0,0.0,0.0,0.0,0.0,0.0,0.0,0.0,0.0,0.0,0.0,0.0,3.1206,2.969,0.0,0.0,0.0,0.0,0.0,0.0,0.0,0.0,0.0,0.0,0.0,0.0,0.0,0.0,0.0,0.0,0.0,0.0,0.0,0.0,0.0,0.0,0.0,0.0,0.0,0.0,0.0,0.0,0.0,0.0,0.0,0.0,0.0,0.0,0.0,0.0,0.0,0.0,0.0,0.0,2.6285,2.9378,3.1825,3.2998,3.3124,3.2842,3.2265,3.1235,2.9553,2.708,2.4431,0.0,0.0,0.0,0.0,0.0,0.0,0.0,0.0,0.0,0.0,0.0,0.0,0.0,0.0,0.0,0.0,0.0,0.0,0.0,0.0,0.0,0.0,0.0,0.0,0.0,0.0,0.0,0.0,0.0,0.0,0.0,0.0,0.0,0.0,0.0,0.0,0.0,0.0,0.0,0.0,0.0,0.0,0.0,0.0,0.0,0.0,0.0,0.0,0.0,0.0,0.0,0.0,0.0,0.0,0.0,0.0,0.0,0.0,0.0,3.4375,3.2763,0.0,0.0,0.0,0.0,0.0,0.0,0.0,0.0,0.0,0.0,0.0,0.0,0.0,0.0,0.0,0.0,0.0,0.0,0.0,0.0,0.0,0.0,0.0,0.0,0.0,0.0,0.0,0.0,0.0,0.0,0.0,0.0,0.0,0.0,0.0,0.0,0.0,0.0,0.0,0.0,2.665,2.9541,3.1825,3.2998,3.3124,3.2842,3.2265,3.1461,2.993,2.7444,2.5184,0.0,0.0,0.0,0.0,0.0,0.0,0.0,0.0,0.0,0.0,0.0,0.0,0.0,0.0,0.0,0.0,0.0,0.0,0.0,0.0,0.0,0.0,0.0,0.0,0.0,0.0,0.0,0.0,0.0,0.0,0.0,0.0,0.0,0.0,0.0,0.0,0.0,0.0,0.0,0.0,0.0,0.0,0.0,0.0,0.0,0.0,0.0,0.0,0.0,0.0,0.0,0.0,0.0,3.9729,4.0694,4.1048,4.0237,4.1042,4.2811,3.7985,3.6681,3.7711,3.4946,0.0,0.0,0.0,0.0,0.0,0.0,0.0,0.0,0.0,0.0,0.0,0.0,0.0,0.0,0.0,0.0,0.0,0.0,0.0,0.0,0.0,0.0,3.0711,3.2065,3.2574,3.173,2.7923,0.0,0.0,0.0,0.0,0.0,0.0,0.0,0.0,0.0,0.0,0.0,2.7143,2.9741,3.1825,3.2998,3.3124,3.2842,3.2265,3.1712,3.0344,2.7871,2.6076,2.4029,0.0,0.0,0.0,0.0,0.0,0.0,0.0,0.0,0.0,0.0,0.0,0.0,0.0,0.0,0.0,0.0,0.0,0.0,0.0,0.0,0.0,0.0,0.0,0.0,0.0,0.0,0.0,0.0,0.0,0.0,0.0,0.0,3.5128,3.5447,0.0,0.0,0.0,0.0,0.0,0.0,0.0,0.0,0.0,0.0,0.0,0.0,0.0,4.1599,4.2075,4.4098,4.4798,4.4169,4.5558,4.5958,4.5454,4.5355,4.5441,4.5696,4.4381,0.0,4.0673,3.8375,0.0,0.0,0.0,0.0,0.0,0.0,0.0,0.0,0.0,0.0,0.0,0.0,0.0,0.0,0.0,0.0,0.0,0.0,0.0,0.0,0.0,0.0,3.6339,3.6545,3.6023,3.5216,3.4126,3.0863,2.7495,2.5351,2.4108,2.2614,0.0,0.0,0.0,0.0,0.0,0.0,2.7708,2.998,3.1825,3.2998,3.3124,3.2842,3.2265,3.1712,3.0834,2.9541,2.7467,2.5883,2.4983,2.2585,0.0,0.0,0.0,0.0,0.0,0.0,0.0,0.0,0.0,0.0,0.0,0.0,0.0,0.0,0.0,0.0,0.0,0.0,0.0,0.0,0.0,0.0,0.0,0.0,0.0,0.0,0.0,0.0,0.0,3.6094,3.7715,3.8223,3.8312,3.7868,0.0,0.0,0.0,0.0,0.0,0.0,0.0,0.0,0.0,4.2488,4.386,4.4721,4.4964,4.6247,4.6905,4.698,4.7578,4.7893,4.7982,4.7982,4.7982,4.7938,4.7264,4.6112,4.4526,4.1679,3.9587,3.7925,0.0,0.0,0.0,0.0,3.4801,3.4932,3.6462,3.6491,3.5638,3.4313,0.0,0.0,0.0,0.0,0.0,0.0,0.0,3.2211,3.368,3.54,3.7013,3.8256,3.8228,3.7853,3.7609,3.5746,3.2941,2.8997,2.7539,2.5915,2.2584,2.253,0.0,0.0,0.0,2.6892,2.8812,3.0696,3.2164,3.2993,3.278,3.2365,3.18,3.126,3.0482,2.9377,2.7808,2.67,2.6135,2.4029,2.2221,0.0,0.0,0.0,0.0,0.0,0.0,0.0,0.0,0.0,0.0,0.0,0.0,0.0,0.0,0.0,0.0,0.0,0.0,0.0,0.0,0.0,0.0,0.0,0.0,0.0,0.0,0.0,0.0,3.8967,4.0244,4.0606,4.125,4.0995,0.0,0.0,0.0,0.0,0.0,0.0,4.3354,4.3838,4.4706,4.6022,4.6726,4.716,4.7281,4.7982,4.8551,4.903,4.903,4.9284,4.9808,4.9808,4.9673,4.9494,4.9,4.8312,4.7324,4.4372,4.2432,4.1205,3.92,3.8242,3.8063,3.8676,3.8691,3.8706,4.0696,4.0741,3.9679,3.8212,3.6941,3.5481,3.2915,0.0,0.0,0.0,0.0,3.3871,3.5633,3.6541,3.743,3.9026,3.9388,3.9388,3.9388,3.8775,3.6966,3.2654,3.1252,2.9624,2.6009,2.5966,0.0,2.4736,2.6675,2.8833,3.0407,3.2036,3.3091,3.3246,3.3098,3.2519,3.1289,3.1048,3.0442,2.9214,2.8109,2.7448,2.7261,2.5632,2.4002,2.2464,0.0,0.0,0.0,0.0,0.0,0.0,0.0,0.0,0.0,0.0,0.0,0.0,0.0,0.0,0.0,0.0,0.0,0.0,0.0,0.0,0.0,0.0,0.0,0.0,0.0,0.0,0.0,0.0,0.0,4.1489,4.3524,0.0,0.0,0.0,0.0,4.3095,4.4302,4.5364,4.6097,4.6115,4.677,4.8102,4.882,4.9404,4.9986,5.0644,5.1035,5.1065,5.1065,5.1094,5.1109,5.1109,5.0734,5.0136,5.0106,4.9419,4.8072,4.6007,4.4736,4.3928,4.1953,4.1587,4.1961,4.0741,4.0666,4.1205,4.1324,4.1377,4.1265,4.1212,3.9394,3.718,3.6428,3.529,0.0,0.0,3.6168,3.7302,3.8038,3.8725,3.9262,3.9358,3.9388,3.9388,3.9388,3.8554,3.7457,3.6165,3.4964,3.3255,3.0455,0.0,2.9075,2.8525,2.9821,3.1384,3.2668,3.4248,3.4837,3.3886,3.4576,3.3921,3.0893,3.1448,3.1318,2.9856,2.8687,2.842,2.9232,2.7644,2.6219,2.5021,2.4014,0.0,0.0,0.0,0.0,0.0,0.0,0.0,0.0,0.0,0.0,0.0,0.0,0.0,0.0,0.0,0.0,0.0,0.0,0.0,0.0,0.0,0.0,0.0,0.0,0.0,0.0,0.0,0.0,4.3913,4.5484,0.0,4.4077,4.4945,4.5514,4.5233,4.6471,4.7504,4.8177,4.8611,4.9209,5.0152,5.0406,5.0631,5.0823,5.1094,5.1214,5.1214,5.1214,5.1214,5.1214,5.1214,5.1094,5.0808,5.0375,4.9733,4.8865,4.7683,4.6576,4.5454,4.3883,4.3419,4.3554,4.309,4.306,4.3269,4.3269,4.2985,4.2491,4.1654,4.0457,3.929,3.908,3.8377,3.7704,3.7958,3.8347,3.8751,3.899,3.923,3.9388,3.9388,3.9388,3.9388,3.9388,3.9104,3.8723,3.8337,3.7032,3.5192,3.2785,3.2819,3.2658,3.1109,3.2283,3.3638,3.4451,3.4778,3.4914,3.4799,3.4133,3.3349,3.2497,3.2391,3.1992,3.1029,3.0241,2.9785,2.9679,2.8741,2.7526,2.6005,2.5618,2.3454,0.0,0.0,0.0,0.0,0.0,0.0,0.0,0.0,0.0,0.0,0.0,0.0,0.0,0.0,0.0,0.0,0.0,0.0,0.0,0.0,0.0,0.0,0.0,0.0,0.0,4.3793,4.5394,4.5618,4.7219,4.7683,4.6127,4.6995,4.7595,4.7595,4.8656,4.9464,4.9898,5.0331,5.0719,5.1214,5.1214,5.1214,5.1214,5.1214,5.1214,5.1214,5.1214,5.1214,5.1214,5.1214,5.1214,5.1199,5.0704,5.0077,4.9284,4.879,4.7848,4.6546,4.5424,4.499,4.496,4.4721,4.4646,4.4616,4.4392,4.3843,4.311,4.2073,4.1452,4.1025,4.0801,4.0277,3.9753,3.9753,3.9553,3.9388,3.9388,3.9388,3.9388,3.9388,3.9388,3.9388,3.9388,3.9388,3.9388,3.9388,3.8465,3.7148,3.5438,3.58,3.5668,3.3938,3.496,3.5946,3.6192,3.6239,3.6092,3.5577,3.4839,3.4034,3.3197,3.2911,3.2417,3.1654,3.0675,3.0076,2.9899,2.8917,2.7883,2.6778,2.5939,2.4028,2.1075,0.0,0.0,0.0,0.0,0.0,0.0,0.0,0.0,0.0,0.0,0.0,0.0,0.0,0.0,0.0,0.0,0.0,0.0,0.0,0.0,0.0,0.0,0.0,4.2425,4.5289,4.7115,4.6474,4.8671,4.9478,4.7608,4.9149,5.0226,5.0226,5.0808,5.1214,5.1214,5.1214,5.1214,5.1214,5.1214,5.1214,5.1214,5.1214,5.1214,5.1214,5.1214,5.1214,5.1214,5.1214,5.1214,5.1214,5.1214,5.0481,4.9344,4.9329,4.8506,4.7264,4.6606,4.6309,4.6277,4.5603,4.5334,4.5214,4.4571,4.3898,4.3185,4.2635,4.2425,4.2276,4.1647,4.095,4.0427,4.0427,3.9963,3.9454,3.9454,3.9439,3.9388,3.9388,3.9388,3.9388,3.9388,3.9388,3.9388,3.9388,3.9388,3.92,3.8542,3.8422,3.8074,3.7025,3.7758,0.0,3.7907,3.8745,3.8527,3.6302,3.6856,3.6104,3.298,3.2959,3.2725,3.1716,2.989,2.9244,3.0103,2.8308,2.7382,2.7544,2.5071,2.3568,2.3104,0.0,0.0,0.0,0.0,0.0,0.0,0.0,0.0,0.0,0.0,0.0,0.0,0.0,0.0,0.0,0.0,0.0,0.0,0.0,0.0,0.0,4.303,4.5035,4.52,4.6845,4.8297,4.903,5.0166,5.0735,5.0197,5.0631,5.0945,5.0945,5.1124,5.1214,5.1214,5.1214,5.1214,5.1214,5.1214,5.1214,5.1214,5.1214,5.1214,5.1214,5.1214,5.1214,5.1214,5.1214,5.1214,5.1214,5.1214,5.075,4.9942,4.9464,4.882,4.7952,4.7294,4.704,4.701,4.6815,4.6127,4.5274,4.5095,4.4287,4.326,4.3135,4.2746,4.2366,4.2186,4.1677,4.1115,4.1115,4.0636,4.0127,4.0127,3.9768,3.9388,3.9388,3.9388,3.9388,3.9388,3.9388,3.9388,3.9388,3.9388,3.9328,3.917,3.914,3.9017,3.8735,3.8945,3.9092,3.895,3.8546,3.8098,3.7795,3.6875,3.6064,3.5468,3.4614,3.3805,3.3018,3.1567,3.0866,3.1117,3.0117,2.941,2.9025,2.691,2.5545,0.0,0.0,0.0,0.0,0.0,0.0,0.0,0.0,0.0,0.0,0.0,0.0,0.0,0.0,0.0,0.0,0.0,0.0,0.0,0.0,0.0,0.0,4.5334,4.7339,4.7849,4.8626,4.9583,5.09,5.1394,5.1738,5.2007,5.1798,5.1633,5.1633,5.1379,5.1214,5.1214,5.1214,5.1214,5.1214,5.1214,5.1214,5.1214,5.1214,5.1214,5.1214,5.1214,5.1214,5.1214,5.1214,5.1214,5.1214,5.1214,5.069,4.9808,4.9419,4.876,0.0,0.0,0.0,0.0,0.0,4.6456,4.5289,4.5289,4.4436,4.329,4.329,4.3075,4.2776,4.2776,4.2312,4.1826,4.1826,4.1115,4.0397,4.0397,3.9903,3.9388,3.9388,3.9388,3.9388,3.9388,3.9388,3.9388,3.9388,3.9388,0.0,3.9388,3.9388,3.9388,3.9388,3.9388,3.9388,3.9388,3.887,3.8443,3.8431,3.729,3.6501,3.6503,3.5282,0.0,0.0,0.0,3.1127,3.0233,3.0145,0.0,0.0,0.0,0.0,0.0,0.0,0.0,0.0,2.5116,2.4955,0.0,0.0,0.0,0.0,0.0,0.0,0.0,0.0,0.0,0.0,0.0,0.0,0.0,0.0,0.0,0.0,4.7309,4.9045,5.024,5.048,5.0928,5.2067,5.2261,5.2546,5.3114,5.2576,5.2202,5.2202,5.1588,5.1214,5.1214,5.1214,0.0,0.0,0.0,5.1214,5.1214,5.1214,5.1214,5.1214,5.1214,5.1214,5.1214,5.1214,5.1214,5.1214,5.1214,5.0526,4.9419,4.9344,4.8491,4.7309,4.7309,4.7309,4.7309,4.7309,4.6456,4.5289,4.5289,0.0,0.0,4.329,4.329,4.329,4.329,4.294,4.2515,4.2515,4.1579,4.0606,4.0531,4.0023,3.9514,3.9439,3.9388,3.9388,3.9388,3.9388,3.9388,3.9388,3.9388,3.9388,3.9388,3.9388,3.9388,3.9388,3.9388,3.9388,3.9388,3.9388,3.9185,3.8571,0.0,0.0,3.6641,3.5387,3.4593,3.4503,3.2766,3.0863,2.8956,2.9635,2.9663,2.887,3.0094,3.0731,3.0731,3.1928,3.2228,3.1631,2.8164,2.7089,0.0,0.0,0.0,0.0,0.0,0.0,0.0,0.0,0.0,0.0,0.0,0.0,0.0,0.0,0.0,4.7354,4.9359,5.0915,5.1708,5.2276,5.2516,5.2232,5.2665,5.3039,5.3174,5.2576,5.2202,5.2202,5.1588,5.1214,5.1214,5.1214,5.1214,5.1214,5.1214,5.1214,5.1214,5.1214,5.1214,5.1214,5.1214,0.0,5.1214,5.1214,5.1214,5.1214,5.1214,5.0765,5.0017,4.9479,4.8491,4.7309,4.7309,4.7309,4.7309,4.7309,4.6456,4.5289,4.5289,4.4436,4.329,4.329,4.329,4.329,4.329,4.32,0.0,4.315,4.2581,4.1901,4.1324,4.0711,4.0083,3.9544,3.9388,3.9388,3.9388,3.9388,3.9388,3.9388,3.9388,3.9388,3.9388,3.9388,3.9388,3.9388,3.9388,3.9388,3.9388,3.9388,3.9328,3.923,3.8616,3.7943,3.7285,3.6043,3.507,3.4533,3.3619,3.2691,3.1753,3.2393,3.2422,3.1723,3.196,3.2123,3.2123,3.2377,3.2721,3.3095,3.1783,3.1309,0.0,0.0,0.0,0.0,0.0,0.0,0.0,0.0,0.0,0.0,0.0,4.3643,4.4661,0.0,4.7444,4.9434,5.0855,5.1932,5.2591,5.3279,5.3578,5.3249,5.3189,5.3443,5.4132,5.298,5.2336,5.2665,5.1768,5.1214,5.1214,5.1214,5.1214,5.1214,5.1214,5.1214,5.1214,5.1214,5.1214,5.1214,5.1214,5.1214,5.1214,5.1214,5.1214,5.1214,5.1214,5.0661,4.9673,4.8686,4.7893,4.7309,4.7309,4.7309,4.7309,4.7309,4.6456,4.5289,4.5289,4.4436,4.329,4.329,4.329,4.329,4.329,4.329,4.329,4.329,4.2865,4.2321,4.1991,4.113,4.0322,3.9993,3.9627,3.9388,3.9388,3.9388,3.9388,3.9388,3.9388,3.9388,3.9388,3.9388,3.9388,3.9388,3.9388,3.9388,3.9388,3.9388,3.9388,3.9388,3.8796,3.8257,3.7928,3.7015,3.6178,3.5519,3.4861,3.4203,3.3529,3.3499,3.3335,3.3021,3.332,3.3499,3.3499,3.4173,3.4666,3.4996,3.4981,3.4442,0.0,0.0,0.0,0.0,0.0,0.0,0.0,4.2267,4.3549,4.4197,4.5259,4.6396,4.7489,4.8222,4.9269,5.1109,5.1962,5.2621,5.3294,5.3862,5.4206,5.4206,5.3713,5.3758,5.47,5.3219,5.2411,5.295,5.1887,5.1214,5.1214,5.1214,5.1214,5.1214,5.1214,5.1214,5.1214,5.1214,5.1214,5.1214,5.1214,5.1214,5.1214,5.1214,5.1214,5.1214,5.096,5.0167,4.903,4.7803,4.7309,4.7309,4.7309,4.7309,4.7309,4.7309,4.6456,4.5289,4.5289,4.4436,4.329,4.329,4.329,4.329,4.329,4.329,4.329,4.329,4.2955,4.256,4.2425,4.1512,4.0561,4.0427,3.9903,3.9388,3.9388,3.9388,3.9388,3.9388,3.9388,3.9388,3.9388,3.9388,3.9388,3.9388,3.9388,3.9388,3.9388,3.9388,3.9388,3.9388,3.8916,3.8542,3.8407,3.7793,3.7195,3.6701,3.6163,3.5624,3.5102,3.4532,3.4262,3.4262,3.4786,3.504,3.5087,3.6133,3.6671,3.6686,3.718,3.6567,4.1212,4.0187,3.9828,4.1542,4.2066,4.3084,0.0,4.701,4.6935,4.7593,4.8327,4.891,4.906,4.9583,5.042,5.1872,5.2636,5.3309,5.3997,5.4162,5.4206,5.4206,5.4147,5.3907,5.3458,5.268,5.2232,5.2306,5.1633,5.1214,5.1214,5.1214,5.1214,5.1214,5.1214,5.1214,5.1214,5.1214,5.1214,5.1214,5.1214,5.1214,5.1214,5.1214,5.1214,5.1154,4.9987,4.9075,4.8341,4.7608,4.7309,4.7309,4.7309,4.7309,4.7309,4.7309,4.6456,4.5289,4.5289,4.4436,4.329,4.329,4.329,4.329,4.329,4.329,4.329,4.329,4.3245,4.309,4.2545,4.1856,4.113,4.0531,3.9903,3.9388,3.9388,3.9388,3.9388,3.9388,3.9388,3.9388,3.9388,3.9388,3.9388,3.9388,3.9388,3.9388,3.9388,3.9388,3.9388,3.9388,3.9313,3.905,3.8437,3.7793,3.7375,3.73,3.724,3.7165,3.709,3.7,3.6971,3.6971,3.7045,3.709,3.709,3.724,3.73,3.73,3.7375,3.7285,4.3165,4.2402,4.1959,4.3195,4.4377,4.5663,4.7339,4.8087,4.8626,4.9284,4.9942,5.0406,5.0406,5.0631,5.1244,5.2561,5.2995,5.3414,5.4117,5.4206,5.3922,5.3129,5.3039,5.3069,5.3174,5.2232,5.1783,5.2172,5.1588,5.1214,5.1214,5.1214,5.1214,5.1214,5.1214,5.1214,5.1214,5.1214,5.1214,5.1214,5.1214,5.1214,5.1214,5.1214,5.1214,5.1154,4.9838,4.9149,4.882,4.7743,4.7309,4.7309,4.7309,4.7309,4.7309,4.7309,4.6456,4.5289,4.5289,4.4436,4.329,4.329,4.329,4.329,4.329,4.329,4.329,4.329,4.329,4.314,4.2575,4.1916,4.1205,4.0561,3.9903,3.9388,3.9388,3.9388,3.9388,3.9388,3.9388,3.9388,3.9388,3.9388,3.9388,3.9388,3.9388,3.9388,3.9388,3.9388,3.9388,3.9388,3.9388,3.9305,3.902,3.8736,3.8571,3.8571,3.8197,3.7973,3.7973,3.7614,3.7404,3.7404,3.7404,3.7404,3.7404,3.7793,3.7973,3.7988,3.8392,3.8571,4.3823,4.3688,4.3813,4.4885,4.6501,4.7893,4.8072,4.8985,4.9942,5.036,5.0838,5.1214,5.1214,5.1214,5.1648,5.2965,5.3174,5.3414,5.4117,5.4042,5.3503,5.2336,5.2037,5.2112,5.2591,5.1783,5.1409,5.1887,5.1483,5.1214,5.1214,5.1214,5.1214,5.1214,5.1214,5.1214,5.1214,5.1214,5.1214,5.1214,5.1214,5.1214,5.1214,5.1214,5.102,5.0631,4.9673,4.9105,4.8656,4.7698,4.7309,4.7309,4.7309,4.7309,4.7309,4.7309,4.6456,4.5289,4.5289,4.4436,4.329,4.329,4.329,4.329,4.329,4.329,4.329,4.329,4.329,4.3185,4.2746,4.2013,4.1265,4.0786,4.0023,3.9388,3.9388,3.9388,3.9388,3.9388,3.9388,3.9388,3.9388,3.9388,3.9388,3.9388,3.9388,3.9388,3.9388,3.9388,3.9388,3.9388,3.9388,3.9388,3.9388,3.9388,3.9388,3.9388,3.8945,3.8676,3.8676,3.8212,3.7958,3.7958,3.7958,3.7958,3.7958,3.8437,3.8676,3.8691,3.9185,3.9388,4.2635,4.3329,4.4751,4.6726,4.8222,4.9374,4.9956,5.0629,5.1169,5.1184,5.1214,5.1214,5.1214,5.1214,5.1648,5.2965,5.3174,5.3414,5.4117,5.3638,5.295,5.2276,5.1633,5.1259,5.1274,5.1244,5.1229,5.1244,5.1229,5.1214,5.1214,5.1214,5.1214,5.1214,5.1214,5.1214,5.1214,5.1214,5.1214,5.1214,5.1214,5.1214,5.1214,5.1214,5.0526,4.9374,4.9329,4.8536,4.7369,4.7324,4.7309,4.7309,4.7309,4.7309,4.7309,4.7309,4.6456,4.5289,4.5289,4.4436,4.329,4.329,4.329,4.329,4.329,4.329,4.329,4.329,4.329,4.329,4.3275,4.2342,4.1369,4.1354,4.0367,3.9388,3.9388,3.9388,3.9388,3.9388,3.9388,3.9388,3.9388,3.9388,3.9388,3.9388,3.9388,3.9388,3.9388,3.9388,3.9388,3.9388,3.9388,3.9388,3.9388,3.9388,3.9388,3.9388,3.9394,3.9394,3.9394,3.9328,3.9328,3.9328,3.9328,3.9328,3.9328,3.9379,3.9394,3.9394,3.9373,3.9388,4.3599,4.4945,4.6681,4.8222,4.9269,5.0077,5.0735,5.1065,5.1214,5.1214,5.0823,5.0524,5.0524,5.0524,5.0808,5.1738,5.2621,5.3114,5.2905,5.3054,5.277,5.1678,5.1349,5.1214,5.1214,5.1214,5.1214,5.1214,5.1214,5.1214,5.1214,5.1214,5.1214,5.1214,5.1214,5.1214,5.1214,5.1214,5.1214,5.1214,5.1214,5.1214,5.1214,5.1214,5.0735,4.9883,4.9449,4.8805,4.7923,4.7489,4.7309,4.7309,4.7309,4.7309,4.7249,4.6815,4.6082,4.5289,4.5289,4.4436,4.329,4.329,4.329,4.329,4.329,4.329,4.329,4.329,4.329,4.32,4.2806,4.2028,4.1265,4.0831,4.0053,3.9388,3.9388,3.9388,3.9388,3.9388,3.9388,3.9388,3.9388,3.9388,3.9388,3.9388,3.9388,3.9388,3.9388,3.9388,3.9388,3.9388,3.9388,3.9388,3.9388,3.9388,3.9388,3.9388,3.9388,3.9388,3.9388,3.9388,3.9388,3.9388,3.9388,3.9388,3.9388,3.9388,3.9388,3.9388,3.9388,3.9388,4.508,4.6501,4.8027,4.9583,5.0272,5.0659,5.1124,5.1214,5.1154,5.0868,5.0346,4.9823,4.9583,4.9314,4.9508,5.0644,5.1768,5.2501,5.2546,5.292,5.277,5.1693,5.1364,5.1214,5.1214,5.1214,5.1214,5.1214,5.1214,5.1214,5.1214,5.1214,5.1214,5.1214,5.1214,5.1214,5.1214,5.1214,5.1214,5.1214,5.1214,5.1214,5.1214,5.0928,5.0511,4.9853,4.9209,4.8536,4.7908,4.7474,4.7309,4.7309,4.7309,4.7309,4.7234,4.6576,4.5888,4.5259,4.5035,4.4242,4.329,4.329,4.329,4.329,4.329,4.329,4.329,4.329,4.329,4.32,4.2821,4.2043,4.1265,4.0846,4.0068,3.9388,3.9388,3.9388,3.9388,3.9388,3.9388,3.9388,3.9388,3.9388,3.9388,3.9388,3.9388,3.9388,3.9388,3.9388,3.9388,3.9388,3.9388,3.9388,3.9388,3.9388,3.9388,3.9388,3.9388,3.9388,3.9388,3.9388,3.9388,3.9388,3.9388,3.9388,3.9388,3.9388,3.9388,3.9388,3.9388,3.9388,4.683,4.7893,4.888,5.075,5.1214,5.1214,5.1214,5.1184,5.0928,5.024,4.9583,4.894,4.8222,4.7653,4.7908,4.9732,5.0704,5.1708,5.295,5.3129,5.289,5.2276,5.1618,5.1214,5.1214,5.1214,5.1214,5.1214,5.1214,5.1214,5.1214,5.1214,5.1214,5.1214,5.1214,5.1214,5.1214,5.1214,5.1214,5.1214,5.1214,5.1199,5.1154,5.048,4.9868,4.9224,4.8566,4.7923,4.7309,4.7309,4.7309,4.7309,4.7309,4.7309,4.7219,4.6531,4.5858,4.52,4.4496,4.3813,4.329,4.329,4.329,4.329,4.329,4.329,4.329,4.329,4.329,4.329,4.329,4.2357,4.1422,4.1422,4.0382,3.9388,3.9388,3.9388,3.9388,3.9388,3.9388,3.9388,3.9388,3.9388,3.9388,3.9388,3.9388,3.9388,3.9388,3.9388,3.9388,3.9388,3.9388,3.9388,3.9388,3.9388,3.9388,3.9388,3.9388,3.9388,3.9388,3.9388,3.9388,3.9388,3.9388,3.9388,3.9388,3.9388,3.9388,3.9388,3.9388,3.9388,4.7758,4.9224,5.0601,5.1094,5.1214,5.1214,5.1214,5.0794,5.0121,4.903,4.7878,4.6711,4.5544,4.6411,4.7474,4.7967,5.0242,5.2067,5.2411,5.2441,5.2381,5.2217,5.1618,5.1214,5.1214,5.1214,5.1214,5.1214,5.1214,5.1214,5.1214,5.1214,5.1214,5.1214,5.1214,5.1214,5.1214,5.1214,5.1214,5.1214,5.1214,5.096,5.0435,5.027,4.9613,4.8536,4.8356,4.7923,4.7309,4.7309,4.7309,4.7309,4.7309,4.7309,4.716,4.5992,4.5454,4.5125,4.3947,4.3424,4.329,4.329,4.329,4.329,4.329,4.329,4.329,4.329,4.329,4.329,4.329,4.2357,4.1422,4.1422,4.0382,3.9388,3.9388,3.9388,3.9388,3.9388,3.9388,3.9388,3.9388,3.9388,3.9388,3.9388,3.9388,3.9388,3.9388,3.9388,3.9388,3.9388,3.9388,3.9388,3.9388,3.9388,3.9388,3.9388,3.9388,3.9388,3.9388,3.9388,3.9388,3.9388,3.9388,3.9388,3.9388,3.9388,3.9388,3.9388,3.9388,3.9388,4.897,5.0152,5.1214,5.1214,5.1214,5.099,5.0122,4.9643,4.885,4.6935,4.5723,4.465,4.3643,4.4601,4.5843,4.6741,4.9149,5.1214,5.2082,5.2202,5.2202,5.2202,5.1618,5.1214,5.1214,5.1214,5.1214,5.1214,5.1214,5.1214,5.1214,5.1214,5.1214,5.1214,5.1214,5.1214,5.1214,5.1214,5.1065,5.0749,5.0749,5.0451,4.9808,4.9508,4.8985,4.8267,4.7982,4.7653,4.7309,4.7309,4.7309,4.7309,4.7309,4.7309,4.7145,4.5783,4.5289,4.511,4.3753,4.329,4.329,4.329,4.329,4.329,4.329,4.329,4.329,4.329,4.329,4.329,4.329,4.2581,4.1767,4.1444,4.0591,3.9768,3.9448,3.9388,3.9388,3.9388,3.9388,3.9388,3.9388,3.9388,3.9388,3.9388,3.9388,3.9388,3.9388,3.9388,3.9388,3.9388,3.9388,3.9388,3.9388,3.9388,3.9388,3.9388,3.9388,3.9388,3.9388,3.9388,3.9388,3.9388,3.9388,3.9388,3.9388,3.9388,3.9388,3.9388,3.9388,3.9388,5.0197,5.0749,5.1214,5.1214,5.1154,5.0601,4.8716,4.8147,4.7279,4.4601,4.3484,4.2851,4.2141,4.2641,4.3828,4.5816,4.7848,4.9898,5.1902,5.2127,5.2097,5.2187,5.1618,5.1214,5.1214,5.1214,5.1214,5.1214,5.1214,5.1214,5.1214,5.1214,5.1214,5.1214,5.1214,5.1214,5.1214,5.1124,5.0764,5.0196,5.0106,4.9763,4.9164,4.8551,4.8237,4.8117,4.7549,4.7309,4.7309,4.7309,4.7309,4.7309,4.7309,4.7309,4.7145,4.5783,4.5289,4.511,4.3753,4.329,4.329,4.329,4.329,4.329,4.329,4.329,4.329,4.329,4.329,4.329,4.329,4.2851,4.2246,4.1692,4.0935,4.0247,3.9679,3.9448,3.9388,3.9388,3.9388,3.9388,3.9388,3.9388,3.9388,3.9388,3.9388,3.9388,3.9388,3.9388,3.9388,3.9388,3.9388,3.9388,3.9388,3.9388,3.9388,3.9388,3.9388,3.9388,3.9388,3.9388,3.9388,3.9388,3.9388,3.9388,3.9388,3.9388,3.9388,3.9388,3.9388,3.9388,5.087,5.1124,5.1214,5.1214,5.0764,4.9986,4.8611,4.7444,4.5903,4.3279,4.2216,4.1354,4.0142,4.1354,4.3219,4.5155,4.7145,4.9329,5.1843,5.1738,5.1588,5.2127,5.1618,5.1214,5.1214,5.1214,5.1214,5.1214,5.1214,5.1214,5.1214,5.1214,5.1214,5.1214,5.1214,5.1214,5.1214,5.0629,5.03,5.0181,4.9688,4.909,4.8461,4.8341,4.7997,4.7474,4.7354,4.7309,4.7309,4.7309,4.7309,4.7309,4.7309,4.7309,4.7145,4.5783,4.5289,4.511,4.3753,4.329,4.329,4.329,4.329,4.329,4.329,4.329,4.329,4.329,4.329,4.329,4.329,4.2851,4.2366,4.2246,4.1265,4.0367,4.0247,3.9798,3.9388,3.9388,3.9388,3.9388,3.9388,3.9388,3.9388,3.9388,3.9388,3.9388,3.9388,3.9388,3.9388,3.9388,3.9388,3.9388,3.9388,3.9388,3.9388,3.9388,3.9388,3.9388,3.9388,3.9388,3.9388,3.9388,3.9388,3.9388,3.9388,3.9388,3.9388,3.9388,3.9388,3.9388,5.1035,5.1214,5.1214,5.1214,5.0689,4.9568,4.7264,4.5978,4.4436,4.1444,4.0576,4.0172,3.9529,4.0756,4.2387,4.4003,4.5364,4.7264,5.0257,5.0107,5.0197,5.1528,5.1409,5.1214,5.1214,5.1214,5.1214,5.1214,5.1214,5.1214,5.1214,5.1214,5.1214,5.1214,5.1214,5.1214,5.1214,5.0524,5.0016,4.9718,4.9075,4.8416,4.7773,4.7773,4.7593,4.7309,4.7309,4.7309,4.7309,4.7309,4.7309,4.7309,4.7309,4.7309,4.7145,4.5783,4.5289,4.511,4.3753,4.329,4.329,4.329,4.329,4.329,4.329,4.329,4.329,4.329,4.329,4.329,4.329,4.3105,4.2776,4.247,4.1647,4.0905,4.0905,4.0382,3.9933,3.9933,3.9649,3.9388,3.9388,3.9388,3.9388,3.9388,3.9388,3.9388,3.9388,3.9388,3.9388,3.9388,3.9388,3.9388,3.9388,3.9388,3.9388,3.9388,3.9388,3.9388,3.9388,3.9388,3.9388,3.9388,3.9388,3.9388,3.9388,3.9388,3.9388,3.9388,3.9388,3.9388,5.1035,5.1214,5.1214,5.1214,5.0511,4.9015,4.5992,4.4571,4.3045,4.0001,3.9388,3.9388,3.9388,4.0262,4.1429,4.2895,4.3673,4.5259,4.8625,4.8775,4.9164,5.1005,5.1214,5.1214,5.1214,5.1214,5.1214,5.1214,5.1214,5.1214,5.1214,5.1214,5.1214,5.1214,5.1214,5.1154,5.1005,5.0361,4.9703,4.909,4.8386,4.7803,4.7309,4.7309,4.7309,4.7309,4.7309,4.7309,4.7309,4.7309,4.7309,4.7309,4.7309,4.7309,4.7145,4.5783,4.5289,4.511,4.3753,4.329,4.329,4.329,4.329,4.329,4.329,4.329,4.329,4.329,4.329,4.329,4.329,4.329,4.3125,4.2545,4.2006,4.1587,4.1452,4.098,4.0561,4.0427,4.0098,3.9753,3.9433,3.9508,3.9589,3.9403,3.9388,3.9388,3.9388,3.9388,3.9388,3.9388,3.9388,3.9388,3.9388,3.9388,3.9388,3.9388,3.9388,3.9388,3.9388,3.9388,3.9388,3.9388,3.9388,3.9388,3.9388,3.9388,3.9388,3.9388,3.9388,3.9388,5.1035,5.1214,5.1214,5.1214,4.9838,4.7908,4.5783,4.3908,4.1991,3.9843,3.9388,3.9388,3.9388,3.9514,4.0232,4.2186,4.3,4.4586,4.7908,4.888,4.9688,5.105,5.1214,5.1214,5.1214,5.1214,5.1214,5.1214,5.1214,5.1214,5.1214,5.1214,5.1214,5.1214,5.1214,5.0883,5.0285,4.9688,4.9075,4.8371,4.7713,4.7369,4.7309,4.7309,4.7309,4.7309,4.7309,4.7309,4.7309,4.7309,4.7309,4.7309,4.7309,4.7309,4.7145,4.5783,4.5289,4.511,4.3753,4.329,4.329,4.329,4.329,4.329,4.329,4.329,4.329,4.329,4.329,4.329,4.329,4.329,4.3125,4.2545,4.2351,4.2141,4.1504,4.1324,4.1115,4.0516,4.0831,4.0816,3.9634,3.9903,4.0113,3.9514,3.9388,3.9388,3.9388,3.9388,3.9388,3.9388,3.9388,3.9388,3.9388,3.9388,3.9388,3.9388,3.9388,3.9388,3.9388,3.9388,3.9388,3.9388,3.9388,3.9388,3.9388,3.9388,3.9388,3.9388,3.9388,3.9388,5.0196,5.0868,5.1214,5.1214,4.9748,4.7758,4.5753,4.3818,4.1841,3.9828,3.9388,3.9388,3.9388,3.9388,3.9798,4.0995,4.107,4.1998,4.493,4.5544,4.6636,4.9149,4.9808,5.0361,5.1139,5.1214,5.1214,5.1214,5.1214,5.1214,5.1214,5.1214,5.1214,5.1214,5.1214,5.09,5.0196,4.9583,4.8985,4.8282,4.7623,4.7309,4.7309,4.7309,4.7309,4.7309,4.7309,4.7309,4.7309,4.7309,4.7309,4.7309,4.7309,4.7055,4.6591,4.5648,4.505,4.4571,4.3618,4.329,4.329,4.329,4.329,4.329,4.329,4.329,4.329,4.329,4.329,4.329,4.329,4.329,4.323,4.3015,4.294,4.288,4.2611,4.2252,4.1931,4.1677,4.1512,4.1205,4.0696,4.0816,4.0905,4.0636,4.0262,4.0008,4.0008,3.9664,3.9388,3.9388,3.9388,3.9388,3.9388,3.9388,3.9388,3.9388,3.9388,3.9388,3.9388,3.9388,3.9388,3.9388,3.9388,3.9388,3.9388,3.9388,3.9388,3.9388,3.9388,3.9388,4.9419,5.0436,5.0883,5.0883,4.9449,4.7474,4.5469,4.3479,4.1602,3.9783,3.9388,3.9388,3.9388,3.9388,3.9574,4.0038,3.9888,4.0561,4.3045,4.3524,4.4706,4.7638,4.8401,4.9209,5.0511,5.099,5.1214,5.1214,5.1214,5.1214,5.1214,5.1214,5.1214,5.1214,5.0988,5.0569,4.9957,4.9299,4.8685,4.7997,4.7534,4.7309,4.7309,4.7309,4.7309,4.7309,4.7309,4.7309,4.7309,4.7309,4.7309,4.7309,4.7309,4.6905,4.6204,4.5544,4.4885,4.4212,4.3529,4.329,4.329,4.329,4.329,4.329,4.329,4.329,4.329,4.329,4.329,4.329,4.329,4.329,4.329,4.329,4.329,4.329,4.329,4.297,4.262,4.2425,4.2147,4.1833,4.1444,4.1572,4.1647,4.1452,4.0995,4.0696,4.0696,4.0292,3.9993,3.9993,3.9993,3.9843,3.9418,3.9388,3.9388,3.9388,3.9388,3.9388,3.9388,3.9388,3.9388,3.9388,3.9388,3.9388,3.9388,3.9388,3.9388,3.9388,3.9388,3.9388,4.8745,4.9748,5.0196,5.0196,4.8775,4.6785,4.4781,4.2806,4.101,3.9694,3.9388,3.9388,3.9388,3.9388,3.9388,3.9388,3.9963,4.1085,4.3105,4.3913,4.505,4.707,4.7324,4.7848,4.9209,5.0466,5.1214,5.1214,5.1214,5.1214,5.1214,5.1214,5.1214,5.1214,5.0539,4.9942,4.9329,4.8626,4.7967,4.7309,4.7309,4.7309,4.7309,4.7309,4.7309,4.7309,4.7309,4.7309,0.0,4.7309,4.7309,4.7309,4.7309,4.6905,4.6204,4.5544,4.4885,4.4212,4.3529,4.329,4.329,4.329,4.329,4.329,4.329,4.329,4.329,4.329,4.329,4.329,4.329,4.329,4.329,4.329,4.329,4.329,4.329,4.329,4.3135,4.253,4.288,4.2895,4.1609,4.1961,4.2171,4.1512,4.1369,4.1407,4.1407,4.1369,4.1392,4.1392,4.1392,4.0831,3.9493,3.9388,3.9388,3.9388,3.9388,3.9388,3.9388,3.9388,3.9388,3.9388,3.9388,3.9388,3.9388,3.9388,3.9388,3.9388,3.9388,3.9388,4.5589,4.6711,4.74,4.698,4.5723,4.4302,4.3225,4.1803,4.0472,3.9568,3.9388,3.9275,3.8796,3.8721,3.8871,3.9349,3.9589,4.0262,4.1803,4.3344,4.49,4.6456,4.8611,5.0137,5.0556,5.0975,5.1214,5.1214,5.1214,5.1214,5.1214,5.1214,5.1214,5.1214,5.0539,4.9927,4.9329,4.8626,4.7952,4.7309,4.7309,4.7309,4.7309,4.7309,4.7309,4.7309,4.7309,4.7309,4.7309,4.7309,4.7309,4.7309,4.7309,4.6905,4.6249,4.6082,4.5574,4.4885,4.4227,4.3962,4.3888,4.3439,4.329,4.329,4.329,4.329,4.329,4.329,4.329,4.329,4.329,4.329,4.329,4.329,4.329,4.329,4.329,4.329,4.323,4.306,4.3155,4.317,4.2791,4.288,4.2955,4.2746,4.2342,4.2096,4.2096,4.1692,4.1422,4.1422,4.1422,4.1205,4.0786,4.0756,4.0756,4.0756,4.0337,4.0083,4.0083,3.9649,3.9388,3.9388,3.9388,3.9649,4.0083,4.0083,4.0322,4.0756,4.0756,4.0756,4.3454,4.4736,4.5469,4.5035,4.4122,4.3065,4.2231,4.116,4.0217,3.9559,3.9215,3.8901,3.8467,3.8182,3.8242,3.8916,3.9035,3.9574,4.116,4.2865,4.4631,4.6471,4.894,5.0481,5.0481,5.093,5.1214,5.1214,5.1214,5.1109,5.0823,5.0808,5.0735,5.0496,5.0077,4.9553,4.894,4.8252,4.7713,4.7309,4.7309,4.7309,4.7309,4.7309,4.7309,4.7309,4.7309,4.7309,0.0,4.7309,4.7309,4.7309,4.7309,4.6905,4.6279,4.6279,4.5888,4.52,4.4541,4.4317,4.4212,4.3499,4.329,4.329,4.329,4.329,4.329,4.329,4.329,4.329,4.329,4.329,4.329,4.329,4.329,4.329,4.329,4.329,4.329,4.329,4.329,4.329,4.329,4.329,4.329,4.329,4.2985,4.2731,4.2731,4.2372,4.2117,4.2117,4.2117,4.2117,4.2117,4.1669,4.1422,4.1422,4.0995,4.0771,4.0771,4.0382,4.0157,4.0157,4.0157,4.0367,4.0771,4.0771,4.098,4.1422,4.1422,4.1422,0.0,4.3349,4.3883,4.3838,4.3319,4.2557,4.1384,4.0621,0.0,3.9409,3.8766,3.8317,3.8317,3.7823,3.7644,3.8347,3.8497,3.9215,4.1175,4.2701,4.456,4.7264,4.8656,4.9449,4.9449,5.0511,5.1214,5.1214,5.1214,5.0883,5.0226,5.0196,4.9912,4.9269,4.9239,4.894,4.8297,4.7638,4.7309,4.7309,4.7309,4.7309,4.7309,4.7309,4.7309,4.7309,4.7309,4.7309,4.7309,4.7309,4.7309,4.7309,4.7309,4.6935,4.6354,4.6354,4.5963,4.5274,4.4601,4.4347,4.4212,4.3499,4.329,4.329,4.329,4.329,4.329,4.329,4.329,4.329,4.329,4.329,4.329,4.329,4.329,4.329,4.329,4.329,4.329,4.329,4.329,4.329,4.329,4.329,4.329,4.329,4.329,4.329,4.329,4.329,4.329,4.329,4.329,4.329,4.329,4.2222,4.1519,4.1519,4.1474,4.1444,4.1444,4.1452,4.1422,4.1422,4.1467,4.1444,4.1444,4.1489,4.1519,4.1519,4.1519,4.1519,3.8452,0.0,3.9664,3.9155,3.8916,3.8721,0.0,3.8227,3.8063,3.7913,3.7749,3.7644,3.7644,3.7509,3.7793,3.899,3.9604,4.0442,4.1961,4.4586,4.7354,4.9987,5.0571,5.075,5.075,5.1035,5.1214,5.1214,5.1214,5.0883,5.0226,5.0196,4.9718,4.8551,4.8521,4.8446,4.8282,4.7638,4.7309,4.7309,4.7309,4.7309,4.7309,4.7309,4.7309,4.7309,4.7309,4.7309,4.7309,4.7309,4.7309,4.7309,4.7309,4.7204,4.707,4.707,4.6651,4.5978,4.5304,4.4736,4.4212,4.3499,4.329,4.329,4.329,4.329,4.329,4.329,4.329,4.329,4.329,4.329,4.329,4.329,4.329,4.329,4.329,4.329,4.329,4.329,4.329,4.329,4.329,4.329,4.329,4.329,4.329,4.329,4.329,4.329,4.329,4.329,4.329,4.329,4.329,4.3006,4.2826,4.2826,4.2402,4.2171,4.2171,4.1692,4.1422,4.1422,4.1916,4.2171,4.2171,4.2641,4.2826,4.2826,4.2826,4.2826,3.6447,3.7449,3.8302,3.7943,3.7853,3.7853,3.7853,3.7629,3.7404,3.7404,3.718,3.7075,3.736,3.718,3.7524,3.9155,3.9709,4.095,4.3778,4.6247,4.8611,5.0945,5.1214,5.1214,5.1214,5.1214,5.1214,5.1214,5.0945,5.0435,4.9823,4.9508,4.888,4.7863,4.7833,4.7833,4.7833,4.7489,4.7309,4.7309,4.7309,4.7309,4.7309,4.7309,4.7309,4.7309,4.7309,4.7309,4.7309,4.7309,4.7309,4.7309,4.7309,4.7309,4.7309,4.7309,4.7085,4.6636,4.5633,4.4661,4.3768,4.3409,4.329,4.329,4.329,4.329,4.329,4.329,4.329,4.329,4.329,4.329,4.329,4.329,4.329,4.329,4.329,4.329,4.329,4.329,4.329,4.329,4.329,4.329,4.329,4.329,4.329,4.329,4.329,4.329,4.329,4.329,4.329,4.329,4.329,4.329,4.329,4.329,4.3,4.2806,4.2806,4.2462,4.2282,4.2282,4.2626,4.2806,4.2806,4.3125,4.329,4.329,4.329,4.329,3.5624,3.7,3.8347,3.8153,3.8167,3.8242,3.8242,3.7808,3.7404,3.7404,3.6985,3.6821,3.7449,3.7225,3.7539,3.9409,4.0053,4.1803,4.6022,4.7668,4.9134,5.099,5.1214,5.1214,5.1214,5.1214,5.1184,5.1079,5.051,4.9912,4.9209,4.8596,4.7982,4.7324,4.7309,4.7309,4.7309,4.7309,4.7309,4.7309,4.7309,4.7309,4.7309,4.7309,4.7309,4.7309,4.7309,0.0,4.7309,4.7309,4.7309,4.7309,4.7309,4.7309,4.7309,4.7309,4.7249,4.698,4.5723,4.4496,4.3439,4.3439,4.3379,4.329,4.329,4.329,4.329,4.329,4.329,4.329,4.329,4.329,4.329,4.329,4.329,4.329,4.329,4.329,4.329,4.329,4.329,4.329,4.329,4.329,4.329,4.329,4.329,4.329,4.329,4.329,4.329,4.329,4.329,4.329,4.329,4.329,4.329,4.329,4.329,4.329,4.329,4.329,4.329,4.329,4.329,4.329,4.329,4.329,4.329,4.329,4.329,4.329,3.6178,3.7345,3.8123,3.7045,3.718,3.7554,3.7554,3.7479,3.7404,3.7404,3.733,3.7464,3.8123,3.8631,3.9424,4.0846,4.294,4.5229,4.7638,4.8641,4.9643,5.105,5.1214,5.1214,5.1214,5.1214,5.0943,5.039,5.0255,4.9718,4.8506,4.8341,4.7982,4.7324,4.7309,4.7309,4.7309,4.7309,4.7309,4.7309,4.7309,4.7309,4.7309,4.7309,4.7309,4.7309,0.0,4.7309,4.7309,4.7309,4.7309,4.7309,4.7309,4.7309,4.7309,4.7309,4.695,4.6352,4.5574,4.4796,4.4167,4.4167,4.3738,4.329,4.329,4.329,4.329,4.329,4.329,4.329,4.329,4.329,4.329,4.329,4.329,4.329,4.329,4.329,4.329,4.329,4.329,4.329,4.329,4.329,4.329,4.329,4.329,4.329,4.329,4.329,4.329,4.329,4.329,4.329,4.329,4.329,4.329,4.329,4.329,4.329,4.329,4.329,4.329,4.329,4.329,4.329,4.329,4.329,4.329,4.329,4.329,4.329,3.5878,3.6881,3.7719,3.7135,3.7749,3.8392,3.8018,3.7659,3.7404,3.7404,3.7404,3.7599,3.8272,3.9245,4.0726,4.3105,4.511,4.695,4.8625,4.9389,5.0152,5.1109,5.1214,5.1214,5.1214,5.1214,5.0898,5.024,4.9912,4.9299,4.8341,4.7952,4.7623,4.7309,4.7309,4.7309,4.7309,4.7309,4.7309,4.7309,4.7309,4.7309,4.7309,4.7309,4.7309,4.7309,0.0,4.7309,4.7309,4.7309,4.7309,4.7309,4.7309,4.7309,4.7309,4.7309,4.689,4.6234,4.5963,4.5409,4.4781,4.4421,4.4107,4.3753,4.3409,4.329,4.329,4.329,4.329,4.329,4.329,4.329,4.329,4.329,4.329,4.329,4.329,4.329,4.329,4.329,4.329,4.329,4.329,4.329,4.329,4.329,4.329,4.329,4.329,4.329,4.329,4.329,4.329,4.329,4.329,4.329,4.329,4.329,4.329,4.329,4.329,4.329,4.329,4.329,4.329,4.329,4.329,4.329,4.329,4.329,4.329,4.329,3.5863,3.6552,3.7225,3.7375,3.8302,3.9155,3.9095,3.8571,3.8242,3.8706,3.8676,3.8721,3.923,4.0412,4.2237,4.508,4.6785,4.8177,4.9329,5.0062,5.0599,5.1154,5.1214,5.1214,5.1214,5.1079,5.0705,5.0062,4.9404,4.8745,4.8087,4.7578,4.7309,4.7309,4.7309,4.7309,4.7309,4.7309,4.7309,4.7309,4.7309,4.7309,4.7309,4.7309,4.7309,4.7309,4.7309,4.7309,4.7309,4.7309,4.7309,4.7309,4.7309,4.7309,4.7309,4.7309,4.6995,4.6503,4.6503,4.6112,4.5454,4.4945,4.4676,4.4451,4.3902,4.3753,4.3753,4.3753,4.3753,4.3678,4.3379,4.329,4.329,4.329,4.329,4.3334,4.3484,4.3409,4.3379,4.3693,4.3618,4.3529,4.3529,4.3529,4.3469,4.3319,4.329,4.329,4.329,4.329,4.329,4.329,4.329,4.329,4.329,4.329,4.329,4.329,4.329,4.329,4.329,4.329,4.329,4.329,4.329,4.329,4.329,4.329,4.329,4.329,4.329,4.329,3.6941,3.6926,3.6686,3.727,3.7943,3.8945,4.0756,4.0666,4.0711,4.2482,4.2417,4.2051,4.2111,4.315,4.4511,4.6007,4.7878,4.9374,5.0031,5.0689,5.1169,5.1214,5.1214,5.1214,5.1214,5.0629,5.0032,4.9434,4.8775,4.8072,4.7414,4.7339,4.7309,4.7309,4.7309,4.7309,4.7309,4.7309,4.7309,4.7309,4.7309,4.7309,4.7309,4.7309,4.7309,4.7309,4.7309,4.7309,4.7309,4.7309,4.7309,4.7309,4.7309,4.7309,4.7309,4.7309,4.7279,4.7234,4.7234,4.68,4.6204,4.6145,4.5753,4.5214,4.517,4.5155,4.5155,4.5155,4.5155,4.487,4.3604,4.329,4.329,4.329,4.329,4.3469,4.4107,4.3723,4.3648,4.4915,4.4661,4.4242,4.4242,4.4242,4.4032,4.3379,4.329,4.329,4.329,4.329,4.329,4.329,4.329,4.329,4.329,4.329,4.329,4.329,4.329,4.329,4.329,4.329,4.329,4.329,4.329,4.329,4.329,4.329,4.329,4.329,4.329,4.329,3.6088,3.6626,3.703,3.6881,3.7943,3.9334,4.0502,4.0891,4.1459,4.3045,4.315,4.309,4.3494,4.3988,4.4885,4.6651,4.8252,4.9494,5.0106,5.0764,5.1214,5.1214,5.0808,5.0569,5.0569,5.0017,4.9359,4.8745,4.8416,4.7997,4.7339,4.7309,4.7309,4.7309,4.7309,4.7309,4.7309,4.7309,4.7309,4.7309,4.7309,4.7309,4.7309,4.7309,4.7309,4.7309,4.7309,4.7309,4.7309,4.7309,4.7309,4.7309,4.7309,4.7309,4.7309,4.7309,4.7309,4.7309,4.7309,4.7145,4.686,4.6456,4.6157,4.5858,4.5424,4.5289,4.5289,4.5289,4.5289,4.5185,4.4691,4.4541,4.4541,4.4541,4.4541,4.4616,4.487,4.4721,4.4691,4.52,4.5095,4.493,4.493,4.493,4.484,4.4586,4.4541,4.4541,4.4541,4.4541,4.4392,4.3988,4.3544,4.329,4.329,4.329,4.329,4.329,4.329,4.329,4.329,4.329,4.329,4.329,4.329,4.329,4.329,4.329,4.329,4.329,4.329,4.329,3.5863,3.6297,3.6806,3.6791,3.7943,3.9439,4.0726,4.1407,4.2351,4.4496,4.4586,4.4381,4.487,4.4766,4.5214,4.701,4.8237,4.9254,5.0076,5.0451,5.0676,5.0885,5.0331,4.9942,4.9942,4.9344,4.8775,4.8312,4.8087,4.7773,4.7324,4.7309,4.7309,4.7309,4.7309,4.7204,4.6995,4.6995,4.689,4.6681,4.689,4.7115,4.7309,4.7309,4.7309,4.7309,4.7309,4.7309,4.7309,4.7309,4.7309,4.7309,4.7309,4.7309,4.7309,4.7309,4.7309,4.7309,4.7309,4.7309,4.7234,4.677,4.6636,4.6546,4.6067,4.5933,4.5933,4.5933,4.5933,4.5933,4.5933,4.5618,4.5289,4.5289,4.5289,4.5349,4.5574,4.5454,4.5424,4.5843,4.5768,4.5618,4.5618,4.5618,4.5544,4.5334,4.5289,4.5289,4.5289,4.5289,4.5125,4.4661,4.4227,4.3917,4.3917,4.3917,4.3917,4.3917,4.3917,4.3723,4.3305,4.329,4.329,4.329,4.329,4.329,4.329,4.3499,4.3604,4.3604,4.3813,4.3917,3.6626,3.5998,3.5818,3.709,3.7913,3.9125,4.1811,4.2425,4.3549,4.7459,4.7234,4.6279,4.6279,4.5768,4.5738,4.707,4.7863,4.873,4.9986,4.9673,4.9508,5.0106,4.9658,4.9299,4.9299,4.8656,4.8282,4.8282,4.7683,4.7309,4.7309,4.7309,4.7309,4.7294,4.7294,4.698,4.6279,4.6264,4.5978,4.5304,4.5992,4.6651,4.7294,4.7309,4.7309,4.7309,4.7309,4.7309,4.7309,4.7309,4.7309,4.7309,4.7309,4.7309,4.7309,4.7309,4.7309,4.7309,4.7309,4.7309,4.7309,4.7309,4.7309,4.7309,4.7309,4.7309,4.7309,4.7309,4.7309,4.7309,4.7309,4.6307,4.5319,4.5319,4.5319,4.5499,4.6187,4.5798,4.5708,4.704,4.677,4.6294,4.6294,4.6294,4.6097,4.5424,4.5319,4.5319,4.5319,4.5304,4.5304,4.5304,4.5289,4.5289,4.5289,4.5289,4.5289,4.5289,4.5289,4.4706,4.3364,4.3319,4.3319,4.3319,4.3319,4.3319,4.3319,4.4003,4.4332,4.4347,4.499,4.5289,3.5282,3.5657,3.6387,3.721,3.9305,4.1677,4.3344,4.3733,4.4466,4.7055,4.692,4.6279,4.6279,4.6157,4.6142,4.6546,4.7549,4.8416,4.8805,4.9134,4.9389,4.9538,4.897,4.8581,4.8581,4.7982,4.7593,4.7593,4.7414,4.7309,4.7309,4.7309,4.71,4.6636,4.6621,4.6292,4.5603,4.5603,4.5499,4.5289,4.5499,4.5963,4.6636,4.71,4.7309,4.7309,4.7309,4.7309,4.7309,4.7309,4.7309,4.7309,4.7309,4.7309,4.7309,4.7309,4.7309,4.7309,4.7309,4.7309,4.7309,4.7309,4.7309,4.7309,4.7309,4.7309,4.7309,4.7309,4.7309,4.7309,4.7309,4.701,4.6711,4.6711,4.6711,4.6756,4.6965,4.686,4.683,4.7219,4.7145,4.701,4.701,4.701,4.695,4.6741,4.6711,4.6711,4.6711,4.6307,4.6022,4.6022,4.5589,4.5289,4.5289,4.5289,4.5289,4.5289,4.5289,4.5125,4.4721,4.4721,4.4721,4.4721,4.4721,4.4721,4.4721,4.4915,4.5005,4.5005,4.5214,4.5289,3.5759,3.6432,3.7464,3.8377,4.0292,4.256,4.4631,4.5514,4.6232,4.7444,4.7174,4.68,4.7055,4.6681,4.6369,4.6666,4.7384,4.7997,4.8252,4.8401,4.8581,4.8895,4.8297,4.7893,4.7893,4.7534,4.7309,4.7309,4.7309,4.7189,4.6935,4.692,4.6606,4.5933,4.5918,4.5589,4.4915,4.49,4.4781,4.4526,4.4781,4.5125,4.5544,4.6202,4.6651,4.6935,4.7189,4.7309,4.7309,4.7309,4.7309,4.7309,4.7309,4.7309,4.7309,4.7309,4.7309,4.7309,4.7309,4.7309,4.7309,4.7309,4.7309,4.7309,4.7309,4.7309,4.7309,4.7309,4.7309,4.7309,4.7309,4.7309,4.7309,4.7309,4.7309,4.7309,4.7309,4.7309,4.7309,4.7309,4.7309,4.7309,4.7309,4.7309,4.7309,4.7309,4.7309,4.7309,4.7309,4.6965,4.6711,4.6711,4.6337,4.6097,4.6097,4.6097,4.6097,4.6097,4.6097,4.6097,4.6097,4.5574,4.5289,4.5289,4.5289,4.5289,4.5289,4.5574,4.5708,4.5708,4.5978,4.6097,3.715,3.7749,3.8706,4.0068,4.107,4.2566,4.5693,4.7339,4.8192,4.8192,4.7713,4.7489,4.8087,4.7219,4.6606,4.7204,4.7309,4.7519,4.8117,4.7683,4.7534,4.8132,4.7668,4.7279,4.7219,4.7219,4.7189,4.713,4.713,4.686,4.6262,4.619,4.5918,4.5229,4.5214,4.4885,4.4227,4.4227,4.3888,4.3305,4.3943,4.4227,4.4242,4.4975,4.5633,4.6219,4.686,4.716,4.7219,4.7219,4.7249,4.7309,4.7309,4.7309,4.7309,4.7309,4.7309,4.7309,4.7309,4.7309,4.7309,4.7309,4.7309,4.7309,4.7309,4.7309,4.7309,4.7309,4.7309,4.7309,4.7309,4.7309,4.7309,4.7309,4.7309,4.7309,4.7309,4.7309,4.7309,4.7309,4.7309,4.7309,4.7309,4.7309,4.7309,4.7309,4.7309,4.7309,4.7309,4.7309,4.7309,4.7309,4.7309,4.7309,4.7309,4.7309,4.7309,4.7309,4.7309,4.7309,4.7309,4.6127,4.5469,4.5469,4.5469,4.5469,4.5484,4.6112,4.6369,4.6426,4.7025,4.7309,3.51,3.6716,3.8706,4.0068,4.2447,4.4915,4.6696,4.7309,4.7519,4.7519,4.7399,4.7354,4.7489,4.7279,4.7145,4.7279,4.7309,4.7354,4.7489,4.7399,4.7354,4.7504,4.7399,4.71,4.6591,4.6531,4.6322,4.5768,4.5723,4.5663,4.5529,4.5514,4.5214,4.4541,4.4526,4.4212,4.3514,4.3499,4.3424,4.329,4.3439,4.3499,4.3544,4.4751,4.5379,4.5529,4.5663,4.6037,4.6531,4.6531,4.6845,4.7309,4.7309,4.7309,4.7309,4.7309,4.7309,4.7309,4.7309,4.7309,4.7309,4.7309,4.7309,4.7309,4.7309,4.7309,4.7309,4.7309,4.7309,4.7309,4.7309,4.7309,4.7309,4.7309,4.7309,4.7309,4.7309,4.7309,4.7309,4.7309,4.7309,4.7309,4.7309,4.7309,4.7309,4.7309,4.7309,4.7309,4.7309,4.7309,4.7309,4.7309,4.7309,4.7309,4.7309,4.7309,4.7309,4.7309,4.7309,4.7309,4.7309,4.7025,4.6875,4.6875,4.6875,4.6875,4.6875,4.701,4.71,4.71,4.7234,4.7309,3.5534,3.7345,3.9349,4.1309,4.3569,4.5559,4.6606,4.7085,4.7219,4.6905,4.7085,4.7309,4.7309,4.7309,4.7309,4.7309,4.7309,4.7309,4.7309,4.7309,4.7189,4.6875,4.683,4.6576,4.5903,4.5828,4.5678,4.5319,4.5289,4.5155,4.484,4.4825,4.4526,4.3828,4.3798,4.3633,4.329,4.329,4.329,4.329,4.329,4.329,4.3319,4.4362,4.4825,4.484,4.5155,4.5499,4.5828,4.5828,4.6037,4.6367,4.6711,4.683,4.6875,4.7189,4.7309,4.7309,4.7309,4.7309,4.7309,4.7309,4.7309,4.7309,4.7309,4.7309,4.7309,4.7309,4.7309,4.7309,4.7309,4.7309,4.7309,4.7309,4.7309,4.7309,4.7309,4.7309,4.7309,4.7309,4.7309,4.7309,4.7309,4.7309,4.7309,4.7309,4.7309,4.7309,4.7309,4.7309,4.7309,4.7309,4.7309,4.7309,4.7309,4.7309,4.7309,4.7309,4.7309,4.7309,4.7309,4.7309,4.7309,4.7309,4.7309,4.7309,4.7309,4.7309,4.7309,4.7309,4.7309,4.7309,3.5804,3.7778,3.9903,4.2617,4.4242,4.5304,4.5992,4.6576,4.68,4.6262,4.6681,4.71,4.698,4.695,4.6995,4.7115,4.704,4.6995,4.7115,4.704,4.6756,4.6217,4.6142,4.5873,4.5185,4.5125,4.508,4.496,4.4945,4.4721,4.4182,4.4152,4.3858,4.3305,4.329,4.329,4.329,4.329,4.329,4.329,4.329,4.329,4.3319,4.3858,4.4152,4.4182,4.4721,4.502,4.5125,4.5125,4.52,4.5364,4.6052,4.6279,4.6396,4.7055,4.7309,4.7309,4.7309,4.7309,4.7309,4.7309,4.7309,4.7309,4.7309,4.7309,4.7309,4.7309,4.7309,4.7309,4.7309,4.7309,4.7309,4.7309,4.7309,4.7309,4.7309,4.7309,4.7309,4.7309,4.7309,4.7309,4.7309,4.7309,4.7309,4.7309,4.7309,4.7309,4.7309,4.7309,4.7309,4.7309,4.7309,4.7309,4.7309,4.7309,4.7309,4.7309,4.7309,4.7309,4.7309,4.7309,4.7309,4.7309,4.7309,4.7309,4.7309,4.7309,4.7309,4.7309,4.7309,4.7309,3.2183,3.5355,3.9305,4.2566,4.3913,4.4616,4.5289,4.5499,4.5544,4.5454,4.5978,4.6277,4.5663,4.5559,4.5768,4.6352,4.5963,4.5768,4.6367,4.5933,4.5529,4.5439,4.5424,4.517,4.4511,4.4451,4.4212,4.3604,4.3559,4.3514,4.3424,4.3424,4.3379,4.329,4.329,4.329,4.329,4.329,4.329,4.329,4.329,4.329,4.329,4.3379,4.3424,4.3424,4.3514,4.3888,4.4451,4.4451,4.4781,4.5364,4.6052,4.6279,4.6396,4.7055,4.7309,4.7309,4.7309,4.7309,4.7309,4.7309,4.7309,4.7309,4.7309,4.7309,4.7309,4.7309,4.7309,4.7309,4.7309,4.7309,4.7309,4.7309,4.7309,4.7309,4.7309,4.7309,4.7309,4.7309,4.7309,4.7309,4.7309,4.7309,4.7309,4.7309,4.7309,4.7309,4.7309,4.7309,4.7309,4.7309,4.7309,4.7309,4.7309,4.7309,4.7309,4.7309,4.7309,4.7309,4.7309,4.7309,4.7309,4.7309,4.7309,4.7309,4.7309,4.7309,4.7309,4.7309,4.7309,4.7309,3.3604,3.6312,3.9095,4.2111,4.3299,4.3943,4.4601,4.5035,4.5185,4.4825,4.4975,4.5214,4.5289,4.5289,4.5394,4.5693,4.5484,4.5394,4.5708,4.5484,4.5155,4.4781,4.4751,4.4481,4.3783,4.3723,4.3604,4.3319,4.329,4.329,4.329,4.329,4.329,4.329,4.329,4.329,4.329,4.329,4.329,4.329,4.329,4.329,4.329,4.329,4.329,4.329,4.329,4.3454,4.3723,4.3723,4.3888,4.4302,4.5334,4.5753,4.5873,4.692,4.7309,4.7309,4.7309,4.7309,4.7309,4.7309,4.7309,4.7309,4.7309,4.7309,4.7309,4.7309,4.7309,4.7309,4.7309,4.7309,4.7309,4.7309,4.7309,4.7309,4.7309,4.7309,4.7309,4.7309,4.7309,4.7309,4.7309,4.7309,4.7309,4.7309,4.7309,4.7309,4.7309,4.7309,4.7309,4.7309,4.7309,4.7309,4.7309,4.7309,4.7309,4.7309,4.7309,4.7309,4.7309,4.7309,4.7309,4.7309,4.7309,4.7309,4.7309,4.7309,4.7309,4.7309,4.7309,4.7309,3.4307,3.6297,3.7823,4.0688,4.1983,4.2722,4.3419,4.4077,4.4407,4.3913,4.3943,4.4212,4.4706,4.4796,4.4855,4.502,4.49,4.4855,4.502,4.49,4.4616,4.4122,4.4062,4.3828,4.3349,4.329,4.329,4.329,4.314,4.309,4.309,4.2925,4.2836,4.2836,4.3,4.309,4.309,4.32,4.329,4.329,4.329,4.329,4.329,4.329,4.329,4.329,4.329,4.329,4.329,4.329,4.329,4.3424,4.4781,4.5289,4.5454,4.6815,4.7309,4.7309,4.7309,4.7309,4.7309,4.7309,4.7309,4.7309,4.7309,4.7309,4.7309,4.7309,4.7309,4.7309,4.7309,4.7309,4.7309,4.7309,4.7309,4.7309,4.7309,4.7309,4.7309,4.7309,4.7309,4.7309,4.7309,4.7309,4.7309,4.7309,4.7309,4.7309,4.7309,4.7309,4.7309,4.7309,4.7309,4.7309,4.7309,4.7309,4.7309,4.7309,4.7309,4.7309,4.7309,4.7309,4.7309,4.7309,4.7309,4.7309,4.7309,4.7309,4.7309,4.7309,4.7309,4.7309,3.1809,3.3215,3.4532,3.7793,3.9589,4.0726,4.1384,4.2081,4.2545,4.2515,4.2955,4.3349,4.3394,4.3394,4.3604,4.4272,4.3838,4.3618,4.4272,4.3783,4.3379,4.3349,4.3349,4.3334,4.329,4.329,4.329,4.329,4.2761,4.2455,4.2455,4.1856,4.1489,4.1489,4.2126,4.2455,4.2455,4.3015,4.329,4.329,4.329,4.329,4.329,4.329,4.329,4.329,4.329,4.329,4.329,4.329,4.329,4.3424,4.4781,4.5289,4.5454,4.6815,4.7309,4.7309,4.7309,4.7309,4.7309,4.7309,4.7309,4.7309,4.7309,4.7309,4.7309,4.7309,4.7309,4.7309,4.7309,4.7309,4.7309,4.7309,4.7309,4.7309,4.7309,4.7309,4.7309,4.7309,4.7309,4.7309,4.7309,4.7309,4.7309,4.7309,4.7309,4.7309,4.7309,4.7309,4.7309,4.7309,4.7309,4.7309,4.7309,4.7309,4.7309,4.7309,4.7309,4.7309,4.7309,4.7309,4.7309,4.7309,4.7309,4.7309,4.7309,4.7309,4.7309,4.7309,4.7309,4.7309,3.0672,3.2033,3.3455,3.5923,3.7509,3.8766,3.9873,4.095,4.1886,4.2306,4.259,4.2836,4.3215,4.329,4.3364,4.3604,4.3454,4.3379,4.3604,4.3439,4.329,4.329,4.329,4.329,4.329,4.329,4.3125,4.2746,4.253,4.2216,4.1796,4.1542,4.1422,4.1422,4.1647,4.1976,4.2396,4.3015,4.329,4.329,4.329,4.329,4.329,4.329,4.329,4.329,4.329,4.329,4.329,4.329,4.329,4.3424,4.4781,4.5289,4.5454,4.6815,4.7309,4.7309,4.7309,4.7309,4.7309,4.7309,4.7309,4.7309,4.7309,4.7309,4.7309,4.7309,4.7309,4.7309,4.7309,4.7309,4.7309,4.7309,4.7309,4.7309,4.7309,4.7309,4.7309,4.7309,4.7309,4.7309,4.7309,4.7309,4.7309,4.7309,4.7309,4.7309,4.7309,4.7309,4.7309,4.7309,4.7309,4.7309,4.7309,4.7309,4.7309,4.7309,4.7309,4.7309,4.7309,4.7309,4.7309,4.7309,4.7309,4.7309,4.7309,4.7309,4.7309,4.7309,4.7309,4.7309,2.9564,3.0836,3.2377,3.4607,3.5624,3.6686,3.888,3.9918,4.0673,4.1557,4.1916,4.2201,4.2596,4.2671,4.2821,4.323,4.329,4.329,4.329,4.3591,4.381,4.381,4.3853,4.3793,4.3501,4.3503,4.3122,4.2134,4.2146,4.1829,4.1108,4.0846,4.0831,4.1055,4.1055,4.1474,4.2396,4.2791,4.312,4.329,4.329,4.329,4.329,4.329,4.329,4.329,4.329,4.329,4.329,4.329,4.3424,4.3738,4.487,4.5439,4.5783,4.689,4.7309,4.7309,4.7309,4.7309,4.7309,4.7309,4.7309,4.7309,4.7309,4.7309,4.7309,4.7309,4.7309,4.7309,4.7309,4.7309,4.7309,4.7309,4.7309,4.7309,4.7309,4.7309,4.7309,4.7309,4.7309,4.7309,4.7309,4.7309,4.7309,4.7309,4.7309,4.7309,4.7309,4.7309,4.7309,4.7309,4.7309,4.7309,4.7309,4.7309,4.7309,4.7309,4.7309,4.7309,4.7309,4.7309,4.7309,4.7309,4.7309,4.7309,4.7309,4.7309,4.7309,4.7309,4.7309,4.7309,0.0,0.0,0.0,3.3725,3.3858,3.4427,3.8332,3.8721,3.8646,4.0053,4.0831,4.1332,4.1407,4.1422,4.1788,4.3021,4.323,4.323,4.323,4.4121,4.475,4.475,4.4914,4.4735,4.3894,4.3908,4.327,4.1528,4.1576,4.1301,4.0404,3.9768,3.9709,4.0352,4.0382,4.101,4.2336,4.2381,4.2671,4.326,4.329,4.329,4.329,4.329,4.329,4.329,4.329,4.329,4.329,4.329,4.3678,4.4377,4.5035,4.5723,4.6396,4.7055,4.7309,4.7309,4.7309,4.7309,4.7309,4.7309,4.7309,4.7309,4.7309,4.7309,4.7309,4.7309,4.7309,4.7309,4.7309,4.7309,4.7309,4.7324,4.7339,4.7339,4.7354,4.7369,4.7354,4.7339,4.7339,4.7339,4.7354,4.7369,4.7354,4.7339,4.7339,4.7324,4.7309,4.7309,4.7309,4.7309,4.7309,4.7309,4.7309,4.7309,4.7309,4.7309,4.7309,4.7309,4.7309,4.7309,4.7309,4.7309,4.7309,4.7309,4.7309,4.7309,4.7309,4.7309,4.7309,4.7309,2.8547,0.0,0.0,0.0,0.0,0.0,3.3948,3.4651,3.5639,3.8377,3.8721,3.9095,4.1025,4.1422,4.1542,4.1863,4.1923,4.1923,4.1923,4.2694,4.3288,4.3288,4.3905,4.4211,4.3971,4.3968,4.3342,4.173,4.1692,4.1102,3.9745,3.9514,3.9514,3.9694,4.0157,4.0576,4.0935,4.1931,4.2485,4.2626,4.3105,4.329,4.329,4.329,4.329,4.329,4.329,4.329,4.329,4.329,4.3678,4.4377,4.5035,4.5723,4.6396,4.7055,4.7309,4.7309,4.7309,4.7309,4.7309,4.7309,4.7309,4.7309,4.7309,4.7309,4.7309,4.7309,4.7309,4.7309,4.7309,4.7309,4.7429,4.7908,4.8012,4.8147,4.8626,4.8775,4.8581,4.8102,4.8012,4.8162,4.8641,4.8775,4.8566,4.8087,4.8012,4.7848,4.7369,4.7309,4.7309,4.7309,4.7309,4.7309,4.7309,4.7309,4.7309,4.7309,4.7309,4.7309,4.7309,4.7309,4.7309,4.7309,4.7309,4.7309,4.7309,4.7309,4.7309,4.7309,4.7309,4.7309,2.94,2.9684,3.0103,3.0657,0.0,0.0,3.32,3.3619,3.4352,3.736,3.7674,3.7958,3.9798,4.0142,4.0232,4.0516,4.0863,4.1286,4.1847,4.2715,4.3441,4.377,4.4037,4.4009,4.3679,4.3356,4.2655,4.136,4.1604,4.1261,4.0005,3.992,3.9773,3.9409,3.9783,4.0127,4.0397,4.116,4.1856,4.2396,4.2746,4.3075,4.329,4.329,4.329,4.329,4.329,4.329,4.329,4.329,4.3843,4.4766,4.5155,4.5888,4.677,4.716,4.7309,4.7309,4.7309,4.7309,4.7309,4.7309,4.7309,4.7309,4.7309,4.7309,4.7309,4.7309,4.7309,4.7309,4.7309,4.7519,4.7818,4.8192,4.8491,4.879,4.9224,4.9314,4.9194,4.8805,4.8745,4.8865,4.9239,4.9314,4.9179,4.8805,4.8461,4.8147,4.7758,4.7474,4.7309,4.7309,4.7309,4.7309,4.7309,4.7309,4.7309,4.7309,4.7309,4.7309,4.7309,4.7309,4.7309,4.7309,4.7309,4.7309,4.7309,4.7309,4.7309,4.7309,4.7309,4.7309,3.0746,3.0776,3.1091,3.2138,3.1195,0.0,3.4113,3.3978,3.3844,3.6267,3.6701,3.6911,3.7793,3.8018,3.8307,3.8977,3.9856,4.0928,4.2277,4.3377,4.4301,4.5058,4.4733,4.4136,4.3331,4.267,4.1933,4.1046,4.1609,4.1674,4.0878,4.0758,4.0328,3.9574,3.9445,3.9709,4.0292,4.0367,4.1025,4.2291,4.2366,4.2701,4.329,4.329,4.329,4.329,4.329,4.329,4.329,4.329,4.4107,4.5289,4.5289,4.6127,4.7309,4.7309,4.7309,4.7309,4.7309,4.7309,4.7309,4.7309,4.7309,4.7309,4.7309,4.7309,4.7309,4.7309,4.7309,4.7309,4.7309,4.7803,4.8312,4.8371,4.894,4.9434,4.9509,4.9524,4.9524,4.9524,4.9464,4.9434,4.9524,4.9524,4.9509,4.9434,4.888,4.8446,4.8312,4.7773,4.7384,4.7309,4.7309,4.7309,4.7309,4.7309,4.7309,4.7309,4.7309,4.7309,4.7309,4.7309,4.7309,4.7309,4.7309,4.7309,4.7309,4.7309,4.7309,4.7309,4.7309,4.7309,3.2273,3.2512,3.2721,3.1899,3.2228,0.0,3.1074,3.0911,3.139,3.2422,3.2213,3.2542,3.4848,3.5699,3.6285,3.6961,3.8086,3.9373,4.0882,4.2446,4.3535,4.3687,4.4202,4.45,4.4322,4.4176,4.3739,4.2847,4.2284,4.1933,4.1772,4.108,4.0622,4.0466,3.9773,3.9448,3.9568,4.0127,4.0786,4.1617,4.2141,4.2701,4.329,4.329,4.329,4.329,4.329,4.329,4.329,4.329,4.4107,4.5289,4.5289,4.6127,4.7309,4.7309,4.7309,4.7309,4.7309,4.7309,4.7309,4.7309,4.7309,4.7309,4.7309,4.7309,4.7309,4.7309,4.7309,4.7309,4.7309,4.7803,4.8416,4.9,4.9568,5.0197,5.072,5.084,5.084,5.084,5.0406,5.0212,5.075,5.084,5.0661,5.0137,4.9897,4.9479,4.8416,4.8177,4.7893,4.7369,4.7309,4.7309,4.7309,4.7309,4.7309,4.7309,4.7309,4.7309,4.7309,4.7309,4.7309,4.7309,4.7309,4.7309,4.7309,4.7309,4.7309,4.7309,4.7309,4.7309,3.3679,3.3499,3.3425,3.308,3.2766,0.0,0.0,3.1001,3.0971,3.2662,3.189,3.1738,3.4455,3.4911,3.5364,3.6778,3.7888,3.8995,4.0148,4.167,4.2816,4.3246,4.3697,4.3948,4.3948,4.3545,4.3122,4.2676,4.3061,4.2923,4.2062,4.1609,4.1147,4.0709,3.9864,3.9388,3.9388,3.9753,4.0412,4.1422,4.1752,4.2387,4.329,4.329,4.329,4.329,4.329,4.329,4.329,4.329,4.3873,4.484,4.517,4.6127,4.7309,4.7309,4.7309,4.7309,4.7309,4.7309,4.7309,4.7309,4.7309,4.7309,4.7309,4.7309,4.7369,4.7698,4.7803,4.7878,4.8192,4.8775,4.9344,4.9673,5.0257,5.0764,5.1154,5.1214,5.1214,5.1214,5.0945,5.0825,5.1154,5.1214,5.1109,5.0734,5.0182,4.9508,4.885,4.8192,4.7668,4.7339,4.7309,4.7309,4.7309,4.7309,4.7309,4.7309,4.7309,4.7309,4.7309,4.7309,4.7309,4.7309,4.7309,4.7309,4.7309,4.7309,4.7309,4.7309,4.7309,4.7309,3.522,3.4741,3.4442,3.4503,3.3682,3.29,0.0,0.0,0.0,3.3576,3.2563,3.2071,3.4412,3.4364,3.4568,3.6422,3.754,3.8364,3.8969,4.0264,4.1581,4.2765,4.2766,4.2837,4.3271,4.2451,4.2036,4.2488,4.3398,4.3509,4.255,4.2347,4.1933,4.1213,4.0185,3.9631,3.9631,3.9481,4.0023,4.119,4.1324,4.1998,4.315,4.3245,4.329,4.329,4.329,4.329,4.329,4.329,4.3678,4.4377,4.5035,4.6037,4.713,4.7249,4.7309,4.7309,4.7309,4.7309,4.7309,4.7309,4.7309,4.7309,4.7309,4.7309,4.7444,4.8102,4.8282,4.8431,4.9149,4.9748,5.0196,5.0196,5.0689,5.1214,5.1214,5.1214,5.1214,5.1214,5.1214,5.1214,5.1214,5.1214,5.1214,5.1214,5.0212,4.9449,4.9329,4.8222,4.7444,4.7309,4.7309,4.7309,4.7309,4.7309,4.7309,4.7309,4.7309,4.7309,4.7309,4.7309,4.7309,4.7309,4.7309,4.7309,4.7309,4.7309,4.7309,4.7309,4.7309,4.7309,3.7255,3.7449,3.73,3.5073,3.6127,3.6676,3.2712,0.0,3.3715,3.2224,0.0,3.1853,3.2745,0.0,0.0,3.3819,3.4977,3.5838,3.5983,3.7255,3.8995,4.1197,4.082,4.118,4.3205,4.2122,4.2145,4.413,4.2628,4.2375,4.4209,4.3591,4.3108,4.3017,4.1412,4.0554,4.0554,3.9809,3.9783,4.0516,4.11,4.1811,4.253,4.3075,4.329,4.329,4.329,4.329,4.329,4.329,4.3678,4.4377,4.5035,4.5768,4.6516,4.7085,4.7309,4.7309,4.7309,4.7309,4.7309,4.7309,4.7309,4.7309,4.7309,4.7309,4.7444,4.8102,4.8282,4.8431,4.9149,4.9748,5.0196,5.0196,5.0689,5.1214,5.1214,5.1214,5.1214,5.1214,5.1214,5.1214,5.1214,5.1214,5.1214,5.1214,5.0554,4.9912,4.9389,4.8626,4.7952,4.7369,4.7309,4.7309,4.7309,4.7309,4.7309,4.7309,4.7309,4.7309,4.7309,4.7309,4.7309,4.7309,4.7309,4.7309,4.7309,4.7309,4.7309,4.7309,4.7309,4.7309,3.8217,3.7978,3.7586,3.6604,3.6252,3.5658,3.373,3.3053,3.2956,3.3275,0.0,0.0,0.0,0.0,0.0,0.0,3.4176,3.4251,3.4276,3.4407,3.5818,3.9385,3.9209,3.9475,4.1304,4.1305,4.156,4.2427,4.1708,4.1796,4.3139,4.3271,4.3306,4.3306,4.2093,4.1213,4.0709,4.0343,4.0233,4.0412,4.107,4.1767,4.2425,4.303,4.329,4.329,4.329,4.329,4.329,4.329,4.3454,4.3813,4.4885,4.5723,4.6396,4.7055,4.7309,4.7309,4.7309,4.7309,4.7309,4.7309,4.7309,4.7309,4.7309,4.7578,4.8012,4.8715,4.9134,4.9568,5.0227,5.0601,5.0764,5.0764,5.102,5.1214,5.1214,5.1214,5.1214,5.1214,5.1214,5.1214,5.1214,5.1214,5.1214,5.1214,5.0331,4.9583,4.9344,4.8356,4.7608,4.7339,4.7309,4.7309,4.7309,4.7309,4.7309,4.7309,4.7309,4.7309,4.7309,4.7309,4.7309,4.7309,4.7309,4.7309,4.7309,4.7309,4.7309,4.7309,4.7309,4.7309,3.9126,3.8803,3.8226,3.7826,3.6676,3.5472,3.4685,3.3905,3.3688,3.4945,3.4281,0.0,0.0,0.0,3.3749,3.4387,0.0,3.3561,3.3157,3.2418,3.3283,3.6876,3.7667,3.8323,3.9362,3.9598,4.006,4.0984,4.0402,4.0733,4.2451,4.3053,4.3435,4.3651,4.2816,4.2062,4.1412,4.0946,4.0624,4.0498,4.1115,4.1662,4.2156,4.2955,4.329,4.329,4.329,4.329,4.329,4.329,4.329,4.3424,4.4781,4.5603,4.6142,4.6995,4.7309,4.7309,4.7309,4.7309,4.7309,4.7309,4.7309,4.7309,4.7309,4.7758,4.8416,4.912,4.9733,5.0345,5.105,5.1214,5.1214,5.1214,5.1214,5.1214,5.1214,5.1214,5.1214,5.1214,5.1214,5.1214,5.1214,5.1214,5.1214,5.1214,5.0257,4.9538,4.9538,4.8386,4.7638,4.7818,4.7519,4.7369,4.7563,4.7414,4.7309,4.7309,4.7309,4.7309,4.7309,4.7309,4.7309,4.7309,4.7309,4.7309,4.7309,4.7309,4.7309,4.7309,4.7309,4.7309,4.0404,4.0628,4.0144,3.8259,3.8234,3.7964,3.5227,3.6202,3.7506,3.6861,3.7814,3.8558,3.7915,3.7178,3.6186,3.4726,3.4489,0.0,0.0,3.1712,3.1807,3.3398,3.6124,3.7892,3.789,3.6606,3.729,4.0915,3.8548,3.8819,4.3128,4.3382,4.3736,4.4525,4.371,4.3246,4.3216,4.1528,4.0706,4.0703,4.1155,4.1384,4.1444,4.2746,4.329,4.329,4.329,4.329,4.329,4.329,4.329,4.3424,4.4781,4.5304,4.5484,4.6815,4.7309,4.7309,4.7309,4.7309,4.7309,4.7309,4.7309,4.7309,4.7309,4.7758,4.8416,4.912,4.9733,5.0345,5.105,5.1214,5.1214,5.1214,5.1214,5.1214,5.1214,5.1214,5.1214,5.1214,5.1214,5.1214,5.1214,5.1214,5.1214,5.1214,5.0599,5.0166,5.0166,4.906,4.8506,4.9179,4.8057,4.7563,4.8192,4.7668,4.7309,4.7309,4.7309,4.7309,4.7309,4.7309,4.7309,4.7309,4.7309,4.7309,4.7309,4.7309,4.7309,4.7309,4.7309,4.7309,0.0,0.0,4.1894,4.1054,3.9374,3.7592,3.6348,3.663,3.7102,3.6838,3.798,3.8768,3.8041,3.7297,3.6434,3.5402,3.4421,3.3085,0.0,2.9753,2.9497,3.1055,3.4264,3.5981,3.4979,3.5807,3.7127,3.8886,3.8091,3.9022,4.2489,4.3149,4.3775,4.4581,4.4327,4.3873,4.3306,4.2724,4.1836,4.0706,4.1761,4.1975,4.1429,4.2731,4.329,4.329,4.329,4.329,4.329,4.329,4.3544,4.4062,4.4945,4.5574,4.6082,4.698,4.7309,4.7309,4.7309,4.7309,4.7309,4.7309,4.7309,4.7384,4.7818,4.8416,4.9075,4.9718,5.0376,5.0883,5.1154,5.1214,5.1214,5.1214,5.1214,5.1214,5.1214,5.1214,5.1214,5.1214,5.1214,5.1214,5.1214,5.1214,5.1214,5.1214,5.0614,5.0196,5.0196,4.9479,4.906,4.9284,4.8865,4.8745,4.8955,4.8775,4.8596,4.8596,4.8192,4.7952,4.7952,4.7534,4.7309,4.7309,4.7309,4.7309,4.7309,4.7309,4.7309,4.7309,4.7309,4.7309,4.5016,4.4642,0.0,4.3297,4.1576,0.0,3.8295,0.0,3.8597,3.807,3.8937,3.9715,3.9495,3.843,3.7229,3.6197,3.4776,3.2848,0.0,2.8856,2.8602,2.9583,3.2273,3.3981,3.3812,3.4404,3.5577,3.7364,3.6992,3.8091,4.1322,4.2472,4.3369,4.4147,4.4462,4.4327,4.3785,4.3456,4.2713,4.1523,4.2315,4.2377,4.1811,4.2851,4.329,4.329,4.329,4.329,4.329,4.329,4.3678,4.4377,4.5035,4.5723,4.6396,4.7055,4.7309,4.7309,4.7309,4.7309,4.7309,4.7309,4.7309,4.7429,4.8087,4.879,4.9449,5.0001,5.0659,5.1214,5.1214,5.1214,5.1214,5.1214,5.1214,5.1214,5.1214,5.1214,5.1214,5.1214,5.1214,5.1214,5.1214,5.1214,5.1214,5.1214,5.0808,5.0539,5.0539,5.0017,4.9703,4.9927,4.9584,4.9314,4.9314,4.9314,4.9314,4.9314,4.8865,4.8685,4.8685,4.7997,4.7653,4.7653,4.7429,4.7414,4.7653,4.7414,4.7429,4.7653,4.7414,4.7309]}]]